<?xml version="1.0" encoding="UTF-8" standalone="no" ?>
<gpx xmlns="http://www.topografix.com/GPX/1/1" xmlns:xsi="http://www.w3.org/2001/XMLSchema-instance" xsi:schemaLocation="http://www.topografix.com/GPX/1/1 http://www.topografix.com/GPX/1/1/gpx.xsd" version="1.1" creator="VisuGPX - https://www.visugpx.com">
  <metadata>
    <name>Morning Ride</name>
  </metadata>
  <trk>
    <name><![CDATA[Morning Ride]]></name>
    <trkseg>
      <trkpt lat="43.3041" lon="6.55287">
        <ele>201.8</ele>
        <time>1970-01-01T00:00:00.000Z</time>
      </trkpt>
      <trkpt lat="43.304" lon="6.55279">
        <ele>202.8</ele>
        <time>1970-01-01T00:00:05.000Z</time>
      </trkpt>
      <trkpt lat="43.30386" lon="6.5527">
        <ele>204</ele>
        <time>1970-01-01T00:00:11.000Z</time>
      </trkpt>
      <trkpt lat="43.30382" lon="6.55269">
        <ele>205.2</ele>
        <time>1970-01-01T00:00:13.000Z</time>
      </trkpt>
      <trkpt lat="43.30376" lon="6.55265">
        <ele>206.6</ele>
        <time>1970-01-01T00:00:16.000Z</time>
      </trkpt>
      <trkpt lat="43.30374" lon="6.55265">
        <ele>205</ele>
        <time>1970-01-01T00:00:17.000Z</time>
      </trkpt>
      <trkpt lat="43.30371" lon="6.55267">
        <ele>204.4</ele>
        <time>1970-01-01T00:00:19.000Z</time>
      </trkpt>
      <trkpt lat="43.30368" lon="6.55284">
        <ele>206.6</ele>
        <time>1970-01-01T00:00:25.000Z</time>
      </trkpt>
      <trkpt lat="43.30369" lon="6.5529">
        <ele>207.6</ele>
        <time>1970-01-01T00:00:27.000Z</time>
      </trkpt>
      <trkpt lat="43.30369" lon="6.55296">
        <ele>208.6</ele>
        <time>1970-01-01T00:00:29.000Z</time>
      </trkpt>
      <trkpt lat="43.30369" lon="6.55298">
        <ele>208.8</ele>
        <time>1970-01-01T00:00:30.000Z</time>
      </trkpt>
      <trkpt lat="43.30368" lon="6.5531">
        <ele>210</ele>
        <time>1970-01-01T00:00:34.000Z</time>
      </trkpt>
      <trkpt lat="43.30361" lon="6.55327">
        <ele>211</ele>
        <time>1970-01-01T00:00:41.000Z</time>
      </trkpt>
      <trkpt lat="43.30359" lon="6.55329">
        <ele>211.2</ele>
        <time>1970-01-01T00:00:42.000Z</time>
      </trkpt>
      <trkpt lat="43.30353" lon="6.55327">
        <ele>212.2</ele>
        <time>1970-01-01T00:00:47.000Z</time>
      </trkpt>
      <trkpt lat="43.30353" lon="6.55325">
        <ele>212.4</ele>
        <time>1970-01-01T00:00:48.000Z</time>
      </trkpt>
      <trkpt lat="43.30351" lon="6.55319">
        <ele>213.4</ele>
        <time>1970-01-01T00:00:51.000Z</time>
      </trkpt>
      <trkpt lat="43.30349" lon="6.55312">
        <ele>214.6</ele>
        <time>1970-01-01T00:00:54.000Z</time>
      </trkpt>
      <trkpt lat="43.30347" lon="6.55305">
        <ele>215.8</ele>
        <time>1970-01-01T00:00:58.000Z</time>
      </trkpt>
      <trkpt lat="43.30346" lon="6.553">
        <ele>217</ele>
        <time>1970-01-01T00:01:01.000Z</time>
      </trkpt>
      <trkpt lat="43.30342" lon="6.55294">
        <ele>218.2</ele>
        <time>1970-01-01T00:01:04.000Z</time>
      </trkpt>
      <trkpt lat="43.30332" lon="6.5528">
        <ele>219.2</ele>
        <time>1970-01-01T00:01:12.000Z</time>
      </trkpt>
      <trkpt lat="43.30323" lon="6.55274">
        <ele>220.2</ele>
        <time>1970-01-01T00:01:17.000Z</time>
      </trkpt>
      <trkpt lat="43.30315" lon="6.5527">
        <ele>221.2</ele>
        <time>1970-01-01T00:01:21.000Z</time>
      </trkpt>
      <trkpt lat="43.30309" lon="6.55268">
        <ele>222.2</ele>
        <time>1970-01-01T00:01:25.000Z</time>
      </trkpt>
      <trkpt lat="43.30298" lon="6.55262">
        <ele>223.4</ele>
        <time>1970-01-01T00:01:30.000Z</time>
      </trkpt>
      <trkpt lat="43.30284" lon="6.55259">
        <ele>224.6</ele>
        <time>1970-01-01T00:01:37.000Z</time>
      </trkpt>
      <trkpt lat="43.30278" lon="6.5526">
        <ele>225.6</ele>
        <time>1970-01-01T00:01:41.000Z</time>
      </trkpt>
      <trkpt lat="43.30272" lon="6.55262">
        <ele>226.8</ele>
        <time>1970-01-01T00:01:45.000Z</time>
      </trkpt>
      <trkpt lat="43.30267" lon="6.55264">
        <ele>228</ele>
        <time>1970-01-01T00:01:48.000Z</time>
      </trkpt>
      <trkpt lat="43.30261" lon="6.55267">
        <ele>229</ele>
        <time>1970-01-01T00:01:51.000Z</time>
      </trkpt>
      <trkpt lat="43.30256" lon="6.5527">
        <ele>230.4</ele>
        <time>1970-01-01T00:01:55.000Z</time>
      </trkpt>
      <trkpt lat="43.3025" lon="6.55273">
        <ele>231.4</ele>
        <time>1970-01-01T00:01:59.000Z</time>
      </trkpt>
      <trkpt lat="43.30244" lon="6.55271">
        <ele>232.6</ele>
        <time>1970-01-01T00:02:03.000Z</time>
      </trkpt>
      <trkpt lat="43.30243" lon="6.55259">
        <ele>233.6</ele>
        <time>1970-01-01T00:02:08.000Z</time>
      </trkpt>
      <trkpt lat="43.30246" lon="6.55244">
        <ele>234.2</ele>
        <time>1970-01-01T00:02:14.000Z</time>
      </trkpt>
      <trkpt lat="43.30247" lon="6.55222">
        <ele>234.6</ele>
        <time>1970-01-01T00:02:22.000Z</time>
      </trkpt>
      <trkpt lat="43.30244" lon="6.55209">
        <ele>235.8</ele>
        <time>1970-01-01T00:02:28.000Z</time>
      </trkpt>
      <trkpt lat="43.30241" lon="6.55205">
        <ele>237</ele>
        <time>1970-01-01T00:02:31.000Z</time>
      </trkpt>
      <trkpt lat="43.30235" lon="6.55203">
        <ele>238</ele>
        <time>1970-01-01T00:02:34.000Z</time>
      </trkpt>
      <trkpt lat="43.30224" lon="6.55202">
        <ele>239.2</ele>
        <time>1970-01-01T00:02:39.000Z</time>
      </trkpt>
      <trkpt lat="43.30213" lon="6.55198">
        <ele>240.4</ele>
        <time>1970-01-01T00:02:44.000Z</time>
      </trkpt>
      <trkpt lat="43.30202" lon="6.55191">
        <ele>241.6</ele>
        <time>1970-01-01T00:02:51.000Z</time>
      </trkpt>
      <trkpt lat="43.30193" lon="6.55181">
        <ele>242.8</ele>
        <time>1970-01-01T00:02:56.000Z</time>
      </trkpt>
      <trkpt lat="43.30185" lon="6.55169">
        <ele>243.8</ele>
        <time>1970-01-01T00:03:01.000Z</time>
      </trkpt>
      <trkpt lat="43.30177" lon="6.55155">
        <ele>244.8</ele>
        <time>1970-01-01T00:03:08.000Z</time>
      </trkpt>
      <trkpt lat="43.30174" lon="6.55146">
        <ele>246</ele>
        <time>1970-01-01T00:03:12.000Z</time>
      </trkpt>
      <trkpt lat="43.30173" lon="6.55136">
        <ele>246.8</ele>
        <time>1970-01-01T00:03:16.000Z</time>
      </trkpt>
      <trkpt lat="43.30173" lon="6.55134">
        <ele>247</ele>
        <time>1970-01-01T00:03:17.000Z</time>
      </trkpt>
      <trkpt lat="43.30175" lon="6.55128">
        <ele>248</ele>
        <time>1970-01-01T00:03:20.000Z</time>
      </trkpt>
      <trkpt lat="43.3018" lon="6.55124">
        <ele>249.2</ele>
        <time>1970-01-01T00:03:23.000Z</time>
      </trkpt>
      <trkpt lat="43.30186" lon="6.55119">
        <ele>250.2</ele>
        <time>1970-01-01T00:03:27.000Z</time>
      </trkpt>
      <trkpt lat="43.30194" lon="6.55115">
        <ele>251.4</ele>
        <time>1970-01-01T00:03:32.000Z</time>
      </trkpt>
      <trkpt lat="43.30202" lon="6.55108">
        <ele>252.4</ele>
        <time>1970-01-01T00:03:37.000Z</time>
      </trkpt>
      <trkpt lat="43.30205" lon="6.55099">
        <ele>253.6</ele>
        <time>1970-01-01T00:03:41.000Z</time>
      </trkpt>
      <trkpt lat="43.30202" lon="6.55084">
        <ele>254.4</ele>
        <time>1970-01-01T00:03:46.000Z</time>
      </trkpt>
      <trkpt lat="43.30201" lon="6.55082">
        <ele>254.6</ele>
        <time>1970-01-01T00:03:47.000Z</time>
      </trkpt>
      <trkpt lat="43.30192" lon="6.55059">
        <ele>255.8</ele>
        <time>1970-01-01T00:03:56.000Z</time>
      </trkpt>
      <trkpt lat="43.30176" lon="6.5503">
        <ele>256.8</ele>
        <time>1970-01-01T00:04:08.000Z</time>
      </trkpt>
      <trkpt lat="43.30172" lon="6.55022">
        <ele>258</ele>
        <time>1970-01-01T00:04:11.000Z</time>
      </trkpt>
      <trkpt lat="43.30169" lon="6.55011">
        <ele>259.2</ele>
        <time>1970-01-01T00:04:14.000Z</time>
      </trkpt>
      <trkpt lat="43.30169" lon="6.54931">
        <ele>260</ele>
        <time>1970-01-01T00:04:29.000Z</time>
      </trkpt>
      <trkpt lat="43.30162" lon="6.54855">
        <ele>258.6</ele>
        <time>1970-01-01T00:04:44.000Z</time>
      </trkpt>
      <trkpt lat="43.3016" lon="6.5484">
        <ele>260.4</ele>
        <time>1970-01-01T00:04:49.000Z</time>
      </trkpt>
      <trkpt lat="43.3016" lon="6.54829">
        <ele>261.6</ele>
        <time>1970-01-01T00:04:52.000Z</time>
      </trkpt>
      <trkpt lat="43.3016" lon="6.54823">
        <ele>262.6</ele>
        <time>1970-01-01T00:04:54.000Z</time>
      </trkpt>
      <trkpt lat="43.30161" lon="6.54813">
        <ele>263.6</ele>
        <time>1970-01-01T00:04:57.000Z</time>
      </trkpt>
      <trkpt lat="43.30163" lon="6.54779">
        <ele>264.8</ele>
        <time>1970-01-01T00:05:07.000Z</time>
      </trkpt>
      <trkpt lat="43.30181" lon="6.54718">
        <ele>266</ele>
        <time>1970-01-01T00:05:27.000Z</time>
      </trkpt>
      <trkpt lat="43.30187" lon="6.54709">
        <ele>267</ele>
        <time>1970-01-01T00:05:32.000Z</time>
      </trkpt>
      <trkpt lat="43.3019" lon="6.54704">
        <ele>268</ele>
        <time>1970-01-01T00:05:35.000Z</time>
      </trkpt>
      <trkpt lat="43.30194" lon="6.54699">
        <ele>269</ele>
        <time>1970-01-01T00:05:38.000Z</time>
      </trkpt>
      <trkpt lat="43.30198" lon="6.54695">
        <ele>270.2</ele>
        <time>1970-01-01T00:05:41.000Z</time>
      </trkpt>
      <trkpt lat="43.30203" lon="6.54694">
        <ele>271.4</ele>
        <time>1970-01-01T00:05:44.000Z</time>
      </trkpt>
      <trkpt lat="43.30209" lon="6.54692">
        <ele>272.4</ele>
        <time>1970-01-01T00:05:47.000Z</time>
      </trkpt>
      <trkpt lat="43.30222" lon="6.5469">
        <ele>273.6</ele>
        <time>1970-01-01T00:05:55.000Z</time>
      </trkpt>
      <trkpt lat="43.30226" lon="6.54688">
        <ele>274.6</ele>
        <time>1970-01-01T00:05:58.000Z</time>
      </trkpt>
      <trkpt lat="43.30233" lon="6.54685">
        <ele>276</ele>
        <time>1970-01-01T00:06:03.000Z</time>
      </trkpt>
      <trkpt lat="43.30239" lon="6.54682">
        <ele>277</ele>
        <time>1970-01-01T00:06:07.000Z</time>
      </trkpt>
      <trkpt lat="43.30244" lon="6.54679">
        <ele>278.2</ele>
        <time>1970-01-01T00:06:11.000Z</time>
      </trkpt>
      <trkpt lat="43.30251" lon="6.54676">
        <ele>279.4</ele>
        <time>1970-01-01T00:06:16.000Z</time>
      </trkpt>
      <trkpt lat="43.30256" lon="6.54676">
        <ele>280.4</ele>
        <time>1970-01-01T00:06:19.000Z</time>
      </trkpt>
      <trkpt lat="43.30264" lon="6.54675">
        <ele>281.6</ele>
        <time>1970-01-01T00:06:24.000Z</time>
      </trkpt>
      <trkpt lat="43.30275" lon="6.54674">
        <ele>282.8</ele>
        <time>1970-01-01T00:06:31.000Z</time>
      </trkpt>
      <trkpt lat="43.30279" lon="6.54673">
        <ele>284</ele>
        <time>1970-01-01T00:06:34.000Z</time>
      </trkpt>
      <trkpt lat="43.30284" lon="6.54671">
        <ele>285</ele>
        <time>1970-01-01T00:06:37.000Z</time>
      </trkpt>
      <trkpt lat="43.30289" lon="6.5467">
        <ele>286.2</ele>
        <time>1970-01-01T00:06:41.000Z</time>
      </trkpt>
      <trkpt lat="43.30294" lon="6.54669">
        <ele>287.4</ele>
        <time>1970-01-01T00:06:44.000Z</time>
      </trkpt>
      <trkpt lat="43.30298" lon="6.54666">
        <ele>288.6</ele>
        <time>1970-01-01T00:06:47.000Z</time>
      </trkpt>
      <trkpt lat="43.30304" lon="6.54659">
        <ele>289.8</ele>
        <time>1970-01-01T00:06:52.000Z</time>
      </trkpt>
      <trkpt lat="43.30312" lon="6.54647">
        <ele>291</ele>
        <time>1970-01-01T00:06:59.000Z</time>
      </trkpt>
      <trkpt lat="43.30319" lon="6.54632">
        <ele>292</ele>
        <time>1970-01-01T00:07:06.000Z</time>
      </trkpt>
      <trkpt lat="43.30323" lon="6.54619">
        <ele>293.2</ele>
        <time>1970-01-01T00:07:12.000Z</time>
      </trkpt>
      <trkpt lat="43.30328" lon="6.54605">
        <ele>294.2</ele>
        <time>1970-01-01T00:07:18.000Z</time>
      </trkpt>
      <trkpt lat="43.3033" lon="6.54592">
        <ele>295.4</ele>
        <time>1970-01-01T00:07:24.000Z</time>
      </trkpt>
      <trkpt lat="43.30331" lon="6.54582">
        <ele>296.6</ele>
        <time>1970-01-01T00:07:28.000Z</time>
      </trkpt>
      <trkpt lat="43.30331" lon="6.5457">
        <ele>297.8</ele>
        <time>1970-01-01T00:07:33.000Z</time>
      </trkpt>
      <trkpt lat="43.30329" lon="6.54555">
        <ele>299</ele>
        <time>1970-01-01T00:07:39.000Z</time>
      </trkpt>
      <trkpt lat="43.30327" lon="6.54547">
        <ele>300</ele>
        <time>1970-01-01T00:07:43.000Z</time>
      </trkpt>
      <trkpt lat="43.30325" lon="6.54543">
        <ele>300.2</ele>
        <time>1970-01-01T00:07:45.000Z</time>
      </trkpt>
      <trkpt lat="43.30317" lon="6.54536">
        <ele>301</ele>
        <time>1970-01-01T00:07:50.000Z</time>
      </trkpt>
      <trkpt lat="43.30305" lon="6.54528">
        <ele>302.2</ele>
        <time>1970-01-01T00:07:58.000Z</time>
      </trkpt>
      <trkpt lat="43.303" lon="6.54525">
        <ele>303.4</ele>
        <time>1970-01-01T00:08:02.000Z</time>
      </trkpt>
      <trkpt lat="43.30288" lon="6.54519">
        <ele>304.4</ele>
        <time>1970-01-01T00:08:09.000Z</time>
      </trkpt>
      <trkpt lat="43.30279" lon="6.54516">
        <ele>305.6</ele>
        <time>1970-01-01T00:08:14.000Z</time>
      </trkpt>
      <trkpt lat="43.3027" lon="6.5451">
        <ele>306.6</ele>
        <time>1970-01-01T00:08:20.000Z</time>
      </trkpt>
      <trkpt lat="43.3026" lon="6.54504">
        <ele>307.8</ele>
        <time>1970-01-01T00:08:26.000Z</time>
      </trkpt>
      <trkpt lat="43.30255" lon="6.54498">
        <ele>308.8</ele>
        <time>1970-01-01T00:08:30.000Z</time>
      </trkpt>
      <trkpt lat="43.30251" lon="6.54492">
        <ele>310</ele>
        <time>1970-01-01T00:08:34.000Z</time>
      </trkpt>
      <trkpt lat="43.30248" lon="6.54485">
        <ele>311.2</ele>
        <time>1970-01-01T00:08:37.000Z</time>
      </trkpt>
      <trkpt lat="43.30245" lon="6.54479">
        <ele>312.2</ele>
        <time>1970-01-01T00:08:40.000Z</time>
      </trkpt>
      <trkpt lat="43.30243" lon="6.54473">
        <ele>313.4</ele>
        <time>1970-01-01T00:08:43.000Z</time>
      </trkpt>
      <trkpt lat="43.30239" lon="6.54462">
        <ele>314.6</ele>
        <time>1970-01-01T00:08:48.000Z</time>
      </trkpt>
      <trkpt lat="43.30237" lon="6.54454">
        <ele>315.6</ele>
        <time>1970-01-01T00:08:51.000Z</time>
      </trkpt>
      <trkpt lat="43.30234" lon="6.5444">
        <ele>316.6</ele>
        <time>1970-01-01T00:08:57.000Z</time>
      </trkpt>
      <trkpt lat="43.30233" lon="6.54425">
        <ele>317.8</ele>
        <time>1970-01-01T00:09:03.000Z</time>
      </trkpt>
      <trkpt lat="43.30233" lon="6.54411">
        <ele>319</ele>
        <time>1970-01-01T00:09:08.000Z</time>
      </trkpt>
      <trkpt lat="43.30241" lon="6.54387">
        <ele>320</ele>
        <time>1970-01-01T00:09:19.000Z</time>
      </trkpt>
      <trkpt lat="43.30245" lon="6.54376">
        <ele>321</ele>
        <time>1970-01-01T00:09:24.000Z</time>
      </trkpt>
      <trkpt lat="43.30248" lon="6.54368">
        <ele>322.2</ele>
        <time>1970-01-01T00:09:28.000Z</time>
      </trkpt>
      <trkpt lat="43.30249" lon="6.54358">
        <ele>323.2</ele>
        <time>1970-01-01T00:09:32.000Z</time>
      </trkpt>
      <trkpt lat="43.30253" lon="6.54346">
        <ele>324.6</ele>
        <time>1970-01-01T00:09:38.000Z</time>
      </trkpt>
      <trkpt lat="43.30257" lon="6.54331">
        <ele>325.6</ele>
        <time>1970-01-01T00:09:45.000Z</time>
      </trkpt>
      <trkpt lat="43.3026" lon="6.54323">
        <ele>326.8</ele>
        <time>1970-01-01T00:09:49.000Z</time>
      </trkpt>
      <trkpt lat="43.30262" lon="6.54317">
        <ele>328</ele>
        <time>1970-01-01T00:09:52.000Z</time>
      </trkpt>
      <trkpt lat="43.30265" lon="6.54311">
        <ele>329.2</ele>
        <time>1970-01-01T00:09:55.000Z</time>
      </trkpt>
      <trkpt lat="43.30267" lon="6.54306">
        <ele>330.6</ele>
        <time>1970-01-01T00:09:58.000Z</time>
      </trkpt>
      <trkpt lat="43.30269" lon="6.543">
        <ele>331.8</ele>
        <time>1970-01-01T00:10:01.000Z</time>
      </trkpt>
      <trkpt lat="43.30274" lon="6.54287">
        <ele>332.8</ele>
        <time>1970-01-01T00:10:07.000Z</time>
      </trkpt>
      <trkpt lat="43.30277" lon="6.54275">
        <ele>333.8</ele>
        <time>1970-01-01T00:10:12.000Z</time>
      </trkpt>
      <trkpt lat="43.30282" lon="6.54261">
        <ele>334.8</ele>
        <time>1970-01-01T00:10:19.000Z</time>
      </trkpt>
      <trkpt lat="43.30289" lon="6.54248">
        <ele>336</ele>
        <time>1970-01-01T00:10:26.000Z</time>
      </trkpt>
      <trkpt lat="43.30294" lon="6.54237">
        <ele>337</ele>
        <time>1970-01-01T00:10:32.000Z</time>
      </trkpt>
      <trkpt lat="43.30299" lon="6.54221">
        <ele>338</ele>
        <time>1970-01-01T00:10:39.000Z</time>
      </trkpt>
      <trkpt lat="43.30299" lon="6.54198">
        <ele>339.2</ele>
        <time>1970-01-01T00:10:48.000Z</time>
      </trkpt>
      <trkpt lat="43.30297" lon="6.5419">
        <ele>340.4</ele>
        <time>1970-01-01T00:10:52.000Z</time>
      </trkpt>
      <trkpt lat="43.30292" lon="6.54178">
        <ele>341.4</ele>
        <time>1970-01-01T00:10:57.000Z</time>
      </trkpt>
      <trkpt lat="43.30285" lon="6.54163">
        <ele>342.6</ele>
        <time>1970-01-01T00:11:04.000Z</time>
      </trkpt>
      <trkpt lat="43.30281" lon="6.54155">
        <ele>343.8</ele>
        <time>1970-01-01T00:11:08.000Z</time>
      </trkpt>
      <trkpt lat="43.30275" lon="6.54144">
        <ele>345</ele>
        <time>1970-01-01T00:11:14.000Z</time>
      </trkpt>
      <trkpt lat="43.3027" lon="6.54135">
        <ele>346.2</ele>
        <time>1970-01-01T00:11:19.000Z</time>
      </trkpt>
      <trkpt lat="43.30262" lon="6.54124">
        <ele>347.2</ele>
        <time>1970-01-01T00:11:25.000Z</time>
      </trkpt>
      <trkpt lat="43.30255" lon="6.54115">
        <ele>348.4</ele>
        <time>1970-01-01T00:11:30.000Z</time>
      </trkpt>
      <trkpt lat="43.30248" lon="6.54104">
        <ele>349.4</ele>
        <time>1970-01-01T00:11:35.000Z</time>
      </trkpt>
      <trkpt lat="43.30239" lon="6.54072">
        <ele>349.6</ele>
        <time>1970-01-01T00:11:43.000Z</time>
      </trkpt>
      <trkpt lat="43.30216" lon="6.53996">
        <ele>349.2</ele>
        <time>1970-01-01T00:11:52.000Z</time>
      </trkpt>
      <trkpt lat="43.30213" lon="6.53975">
        <ele>348.4</ele>
        <time>1970-01-01T00:11:56.000Z</time>
      </trkpt>
      <trkpt lat="43.30191" lon="6.53914">
        <ele>348.4</ele>
        <time>1970-01-01T00:12:15.000Z</time>
      </trkpt>
      <trkpt lat="43.30157" lon="6.53921">
        <ele>349.6</ele>
        <time>1970-01-01T00:12:27.000Z</time>
      </trkpt>
      <trkpt lat="43.30132" lon="6.53933">
        <ele>350.6</ele>
        <time>1970-01-01T00:12:35.000Z</time>
      </trkpt>
      <trkpt lat="43.3013" lon="6.53935">
        <ele>350.8</ele>
        <time>1970-01-01T00:12:36.000Z</time>
      </trkpt>
      <trkpt lat="43.30123" lon="6.5395">
        <ele>351</ele>
        <time>1970-01-01T00:12:40.000Z</time>
      </trkpt>
      <trkpt lat="43.30107" lon="6.53977">
        <ele>351.8</ele>
        <time>1970-01-01T00:12:49.000Z</time>
      </trkpt>
      <trkpt lat="43.30102" lon="6.53981">
        <ele>352.8</ele>
        <time>1970-01-01T00:12:52.000Z</time>
      </trkpt>
      <trkpt lat="43.30097" lon="6.53986">
        <ele>353.8</ele>
        <time>1970-01-01T00:12:55.000Z</time>
      </trkpt>
      <trkpt lat="43.3009" lon="6.54001">
        <ele>354.4</ele>
        <time>1970-01-01T00:12:59.000Z</time>
      </trkpt>
      <trkpt lat="43.30075" lon="6.54029">
        <ele>354.4</ele>
        <time>1970-01-01T00:13:03.000Z</time>
      </trkpt>
      <trkpt lat="43.3007" lon="6.54035">
        <ele>354.4</ele>
        <time>1970-01-01T00:13:04.000Z</time>
      </trkpt>
      <trkpt lat="43.30041" lon="6.54052">
        <ele>353</ele>
        <time>1970-01-01T00:13:08.000Z</time>
      </trkpt>
      <trkpt lat="43.30032" lon="6.54054">
        <ele>352.6</ele>
        <time>1970-01-01T00:13:09.000Z</time>
      </trkpt>
      <trkpt lat="43.29999" lon="6.54055">
        <ele>351.4</ele>
        <time>1970-01-01T00:13:12.000Z</time>
      </trkpt>
      <trkpt lat="43.29975" lon="6.54057">
        <ele>350</ele>
        <time>1970-01-01T00:13:14.000Z</time>
      </trkpt>
      <trkpt lat="43.29962" lon="6.54063">
        <ele>348.8</ele>
        <time>1970-01-01T00:13:15.000Z</time>
      </trkpt>
      <trkpt lat="43.29951" lon="6.54068">
        <ele>347.2</ele>
        <time>1970-01-01T00:13:16.000Z</time>
      </trkpt>
      <trkpt lat="43.29942" lon="6.54069">
        <ele>346.2</ele>
        <time>1970-01-01T00:13:17.000Z</time>
      </trkpt>
      <trkpt lat="43.29933" lon="6.54067">
        <ele>345</ele>
        <time>1970-01-01T00:13:18.000Z</time>
      </trkpt>
      <trkpt lat="43.29926" lon="6.54062">
        <ele>343</ele>
        <time>1970-01-01T00:13:19.000Z</time>
      </trkpt>
      <trkpt lat="43.2992" lon="6.54054">
        <ele>340.8</ele>
        <time>1970-01-01T00:13:20.000Z</time>
      </trkpt>
      <trkpt lat="43.29915" lon="6.54045">
        <ele>339</ele>
        <time>1970-01-01T00:13:21.000Z</time>
      </trkpt>
      <trkpt lat="43.29911" lon="6.54035">
        <ele>337.2</ele>
        <time>1970-01-01T00:13:22.000Z</time>
      </trkpt>
      <trkpt lat="43.29905" lon="6.54025">
        <ele>335.4</ele>
        <time>1970-01-01T00:13:23.000Z</time>
      </trkpt>
      <trkpt lat="43.29899" lon="6.54018">
        <ele>333.4</ele>
        <time>1970-01-01T00:13:24.000Z</time>
      </trkpt>
      <trkpt lat="43.29891" lon="6.54014">
        <ele>331.2</ele>
        <time>1970-01-01T00:13:25.000Z</time>
      </trkpt>
      <trkpt lat="43.29884" lon="6.54015">
        <ele>329</ele>
        <time>1970-01-01T00:13:26.000Z</time>
      </trkpt>
      <trkpt lat="43.29876" lon="6.54018">
        <ele>326.6</ele>
        <time>1970-01-01T00:13:27.000Z</time>
      </trkpt>
      <trkpt lat="43.29867" lon="6.54022">
        <ele>326</ele>
        <time>1970-01-01T00:13:28.000Z</time>
      </trkpt>
      <trkpt lat="43.29859" lon="6.54025">
        <ele>325</ele>
        <time>1970-01-01T00:13:29.000Z</time>
      </trkpt>
      <trkpt lat="43.29851" lon="6.54029">
        <ele>323.8</ele>
        <time>1970-01-01T00:13:30.000Z</time>
      </trkpt>
      <trkpt lat="43.29843" lon="6.54033">
        <ele>322.2</ele>
        <time>1970-01-01T00:13:31.000Z</time>
      </trkpt>
      <trkpt lat="43.29837" lon="6.54035">
        <ele>320.2</ele>
        <time>1970-01-01T00:13:32.000Z</time>
      </trkpt>
      <trkpt lat="43.2983" lon="6.54037">
        <ele>318.6</ele>
        <time>1970-01-01T00:13:33.000Z</time>
      </trkpt>
      <trkpt lat="43.29826" lon="6.54036">
        <ele>317</ele>
        <time>1970-01-01T00:13:34.000Z</time>
      </trkpt>
      <trkpt lat="43.2982" lon="6.54033">
        <ele>315.8</ele>
        <time>1970-01-01T00:13:36.000Z</time>
      </trkpt>
      <trkpt lat="43.29816" lon="6.54029">
        <ele>315.4</ele>
        <time>1970-01-01T00:13:39.000Z</time>
      </trkpt>
      <trkpt lat="43.29799" lon="6.54022">
        <ele>316.8</ele>
        <time>1970-01-01T00:13:50.000Z</time>
      </trkpt>
      <trkpt lat="43.29795" lon="6.54017">
        <ele>318.2</ele>
        <time>1970-01-01T00:13:53.000Z</time>
      </trkpt>
      <trkpt lat="43.29787" lon="6.54009">
        <ele>319.4</ele>
        <time>1970-01-01T00:13:59.000Z</time>
      </trkpt>
      <trkpt lat="43.29783" lon="6.54004">
        <ele>321</ele>
        <time>1970-01-01T00:14:02.000Z</time>
      </trkpt>
      <trkpt lat="43.29777" lon="6.53998">
        <ele>322.2</ele>
        <time>1970-01-01T00:14:06.000Z</time>
      </trkpt>
      <trkpt lat="43.29772" lon="6.53994">
        <ele>323.6</ele>
        <time>1970-01-01T00:14:09.000Z</time>
      </trkpt>
      <trkpt lat="43.29766" lon="6.53992">
        <ele>325</ele>
        <time>1970-01-01T00:14:12.000Z</time>
      </trkpt>
      <trkpt lat="43.2976" lon="6.53993">
        <ele>326.4</ele>
        <time>1970-01-01T00:14:15.000Z</time>
      </trkpt>
      <trkpt lat="43.29758" lon="6.53993">
        <ele>326.8</ele>
        <time>1970-01-01T00:14:16.000Z</time>
      </trkpt>
      <trkpt lat="43.29754" lon="6.53994">
        <ele>327.6</ele>
        <time>1970-01-01T00:14:18.000Z</time>
      </trkpt>
      <trkpt lat="43.29731" lon="6.53983">
        <ele>328.8</ele>
        <time>1970-01-01T00:14:31.000Z</time>
      </trkpt>
      <trkpt lat="43.29723" lon="6.53973">
        <ele>330</ele>
        <time>1970-01-01T00:14:38.000Z</time>
      </trkpt>
      <trkpt lat="43.29718" lon="6.5397">
        <ele>331.4</ele>
        <time>1970-01-01T00:14:41.000Z</time>
      </trkpt>
      <trkpt lat="43.29713" lon="6.53967">
        <ele>332.6</ele>
        <time>1970-01-01T00:14:45.000Z</time>
      </trkpt>
      <trkpt lat="43.29708" lon="6.53968">
        <ele>333.6</ele>
        <time>1970-01-01T00:14:48.000Z</time>
      </trkpt>
      <trkpt lat="43.29698" lon="6.53975">
        <ele>334.4</ele>
        <time>1970-01-01T00:14:52.000Z</time>
      </trkpt>
      <trkpt lat="43.29678" lon="6.54004">
        <ele>334.4</ele>
        <time>1970-01-01T00:14:56.000Z</time>
      </trkpt>
      <trkpt lat="43.29643" lon="6.54052">
        <ele>333</ele>
        <time>1970-01-01T00:15:01.000Z</time>
      </trkpt>
      <trkpt lat="43.29634" lon="6.54058">
        <ele>332.2</ele>
        <time>1970-01-01T00:15:02.000Z</time>
      </trkpt>
      <trkpt lat="43.29616" lon="6.54066">
        <ele>330.2</ele>
        <time>1970-01-01T00:15:04.000Z</time>
      </trkpt>
      <trkpt lat="43.29608" lon="6.5407">
        <ele>329</ele>
        <time>1970-01-01T00:15:05.000Z</time>
      </trkpt>
      <trkpt lat="43.29593" lon="6.54072">
        <ele>327.2</ele>
        <time>1970-01-01T00:15:07.000Z</time>
      </trkpt>
      <trkpt lat="43.29589" lon="6.54073">
        <ele>325.8</ele>
        <time>1970-01-01T00:15:08.000Z</time>
      </trkpt>
      <trkpt lat="43.29585" lon="6.54073">
        <ele>324.6</ele>
        <time>1970-01-01T00:15:09.000Z</time>
      </trkpt>
      <trkpt lat="43.2958" lon="6.54073">
        <ele>323.4</ele>
        <time>1970-01-01T00:15:11.000Z</time>
      </trkpt>
      <trkpt lat="43.29562" lon="6.54082">
        <ele>322.4</ele>
        <time>1970-01-01T00:15:17.000Z</time>
      </trkpt>
      <trkpt lat="43.29544" lon="6.54091">
        <ele>322.2</ele>
        <time>1970-01-01T00:15:21.000Z</time>
      </trkpt>
      <trkpt lat="43.29525" lon="6.54073">
        <ele>322.2</ele>
        <time>1970-01-01T00:15:29.000Z</time>
      </trkpt>
      <trkpt lat="43.29526" lon="6.54047">
        <ele>323.6</ele>
        <time>1970-01-01T00:15:40.000Z</time>
      </trkpt>
      <trkpt lat="43.29525" lon="6.54037">
        <ele>324.8</ele>
        <time>1970-01-01T00:15:44.000Z</time>
      </trkpt>
      <trkpt lat="43.29524" lon="6.54027">
        <ele>326.2</ele>
        <time>1970-01-01T00:15:48.000Z</time>
      </trkpt>
      <trkpt lat="43.29523" lon="6.5402">
        <ele>327.2</ele>
        <time>1970-01-01T00:15:51.000Z</time>
      </trkpt>
      <trkpt lat="43.29522" lon="6.54009">
        <ele>328.2</ele>
        <time>1970-01-01T00:15:55.000Z</time>
      </trkpt>
      <trkpt lat="43.29521" lon="6.54001">
        <ele>329.4</ele>
        <time>1970-01-01T00:15:58.000Z</time>
      </trkpt>
      <trkpt lat="43.29521" lon="6.53988">
        <ele>330.4</ele>
        <time>1970-01-01T00:16:03.000Z</time>
      </trkpt>
      <trkpt lat="43.29524" lon="6.5397">
        <ele>331.8</ele>
        <time>1970-01-01T00:16:10.000Z</time>
      </trkpt>
      <trkpt lat="43.29525" lon="6.53957">
        <ele>332.8</ele>
        <time>1970-01-01T00:16:16.000Z</time>
      </trkpt>
      <trkpt lat="43.29526" lon="6.53944">
        <ele>333.8</ele>
        <time>1970-01-01T00:16:21.000Z</time>
      </trkpt>
      <trkpt lat="43.29527" lon="6.53935">
        <ele>335</ele>
        <time>1970-01-01T00:16:25.000Z</time>
      </trkpt>
      <trkpt lat="43.29531" lon="6.53922">
        <ele>336</ele>
        <time>1970-01-01T00:16:31.000Z</time>
      </trkpt>
      <trkpt lat="43.29535" lon="6.53916">
        <ele>337</ele>
        <time>1970-01-01T00:16:34.000Z</time>
      </trkpt>
      <trkpt lat="43.29536" lon="6.53915">
        <ele>337.4</ele>
        <time>1970-01-01T00:16:35.000Z</time>
      </trkpt>
      <trkpt lat="43.29541" lon="6.53915">
        <ele>338</ele>
        <time>1970-01-01T00:16:38.000Z</time>
      </trkpt>
      <trkpt lat="43.29547" lon="6.53914">
        <ele>339.2</ele>
        <time>1970-01-01T00:16:42.000Z</time>
      </trkpt>
      <trkpt lat="43.29552" lon="6.53904">
        <ele>340.4</ele>
        <time>1970-01-01T00:16:47.000Z</time>
      </trkpt>
      <trkpt lat="43.29553" lon="6.53898">
        <ele>341</ele>
        <time>1970-01-01T00:16:50.000Z</time>
      </trkpt>
      <trkpt lat="43.29554" lon="6.53894">
        <ele>341.4</ele>
        <time>1970-01-01T00:16:52.000Z</time>
      </trkpt>
      <trkpt lat="43.29556" lon="6.53888">
        <ele>342.2</ele>
        <time>1970-01-01T00:16:55.000Z</time>
      </trkpt>
      <trkpt lat="43.29558" lon="6.53887">
        <ele>342.4</ele>
        <time>1970-01-01T00:16:56.000Z</time>
      </trkpt>
      <trkpt lat="43.29562" lon="6.53884">
        <ele>343.6</ele>
        <time>1970-01-01T00:17:00.000Z</time>
      </trkpt>
      <trkpt lat="43.29563" lon="6.53885">
        <ele>344</ele>
        <time>1970-01-01T00:17:01.000Z</time>
      </trkpt>
      <trkpt lat="43.29581" lon="6.53866">
        <ele>348.8</ele>
        <time>1970-01-01T00:17:26.000Z</time>
      </trkpt>
      <trkpt lat="43.29582" lon="6.53867">
        <ele>349.6</ele>
        <time>1970-01-01T00:17:29.000Z</time>
      </trkpt>
      <trkpt lat="43.29597" lon="6.53838">
        <ele>352</ele>
        <time>1970-01-01T00:20:53.000Z</time>
      </trkpt>
      <trkpt lat="43.29602" lon="6.53816">
        <ele>352</ele>
        <time>1970-01-01T00:20:57.000Z</time>
      </trkpt>
      <trkpt lat="43.29616" lon="6.5382">
        <ele>351.8</ele>
        <time>1970-01-01T00:21:02.000Z</time>
      </trkpt>
      <trkpt lat="43.29628" lon="6.53816">
        <ele>349.8</ele>
        <time>1970-01-01T00:21:05.000Z</time>
      </trkpt>
      <trkpt lat="43.29636" lon="6.53812">
        <ele>348.2</ele>
        <time>1970-01-01T00:21:07.000Z</time>
      </trkpt>
      <trkpt lat="43.29644" lon="6.53802">
        <ele>346.8</ele>
        <time>1970-01-01T00:21:09.000Z</time>
      </trkpt>
      <trkpt lat="43.29648" lon="6.53796">
        <ele>346.2</ele>
        <time>1970-01-01T00:21:10.000Z</time>
      </trkpt>
      <trkpt lat="43.29651" lon="6.53789">
        <ele>345.6</ele>
        <time>1970-01-01T00:21:11.000Z</time>
      </trkpt>
      <trkpt lat="43.29655" lon="6.53763">
        <ele>344.4</ele>
        <time>1970-01-01T00:21:14.000Z</time>
      </trkpt>
      <trkpt lat="43.29658" lon="6.53746">
        <ele>343.2</ele>
        <time>1970-01-01T00:21:16.000Z</time>
      </trkpt>
      <trkpt lat="43.29658" lon="6.53738">
        <ele>341.2</ele>
        <time>1970-01-01T00:21:18.000Z</time>
      </trkpt>
      <trkpt lat="43.29658" lon="6.53731">
        <ele>340</ele>
        <time>1970-01-01T00:21:19.000Z</time>
      </trkpt>
      <trkpt lat="43.29659" lon="6.53724">
        <ele>338.8</ele>
        <time>1970-01-01T00:21:20.000Z</time>
      </trkpt>
      <trkpt lat="43.29664" lon="6.53715">
        <ele>337.4</ele>
        <time>1970-01-01T00:21:21.000Z</time>
      </trkpt>
      <trkpt lat="43.29667" lon="6.53707">
        <ele>336.2</ele>
        <time>1970-01-01T00:21:22.000Z</time>
      </trkpt>
      <trkpt lat="43.29667" lon="6.53701">
        <ele>334.6</ele>
        <time>1970-01-01T00:21:23.000Z</time>
      </trkpt>
      <trkpt lat="43.29672" lon="6.53697">
        <ele>333</ele>
        <time>1970-01-01T00:21:24.000Z</time>
      </trkpt>
      <trkpt lat="43.29673" lon="6.53693">
        <ele>331.8</ele>
        <time>1970-01-01T00:21:25.000Z</time>
      </trkpt>
      <trkpt lat="43.29677" lon="6.53679">
        <ele>330.2</ele>
        <time>1970-01-01T00:21:27.000Z</time>
      </trkpt>
      <trkpt lat="43.29679" lon="6.53666">
        <ele>329</ele>
        <time>1970-01-01T00:21:29.000Z</time>
      </trkpt>
      <trkpt lat="43.29679" lon="6.53659">
        <ele>328</ele>
        <time>1970-01-01T00:21:30.000Z</time>
      </trkpt>
      <trkpt lat="43.29678" lon="6.53652">
        <ele>326.8</ele>
        <time>1970-01-01T00:21:31.000Z</time>
      </trkpt>
      <trkpt lat="43.29676" lon="6.53646">
        <ele>325.2</ele>
        <time>1970-01-01T00:21:32.000Z</time>
      </trkpt>
      <trkpt lat="43.29674" lon="6.5364">
        <ele>324</ele>
        <time>1970-01-01T00:21:33.000Z</time>
      </trkpt>
      <trkpt lat="43.29675" lon="6.53636">
        <ele>321.4</ele>
        <time>1970-01-01T00:21:34.000Z</time>
      </trkpt>
      <trkpt lat="43.29678" lon="6.53634">
        <ele>319.4</ele>
        <time>1970-01-01T00:21:35.000Z</time>
      </trkpt>
      <trkpt lat="43.29679" lon="6.5363">
        <ele>318.4</ele>
        <time>1970-01-01T00:21:36.000Z</time>
      </trkpt>
      <trkpt lat="43.29684" lon="6.53624">
        <ele>316.2</ele>
        <time>1970-01-01T00:21:38.000Z</time>
      </trkpt>
      <trkpt lat="43.29685" lon="6.5362">
        <ele>314.8</ele>
        <time>1970-01-01T00:21:39.000Z</time>
      </trkpt>
      <trkpt lat="43.29686" lon="6.53615">
        <ele>313.4</ele>
        <time>1970-01-01T00:21:40.000Z</time>
      </trkpt>
      <trkpt lat="43.29684" lon="6.53609">
        <ele>312</ele>
        <time>1970-01-01T00:21:41.000Z</time>
      </trkpt>
      <trkpt lat="43.29684" lon="6.53603">
        <ele>310.6</ele>
        <time>1970-01-01T00:21:42.000Z</time>
      </trkpt>
      <trkpt lat="43.29684" lon="6.53595">
        <ele>309</ele>
        <time>1970-01-01T00:21:43.000Z</time>
      </trkpt>
      <trkpt lat="43.29684" lon="6.53588">
        <ele>307.4</ele>
        <time>1970-01-01T00:21:44.000Z</time>
      </trkpt>
      <trkpt lat="43.29684" lon="6.5358">
        <ele>306</ele>
        <time>1970-01-01T00:21:45.000Z</time>
      </trkpt>
      <trkpt lat="43.29683" lon="6.53572">
        <ele>304.6</ele>
        <time>1970-01-01T00:21:46.000Z</time>
      </trkpt>
      <trkpt lat="43.29683" lon="6.53566">
        <ele>303.2</ele>
        <time>1970-01-01T00:21:47.000Z</time>
      </trkpt>
      <trkpt lat="43.29683" lon="6.53562">
        <ele>301.6</ele>
        <time>1970-01-01T00:21:48.000Z</time>
      </trkpt>
      <trkpt lat="43.29686" lon="6.5356">
        <ele>300.2</ele>
        <time>1970-01-01T00:21:49.000Z</time>
      </trkpt>
      <trkpt lat="43.2969" lon="6.53559">
        <ele>299</ele>
        <time>1970-01-01T00:21:50.000Z</time>
      </trkpt>
      <trkpt lat="43.29694" lon="6.53557">
        <ele>297.8</ele>
        <time>1970-01-01T00:21:51.000Z</time>
      </trkpt>
      <trkpt lat="43.29698" lon="6.53555">
        <ele>296</ele>
        <time>1970-01-01T00:21:52.000Z</time>
      </trkpt>
      <trkpt lat="43.29701" lon="6.53551">
        <ele>293.8</ele>
        <time>1970-01-01T00:21:53.000Z</time>
      </trkpt>
      <trkpt lat="43.29703" lon="6.53548">
        <ele>291.4</ele>
        <time>1970-01-01T00:21:54.000Z</time>
      </trkpt>
      <trkpt lat="43.29705" lon="6.53545">
        <ele>289.2</ele>
        <time>1970-01-01T00:21:55.000Z</time>
      </trkpt>
      <trkpt lat="43.29707" lon="6.53542">
        <ele>287.2</ele>
        <time>1970-01-01T00:21:56.000Z</time>
      </trkpt>
      <trkpt lat="43.29709" lon="6.53539">
        <ele>285.6</ele>
        <time>1970-01-01T00:21:57.000Z</time>
      </trkpt>
      <trkpt lat="43.29712" lon="6.53539">
        <ele>284.2</ele>
        <time>1970-01-01T00:21:58.000Z</time>
      </trkpt>
      <trkpt lat="43.29715" lon="6.5354">
        <ele>283</ele>
        <time>1970-01-01T00:21:59.000Z</time>
      </trkpt>
      <trkpt lat="43.29718" lon="6.53541">
        <ele>281.4</ele>
        <time>1970-01-01T00:22:00.000Z</time>
      </trkpt>
      <trkpt lat="43.29721" lon="6.53541">
        <ele>279.8</ele>
        <time>1970-01-01T00:22:01.000Z</time>
      </trkpt>
      <trkpt lat="43.29721" lon="6.53539">
        <ele>278.4</ele>
        <time>1970-01-01T00:22:02.000Z</time>
      </trkpt>
      <trkpt lat="43.29722" lon="6.53534">
        <ele>277</ele>
        <time>1970-01-01T00:22:03.000Z</time>
      </trkpt>
      <trkpt lat="43.29721" lon="6.53529">
        <ele>275.4</ele>
        <time>1970-01-01T00:22:04.000Z</time>
      </trkpt>
      <trkpt lat="43.29721" lon="6.53524">
        <ele>273.6</ele>
        <time>1970-01-01T00:22:05.000Z</time>
      </trkpt>
      <trkpt lat="43.29722" lon="6.53519">
        <ele>272.2</ele>
        <time>1970-01-01T00:22:06.000Z</time>
      </trkpt>
      <trkpt lat="43.29723" lon="6.53517">
        <ele>271</ele>
        <time>1970-01-01T00:22:07.000Z</time>
      </trkpt>
      <trkpt lat="43.29726" lon="6.53516">
        <ele>268.8</ele>
        <time>1970-01-01T00:22:08.000Z</time>
      </trkpt>
      <trkpt lat="43.2973" lon="6.53515">
        <ele>267.6</ele>
        <time>1970-01-01T00:22:09.000Z</time>
      </trkpt>
      <trkpt lat="43.29732" lon="6.53513">
        <ele>266.2</ele>
        <time>1970-01-01T00:22:10.000Z</time>
      </trkpt>
      <trkpt lat="43.29735" lon="6.53509">
        <ele>264.8</ele>
        <time>1970-01-01T00:22:11.000Z</time>
      </trkpt>
      <trkpt lat="43.29736" lon="6.53503">
        <ele>263.6</ele>
        <time>1970-01-01T00:22:12.000Z</time>
      </trkpt>
      <trkpt lat="43.29738" lon="6.53497">
        <ele>262.4</ele>
        <time>1970-01-01T00:22:13.000Z</time>
      </trkpt>
      <trkpt lat="43.2974" lon="6.53492">
        <ele>260.8</ele>
        <time>1970-01-01T00:22:14.000Z</time>
      </trkpt>
      <trkpt lat="43.29742" lon="6.53489">
        <ele>259.4</ele>
        <time>1970-01-01T00:22:15.000Z</time>
      </trkpt>
      <trkpt lat="43.29744" lon="6.53484">
        <ele>258.2</ele>
        <time>1970-01-01T00:22:16.000Z</time>
      </trkpt>
      <trkpt lat="43.29745" lon="6.53481">
        <ele>257</ele>
        <time>1970-01-01T00:22:17.000Z</time>
      </trkpt>
      <trkpt lat="43.29745" lon="6.53478">
        <ele>256</ele>
        <time>1970-01-01T00:22:18.000Z</time>
      </trkpt>
      <trkpt lat="43.29743" lon="6.53474">
        <ele>255</ele>
        <time>1970-01-01T00:22:19.000Z</time>
      </trkpt>
      <trkpt lat="43.29743" lon="6.53469">
        <ele>253.6</ele>
        <time>1970-01-01T00:22:20.000Z</time>
      </trkpt>
      <trkpt lat="43.29741" lon="6.53465">
        <ele>252.4</ele>
        <time>1970-01-01T00:22:21.000Z</time>
      </trkpt>
      <trkpt lat="43.29743" lon="6.5346">
        <ele>250.4</ele>
        <time>1970-01-01T00:22:22.000Z</time>
      </trkpt>
      <trkpt lat="43.29745" lon="6.53457">
        <ele>248.8</ele>
        <time>1970-01-01T00:22:23.000Z</time>
      </trkpt>
      <trkpt lat="43.29752" lon="6.53456">
        <ele>247.2</ele>
        <time>1970-01-01T00:22:24.000Z</time>
      </trkpt>
      <trkpt lat="43.29758" lon="6.53456">
        <ele>246</ele>
        <time>1970-01-01T00:22:25.000Z</time>
      </trkpt>
      <trkpt lat="43.29767" lon="6.53459">
        <ele>245</ele>
        <time>1970-01-01T00:22:27.000Z</time>
      </trkpt>
      <trkpt lat="43.2977" lon="6.5346">
        <ele>244</ele>
        <time>1970-01-01T00:22:28.000Z</time>
      </trkpt>
      <trkpt lat="43.29771" lon="6.53459">
        <ele>242.6</ele>
        <time>1970-01-01T00:22:29.000Z</time>
      </trkpt>
      <trkpt lat="43.29772" lon="6.53454">
        <ele>241.4</ele>
        <time>1970-01-01T00:22:30.000Z</time>
      </trkpt>
      <trkpt lat="43.29771" lon="6.53443">
        <ele>240.2</ele>
        <time>1970-01-01T00:22:32.000Z</time>
      </trkpt>
      <trkpt lat="43.29767" lon="6.53427">
        <ele>238.2</ele>
        <time>1970-01-01T00:22:34.000Z</time>
      </trkpt>
      <trkpt lat="43.29766" lon="6.5342">
        <ele>237.4</ele>
        <time>1970-01-01T00:22:35.000Z</time>
      </trkpt>
      <trkpt lat="43.29765" lon="6.53416">
        <ele>236.4</ele>
        <time>1970-01-01T00:22:36.000Z</time>
      </trkpt>
      <trkpt lat="43.29767" lon="6.53412">
        <ele>235.2</ele>
        <time>1970-01-01T00:22:37.000Z</time>
      </trkpt>
      <trkpt lat="43.29769" lon="6.53405">
        <ele>233.6</ele>
        <time>1970-01-01T00:22:39.000Z</time>
      </trkpt>
      <trkpt lat="43.29768" lon="6.53397">
        <ele>232.6</ele>
        <time>1970-01-01T00:22:41.000Z</time>
      </trkpt>
      <trkpt lat="43.29768" lon="6.53386">
        <ele>230.8</ele>
        <time>1970-01-01T00:22:44.000Z</time>
      </trkpt>
      <trkpt lat="43.29773" lon="6.53384">
        <ele>229</ele>
        <time>1970-01-01T00:22:46.000Z</time>
      </trkpt>
      <trkpt lat="43.29776" lon="6.53383">
        <ele>227.6</ele>
        <time>1970-01-01T00:22:47.000Z</time>
      </trkpt>
      <trkpt lat="43.29778" lon="6.53382">
        <ele>226.2</ele>
        <time>1970-01-01T00:22:48.000Z</time>
      </trkpt>
      <trkpt lat="43.2978" lon="6.5338">
        <ele>224.4</ele>
        <time>1970-01-01T00:22:49.000Z</time>
      </trkpt>
      <trkpt lat="43.29781" lon="6.53377">
        <ele>222.8</ele>
        <time>1970-01-01T00:22:50.000Z</time>
      </trkpt>
      <trkpt lat="43.29781" lon="6.53373">
        <ele>221.2</ele>
        <time>1970-01-01T00:22:51.000Z</time>
      </trkpt>
      <trkpt lat="43.29779" lon="6.53367">
        <ele>220.2</ele>
        <time>1970-01-01T00:22:52.000Z</time>
      </trkpt>
      <trkpt lat="43.29775" lon="6.53354">
        <ele>218.6</ele>
        <time>1970-01-01T00:22:54.000Z</time>
      </trkpt>
      <trkpt lat="43.29768" lon="6.53343">
        <ele>217</ele>
        <time>1970-01-01T00:22:56.000Z</time>
      </trkpt>
      <trkpt lat="43.29764" lon="6.53338">
        <ele>215.8</ele>
        <time>1970-01-01T00:22:57.000Z</time>
      </trkpt>
      <trkpt lat="43.2976" lon="6.53335">
        <ele>214.8</ele>
        <time>1970-01-01T00:22:58.000Z</time>
      </trkpt>
      <trkpt lat="43.29749" lon="6.53328">
        <ele>212.6</ele>
        <time>1970-01-01T00:23:00.000Z</time>
      </trkpt>
      <trkpt lat="43.29745" lon="6.53322">
        <ele>211</ele>
        <time>1970-01-01T00:23:01.000Z</time>
      </trkpt>
      <trkpt lat="43.29742" lon="6.53318">
        <ele>209.2</ele>
        <time>1970-01-01T00:23:02.000Z</time>
      </trkpt>
      <trkpt lat="43.29739" lon="6.53316">
        <ele>207.8</ele>
        <time>1970-01-01T00:23:03.000Z</time>
      </trkpt>
      <trkpt lat="43.29735" lon="6.53314">
        <ele>206.2</ele>
        <time>1970-01-01T00:23:04.000Z</time>
      </trkpt>
      <trkpt lat="43.29731" lon="6.53312">
        <ele>204.6</ele>
        <time>1970-01-01T00:23:05.000Z</time>
      </trkpt>
      <trkpt lat="43.29726" lon="6.53311">
        <ele>203.2</ele>
        <time>1970-01-01T00:23:06.000Z</time>
      </trkpt>
      <trkpt lat="43.29721" lon="6.53311">
        <ele>202.2</ele>
        <time>1970-01-01T00:23:07.000Z</time>
      </trkpt>
      <trkpt lat="43.29716" lon="6.53312">
        <ele>200.6</ele>
        <time>1970-01-01T00:23:08.000Z</time>
      </trkpt>
      <trkpt lat="43.29712" lon="6.53313">
        <ele>198.4</ele>
        <time>1970-01-01T00:23:09.000Z</time>
      </trkpt>
      <trkpt lat="43.29709" lon="6.53314">
        <ele>196.8</ele>
        <time>1970-01-01T00:23:10.000Z</time>
      </trkpt>
      <trkpt lat="43.29706" lon="6.53317">
        <ele>195.6</ele>
        <time>1970-01-01T00:23:11.000Z</time>
      </trkpt>
      <trkpt lat="43.29702" lon="6.53324">
        <ele>194</ele>
        <time>1970-01-01T00:23:13.000Z</time>
      </trkpt>
      <trkpt lat="43.29694" lon="6.53331">
        <ele>192.4</ele>
        <time>1970-01-01T00:23:16.000Z</time>
      </trkpt>
      <trkpt lat="43.29685" lon="6.53336">
        <ele>191</ele>
        <time>1970-01-01T00:23:18.000Z</time>
      </trkpt>
      <trkpt lat="43.29671" lon="6.53338">
        <ele>190.6</ele>
        <time>1970-01-01T00:23:21.000Z</time>
      </trkpt>
      <trkpt lat="43.29652" lon="6.53335">
        <ele>190.2</ele>
        <time>1970-01-01T00:23:24.000Z</time>
      </trkpt>
      <trkpt lat="43.29639" lon="6.53328">
        <ele>189.6</ele>
        <time>1970-01-01T00:23:26.000Z</time>
      </trkpt>
      <trkpt lat="43.29631" lon="6.53325">
        <ele>188.8</ele>
        <time>1970-01-01T00:23:28.000Z</time>
      </trkpt>
      <trkpt lat="43.29626" lon="6.53324">
        <ele>187.6</ele>
        <time>1970-01-01T00:23:29.000Z</time>
      </trkpt>
      <trkpt lat="43.29622" lon="6.53325">
        <ele>186.2</ele>
        <time>1970-01-01T00:23:30.000Z</time>
      </trkpt>
      <trkpt lat="43.29617" lon="6.53323">
        <ele>184.2</ele>
        <time>1970-01-01T00:23:31.000Z</time>
      </trkpt>
      <trkpt lat="43.29613" lon="6.53319">
        <ele>182.2</ele>
        <time>1970-01-01T00:23:32.000Z</time>
      </trkpt>
      <trkpt lat="43.29608" lon="6.53315">
        <ele>180.2</ele>
        <time>1970-01-01T00:23:33.000Z</time>
      </trkpt>
      <trkpt lat="43.29602" lon="6.53313">
        <ele>177.6</ele>
        <time>1970-01-01T00:23:34.000Z</time>
      </trkpt>
      <trkpt lat="43.29596" lon="6.53312">
        <ele>175.6</ele>
        <time>1970-01-01T00:23:35.000Z</time>
      </trkpt>
      <trkpt lat="43.29589" lon="6.5331">
        <ele>174.2</ele>
        <time>1970-01-01T00:23:36.000Z</time>
      </trkpt>
      <trkpt lat="43.29578" lon="6.53306">
        <ele>172.6</ele>
        <time>1970-01-01T00:23:38.000Z</time>
      </trkpt>
      <trkpt lat="43.29573" lon="6.53302">
        <ele>171</ele>
        <time>1970-01-01T00:23:40.000Z</time>
      </trkpt>
      <trkpt lat="43.29574" lon="6.53298">
        <ele>169.8</ele>
        <time>1970-01-01T00:23:41.000Z</time>
      </trkpt>
      <trkpt lat="43.29574" lon="6.53295">
        <ele>168.8</ele>
        <time>1970-01-01T00:23:42.000Z</time>
      </trkpt>
      <trkpt lat="43.29579" lon="6.5329">
        <ele>167.4</ele>
        <time>1970-01-01T00:23:44.000Z</time>
      </trkpt>
      <trkpt lat="43.29589" lon="6.53285">
        <ele>166</ele>
        <time>1970-01-01T00:23:46.000Z</time>
      </trkpt>
      <trkpt lat="43.29597" lon="6.53279">
        <ele>164</ele>
        <time>1970-01-01T00:23:48.000Z</time>
      </trkpt>
      <trkpt lat="43.29597" lon="6.53275">
        <ele>163</ele>
        <time>1970-01-01T00:23:49.000Z</time>
      </trkpt>
      <trkpt lat="43.29596" lon="6.53272">
        <ele>161.8</ele>
        <time>1970-01-01T00:23:50.000Z</time>
      </trkpt>
      <trkpt lat="43.29589" lon="6.53262">
        <ele>160.2</ele>
        <time>1970-01-01T00:23:52.000Z</time>
      </trkpt>
      <trkpt lat="43.29583" lon="6.53256">
        <ele>159</ele>
        <time>1970-01-01T00:23:53.000Z</time>
      </trkpt>
      <trkpt lat="43.29578" lon="6.53251">
        <ele>158.6</ele>
        <time>1970-01-01T00:23:54.000Z</time>
      </trkpt>
      <trkpt lat="43.29566" lon="6.53247">
        <ele>157.2</ele>
        <time>1970-01-01T00:23:56.000Z</time>
      </trkpt>
      <trkpt lat="43.29559" lon="6.53245">
        <ele>156.2</ele>
        <time>1970-01-01T00:23:57.000Z</time>
      </trkpt>
      <trkpt lat="43.29549" lon="6.53245">
        <ele>154.2</ele>
        <time>1970-01-01T00:23:59.000Z</time>
      </trkpt>
      <trkpt lat="43.29544" lon="6.53247">
        <ele>153</ele>
        <time>1970-01-01T00:24:00.000Z</time>
      </trkpt>
      <trkpt lat="43.29539" lon="6.53246">
        <ele>151.8</ele>
        <time>1970-01-01T00:24:01.000Z</time>
      </trkpt>
      <trkpt lat="43.29534" lon="6.53245">
        <ele>150.6</ele>
        <time>1970-01-01T00:24:02.000Z</time>
      </trkpt>
      <trkpt lat="43.29523" lon="6.53246">
        <ele>148.8</ele>
        <time>1970-01-01T00:24:04.000Z</time>
      </trkpt>
      <trkpt lat="43.29516" lon="6.53247">
        <ele>147.8</ele>
        <time>1970-01-01T00:24:05.000Z</time>
      </trkpt>
      <trkpt lat="43.29501" lon="6.53249">
        <ele>146.6</ele>
        <time>1970-01-01T00:24:07.000Z</time>
      </trkpt>
      <trkpt lat="43.29487" lon="6.53238">
        <ele>144.8</ele>
        <time>1970-01-01T00:24:09.000Z</time>
      </trkpt>
      <trkpt lat="43.29474" lon="6.53226">
        <ele>142.8</ele>
        <time>1970-01-01T00:24:11.000Z</time>
      </trkpt>
      <trkpt lat="43.29465" lon="6.53224">
        <ele>141.2</ele>
        <time>1970-01-01T00:24:13.000Z</time>
      </trkpt>
      <trkpt lat="43.2946" lon="6.53224">
        <ele>140.8</ele>
        <time>1970-01-01T00:24:14.000Z</time>
      </trkpt>
      <trkpt lat="43.29455" lon="6.53224">
        <ele>140.4</ele>
        <time>1970-01-01T00:24:15.000Z</time>
      </trkpt>
      <trkpt lat="43.2945" lon="6.53225">
        <ele>139.6</ele>
        <time>1970-01-01T00:24:16.000Z</time>
      </trkpt>
      <trkpt lat="43.29445" lon="6.53225">
        <ele>138.2</ele>
        <time>1970-01-01T00:24:17.000Z</time>
      </trkpt>
      <trkpt lat="43.29439" lon="6.53224">
        <ele>136.2</ele>
        <time>1970-01-01T00:24:18.000Z</time>
      </trkpt>
      <trkpt lat="43.29432" lon="6.53224">
        <ele>134.2</ele>
        <time>1970-01-01T00:24:19.000Z</time>
      </trkpt>
      <trkpt lat="43.29425" lon="6.53225">
        <ele>133</ele>
        <time>1970-01-01T00:24:20.000Z</time>
      </trkpt>
      <trkpt lat="43.29418" lon="6.53227">
        <ele>132.4</ele>
        <time>1970-01-01T00:24:21.000Z</time>
      </trkpt>
      <trkpt lat="43.29409" lon="6.53225">
        <ele>132</ele>
        <time>1970-01-01T00:24:22.000Z</time>
      </trkpt>
      <trkpt lat="43.29383" lon="6.53226">
        <ele>130.6</ele>
        <time>1970-01-01T00:24:26.000Z</time>
      </trkpt>
      <trkpt lat="43.29374" lon="6.53234">
        <ele>128.6</ele>
        <time>1970-01-01T00:24:28.000Z</time>
      </trkpt>
      <trkpt lat="43.29369" lon="6.53238">
        <ele>127.8</ele>
        <time>1970-01-01T00:24:29.000Z</time>
      </trkpt>
      <trkpt lat="43.29363" lon="6.53242">
        <ele>126.4</ele>
        <time>1970-01-01T00:24:30.000Z</time>
      </trkpt>
      <trkpt lat="43.29357" lon="6.53246">
        <ele>124.8</ele>
        <time>1970-01-01T00:24:31.000Z</time>
      </trkpt>
      <trkpt lat="43.29351" lon="6.53248">
        <ele>123.6</ele>
        <time>1970-01-01T00:24:32.000Z</time>
      </trkpt>
      <trkpt lat="43.29344" lon="6.53253">
        <ele>122.2</ele>
        <time>1970-01-01T00:24:33.000Z</time>
      </trkpt>
      <trkpt lat="43.29338" lon="6.53254">
        <ele>121</ele>
        <time>1970-01-01T00:24:34.000Z</time>
      </trkpt>
      <trkpt lat="43.29323" lon="6.53255">
        <ele>119.8</ele>
        <time>1970-01-01T00:24:36.000Z</time>
      </trkpt>
      <trkpt lat="43.29307" lon="6.53249">
        <ele>118.8</ele>
        <time>1970-01-01T00:24:39.000Z</time>
      </trkpt>
      <trkpt lat="43.29296" lon="6.53247">
        <ele>118</ele>
        <time>1970-01-01T00:24:41.000Z</time>
      </trkpt>
      <trkpt lat="43.29288" lon="6.53249">
        <ele>117.4</ele>
        <time>1970-01-01T00:24:43.000Z</time>
      </trkpt>
      <trkpt lat="43.29281" lon="6.53252">
        <ele>116</ele>
        <time>1970-01-01T00:24:45.000Z</time>
      </trkpt>
      <trkpt lat="43.29272" lon="6.53254">
        <ele>114.6</ele>
        <time>1970-01-01T00:24:47.000Z</time>
      </trkpt>
      <trkpt lat="43.29262" lon="6.53254">
        <ele>112.8</ele>
        <time>1970-01-01T00:24:49.000Z</time>
      </trkpt>
      <trkpt lat="43.29249" lon="6.53254">
        <ele>112</ele>
        <time>1970-01-01T00:24:51.000Z</time>
      </trkpt>
      <trkpt lat="43.29242" lon="6.53256">
        <ele>111.8</ele>
        <time>1970-01-01T00:24:52.000Z</time>
      </trkpt>
      <trkpt lat="43.29236" lon="6.5326">
        <ele>111.8</ele>
        <time>1970-01-01T00:24:53.000Z</time>
      </trkpt>
      <trkpt lat="43.29219" lon="6.53282">
        <ele>110.4</ele>
        <time>1970-01-01T00:24:57.000Z</time>
      </trkpt>
      <trkpt lat="43.29215" lon="6.53292">
        <ele>109</ele>
        <time>1970-01-01T00:24:59.000Z</time>
      </trkpt>
      <trkpt lat="43.29212" lon="6.53302">
        <ele>107.6</ele>
        <time>1970-01-01T00:25:01.000Z</time>
      </trkpt>
      <trkpt lat="43.29204" lon="6.53315">
        <ele>106.8</ele>
        <time>1970-01-01T00:25:04.000Z</time>
      </trkpt>
      <trkpt lat="43.29197" lon="6.53323">
        <ele>106.6</ele>
        <time>1970-01-01T00:25:07.000Z</time>
      </trkpt>
      <trkpt lat="43.292" lon="6.53326">
        <ele>105.6</ele>
        <time>1970-01-01T00:25:13.000Z</time>
      </trkpt>
      <trkpt lat="43.29201" lon="6.53325">
        <ele>105.4</ele>
        <time>1970-01-01T00:25:14.000Z</time>
      </trkpt>
      <trkpt lat="43.29222" lon="6.53284">
        <ele>106.6</ele>
        <time>1970-01-01T00:25:31.000Z</time>
      </trkpt>
      <trkpt lat="43.29263" lon="6.53236">
        <ele>106.6</ele>
        <time>1970-01-01T00:25:50.000Z</time>
      </trkpt>
      <trkpt lat="43.29307" lon="6.53224">
        <ele>108.2</ele>
        <time>1970-01-01T00:26:07.000Z</time>
      </trkpt>
      <trkpt lat="43.2936" lon="6.53205">
        <ele>109.6</ele>
        <time>1970-01-01T00:26:29.000Z</time>
      </trkpt>
      <trkpt lat="43.29362" lon="6.53204">
        <ele>110</ele>
        <time>1970-01-01T00:26:30.000Z</time>
      </trkpt>
      <trkpt lat="43.29381" lon="6.53192">
        <ele>111</ele>
        <time>1970-01-01T00:26:40.000Z</time>
      </trkpt>
      <trkpt lat="43.29394" lon="6.53185">
        <ele>112.4</ele>
        <time>1970-01-01T00:26:47.000Z</time>
      </trkpt>
      <trkpt lat="43.294" lon="6.53182">
        <ele>113.8</ele>
        <time>1970-01-01T00:26:51.000Z</time>
      </trkpt>
      <trkpt lat="43.29411" lon="6.53178">
        <ele>115</ele>
        <time>1970-01-01T00:26:57.000Z</time>
      </trkpt>
      <trkpt lat="43.29427" lon="6.53175">
        <ele>116</ele>
        <time>1970-01-01T00:27:04.000Z</time>
      </trkpt>
      <trkpt lat="43.2947" lon="6.53161">
        <ele>117.2</ele>
        <time>1970-01-01T00:27:22.000Z</time>
      </trkpt>
      <trkpt lat="43.29479" lon="6.53158">
        <ele>118.6</ele>
        <time>1970-01-01T00:27:27.000Z</time>
      </trkpt>
      <trkpt lat="43.29489" lon="6.53154">
        <ele>119.6</ele>
        <time>1970-01-01T00:27:32.000Z</time>
      </trkpt>
      <trkpt lat="43.29499" lon="6.53149">
        <ele>121</ele>
        <time>1970-01-01T00:27:37.000Z</time>
      </trkpt>
      <trkpt lat="43.29519" lon="6.53135">
        <ele>122.2</ele>
        <time>1970-01-01T00:27:48.000Z</time>
      </trkpt>
      <trkpt lat="43.29545" lon="6.53103">
        <ele>123</ele>
        <time>1970-01-01T00:27:59.000Z</time>
      </trkpt>
      <trkpt lat="43.29559" lon="6.53087">
        <ele>122.8</ele>
        <time>1970-01-01T00:28:03.000Z</time>
      </trkpt>
      <trkpt lat="43.29573" lon="6.53054">
        <ele>121.2</ele>
        <time>1970-01-01T00:28:09.000Z</time>
      </trkpt>
      <trkpt lat="43.29578" lon="6.53037">
        <ele>120.2</ele>
        <time>1970-01-01T00:28:12.000Z</time>
      </trkpt>
      <trkpt lat="43.29583" lon="6.53028">
        <ele>118.2</ele>
        <time>1970-01-01T00:28:14.000Z</time>
      </trkpt>
      <trkpt lat="43.29585" lon="6.53026">
        <ele>116.8</ele>
        <time>1970-01-01T00:28:15.000Z</time>
      </trkpt>
      <trkpt lat="43.29587" lon="6.53024">
        <ele>115.4</ele>
        <time>1970-01-01T00:28:16.000Z</time>
      </trkpt>
      <trkpt lat="43.29588" lon="6.53022">
        <ele>113.8</ele>
        <time>1970-01-01T00:28:17.000Z</time>
      </trkpt>
      <trkpt lat="43.2959" lon="6.5302">
        <ele>112.4</ele>
        <time>1970-01-01T00:28:18.000Z</time>
      </trkpt>
      <trkpt lat="43.2959" lon="6.53019">
        <ele>111.2</ele>
        <time>1970-01-01T00:28:19.000Z</time>
      </trkpt>
      <trkpt lat="43.29592" lon="6.53011">
        <ele>110</ele>
        <time>1970-01-01T00:28:22.000Z</time>
      </trkpt>
      <trkpt lat="43.29616" lon="6.52974">
        <ele>111.2</ele>
        <time>1970-01-01T00:28:39.000Z</time>
      </trkpt>
      <trkpt lat="43.29632" lon="6.52961">
        <ele>112.2</ele>
        <time>1970-01-01T00:28:49.000Z</time>
      </trkpt>
      <trkpt lat="43.29645" lon="6.52946">
        <ele>113.2</ele>
        <time>1970-01-01T00:28:58.000Z</time>
      </trkpt>
      <trkpt lat="43.29654" lon="6.52935">
        <ele>114.4</ele>
        <time>1970-01-01T00:29:06.000Z</time>
      </trkpt>
      <trkpt lat="43.29663" lon="6.52928">
        <ele>115.4</ele>
        <time>1970-01-01T00:29:12.000Z</time>
      </trkpt>
      <trkpt lat="43.29667" lon="6.52923">
        <ele>116.6</ele>
        <time>1970-01-01T00:29:17.000Z</time>
      </trkpt>
      <trkpt lat="43.29671" lon="6.52915">
        <ele>117.6</ele>
        <time>1970-01-01T00:29:22.000Z</time>
      </trkpt>
      <trkpt lat="43.29672" lon="6.52913">
        <ele>118</ele>
        <time>1970-01-01T00:29:23.000Z</time>
      </trkpt>
      <trkpt lat="43.29673" lon="6.52906">
        <ele>118.8</ele>
        <time>1970-01-01T00:29:26.000Z</time>
      </trkpt>
      <trkpt lat="43.2968" lon="6.52903">
        <ele>120</ele>
        <time>1970-01-01T00:29:32.000Z</time>
      </trkpt>
      <trkpt lat="43.29683" lon="6.52901">
        <ele>120.2</ele>
        <time>1970-01-01T00:29:34.000Z</time>
      </trkpt>
      <trkpt lat="43.29693" lon="6.52898">
        <ele>120.8</ele>
        <time>1970-01-01T00:29:40.000Z</time>
      </trkpt>
      <trkpt lat="43.29695" lon="6.52897">
        <ele>121.6</ele>
        <time>1970-01-01T00:29:41.000Z</time>
      </trkpt>
      <trkpt lat="43.29701" lon="6.52894">
        <ele>122.8</ele>
        <time>1970-01-01T00:29:44.000Z</time>
      </trkpt>
      <trkpt lat="43.29705" lon="6.52892">
        <ele>123</ele>
        <time>1970-01-01T00:29:46.000Z</time>
      </trkpt>
      <trkpt lat="43.29711" lon="6.52892">
        <ele>123.4</ele>
        <time>1970-01-01T00:29:52.000Z</time>
      </trkpt>
      <trkpt lat="43.29712" lon="6.52888">
        <ele>123.8</ele>
        <time>1970-01-01T00:29:56.000Z</time>
      </trkpt>
      <trkpt lat="43.29713" lon="6.52883">
        <ele>125</ele>
        <time>1970-01-01T00:30:00.000Z</time>
      </trkpt>
      <trkpt lat="43.29715" lon="6.5288">
        <ele>126</ele>
        <time>1970-01-01T00:30:03.000Z</time>
      </trkpt>
      <trkpt lat="43.29718" lon="6.52877">
        <ele>127</ele>
        <time>1970-01-01T00:30:06.000Z</time>
      </trkpt>
      <trkpt lat="43.2972" lon="6.52877">
        <ele>127.4</ele>
        <time>1970-01-01T00:30:07.000Z</time>
      </trkpt>
      <trkpt lat="43.29726" lon="6.52872">
        <ele>128.4</ele>
        <time>1970-01-01T00:30:12.000Z</time>
      </trkpt>
      <trkpt lat="43.29727" lon="6.52866">
        <ele>129.8</ele>
        <time>1970-01-01T00:30:17.000Z</time>
      </trkpt>
      <trkpt lat="43.29725" lon="6.52865">
        <ele>130.2</ele>
        <time>1970-01-01T00:30:18.000Z</time>
      </trkpt>
      <trkpt lat="43.29723" lon="6.52863">
        <ele>130.8</ele>
        <time>1970-01-01T00:30:20.000Z</time>
      </trkpt>
      <trkpt lat="43.29714" lon="6.52853">
        <ele>131.8</ele>
        <time>1970-01-01T00:30:29.000Z</time>
      </trkpt>
      <trkpt lat="43.29698" lon="6.52839">
        <ele>133</ele>
        <time>1970-01-01T00:30:42.000Z</time>
      </trkpt>
      <trkpt lat="43.29692" lon="6.5283">
        <ele>134.2</ele>
        <time>1970-01-01T00:30:47.000Z</time>
      </trkpt>
      <trkpt lat="43.29688" lon="6.52821">
        <ele>135.2</ele>
        <time>1970-01-01T00:30:52.000Z</time>
      </trkpt>
      <trkpt lat="43.29681" lon="6.52823">
        <ele>135.8</ele>
        <time>1970-01-01T00:30:56.000Z</time>
      </trkpt>
      <trkpt lat="43.29673" lon="6.52825">
        <ele>136.4</ele>
        <time>1970-01-01T00:31:01.000Z</time>
      </trkpt>
      <trkpt lat="43.29668" lon="6.52829">
        <ele>137.4</ele>
        <time>1970-01-01T00:31:05.000Z</time>
      </trkpt>
      <trkpt lat="43.29663" lon="6.52829">
        <ele>138.6</ele>
        <time>1970-01-01T00:31:09.000Z</time>
      </trkpt>
      <trkpt lat="43.29657" lon="6.52832">
        <ele>139.8</ele>
        <time>1970-01-01T00:31:13.000Z</time>
      </trkpt>
      <trkpt lat="43.2965" lon="6.52835">
        <ele>141</ele>
        <time>1970-01-01T00:31:17.000Z</time>
      </trkpt>
      <trkpt lat="43.29638" lon="6.52839">
        <ele>141.6</ele>
        <time>1970-01-01T00:31:24.000Z</time>
      </trkpt>
      <trkpt lat="43.29637" lon="6.52839">
        <ele>141.8</ele>
        <time>1970-01-01T00:31:25.000Z</time>
      </trkpt>
      <trkpt lat="43.29628" lon="6.52841">
        <ele>142.2</ele>
        <time>1970-01-01T00:31:30.000Z</time>
      </trkpt>
      <trkpt lat="43.29615" lon="6.52855">
        <ele>142.8</ele>
        <time>1970-01-01T00:31:37.000Z</time>
      </trkpt>
      <trkpt lat="43.29586" lon="6.52879">
        <ele>144</ele>
        <time>1970-01-01T00:31:51.000Z</time>
      </trkpt>
      <trkpt lat="43.29578" lon="6.52886">
        <ele>144.2</ele>
        <time>1970-01-01T00:31:55.000Z</time>
      </trkpt>
      <trkpt lat="43.29572" lon="6.52885">
        <ele>144.4</ele>
        <time>1970-01-01T00:31:58.000Z</time>
      </trkpt>
      <trkpt lat="43.2957" lon="6.52882">
        <ele>144.8</ele>
        <time>1970-01-01T00:32:00.000Z</time>
      </trkpt>
      <trkpt lat="43.2957" lon="6.52879">
        <ele>145.2</ele>
        <time>1970-01-01T00:32:01.000Z</time>
      </trkpt>
      <trkpt lat="43.29571" lon="6.52876">
        <ele>146</ele>
        <time>1970-01-01T00:32:03.000Z</time>
      </trkpt>
      <trkpt lat="43.29571" lon="6.52871">
        <ele>147.2</ele>
        <time>1970-01-01T00:32:05.000Z</time>
      </trkpt>
      <trkpt lat="43.29572" lon="6.52867">
        <ele>148.4</ele>
        <time>1970-01-01T00:32:07.000Z</time>
      </trkpt>
      <trkpt lat="43.29574" lon="6.5286">
        <ele>149.8</ele>
        <time>1970-01-01T00:32:10.000Z</time>
      </trkpt>
      <trkpt lat="43.29576" lon="6.52855">
        <ele>150.8</ele>
        <time>1970-01-01T00:32:12.000Z</time>
      </trkpt>
      <trkpt lat="43.29579" lon="6.52849">
        <ele>152</ele>
        <time>1970-01-01T00:32:15.000Z</time>
      </trkpt>
      <trkpt lat="43.29584" lon="6.5283">
        <ele>153.2</ele>
        <time>1970-01-01T00:32:24.000Z</time>
      </trkpt>
      <trkpt lat="43.29586" lon="6.52825">
        <ele>154.4</ele>
        <time>1970-01-01T00:32:27.000Z</time>
      </trkpt>
      <trkpt lat="43.29589" lon="6.52821">
        <ele>155.8</ele>
        <time>1970-01-01T00:32:30.000Z</time>
      </trkpt>
      <trkpt lat="43.29592" lon="6.52814">
        <ele>157</ele>
        <time>1970-01-01T00:32:35.000Z</time>
      </trkpt>
      <trkpt lat="43.29596" lon="6.52806">
        <ele>158.4</ele>
        <time>1970-01-01T00:32:39.000Z</time>
      </trkpt>
      <trkpt lat="43.29601" lon="6.528">
        <ele>159.6</ele>
        <time>1970-01-01T00:32:43.000Z</time>
      </trkpt>
      <trkpt lat="43.29602" lon="6.52797">
        <ele>160.4</ele>
        <time>1970-01-01T00:32:45.000Z</time>
      </trkpt>
      <trkpt lat="43.29603" lon="6.52796">
        <ele>161</ele>
        <time>1970-01-01T00:32:46.000Z</time>
      </trkpt>
      <trkpt lat="43.29607" lon="6.52792">
        <ele>162.4</ele>
        <time>1970-01-01T00:32:49.000Z</time>
      </trkpt>
      <trkpt lat="43.29611" lon="6.52786">
        <ele>163.6</ele>
        <time>1970-01-01T00:32:52.000Z</time>
      </trkpt>
      <trkpt lat="43.29613" lon="6.52779">
        <ele>164</ele>
        <time>1970-01-01T00:32:56.000Z</time>
      </trkpt>
      <trkpt lat="43.29609" lon="6.52774">
        <ele>164.2</ele>
        <time>1970-01-01T00:33:00.000Z</time>
      </trkpt>
      <trkpt lat="43.29608" lon="6.52773">
        <ele>164.6</ele>
        <time>1970-01-01T00:33:01.000Z</time>
      </trkpt>
      <trkpt lat="43.29605" lon="6.52772">
        <ele>165.6</ele>
        <time>1970-01-01T00:33:03.000Z</time>
      </trkpt>
      <trkpt lat="43.29604" lon="6.52773">
        <ele>166</ele>
        <time>1970-01-01T00:33:04.000Z</time>
      </trkpt>
      <trkpt lat="43.29601" lon="6.52775">
        <ele>166.8</ele>
        <time>1970-01-01T00:33:07.000Z</time>
      </trkpt>
      <trkpt lat="43.296" lon="6.52775">
        <ele>167</ele>
        <time>1970-01-01T00:33:08.000Z</time>
      </trkpt>
      <trkpt lat="43.29594" lon="6.5277">
        <ele>167.4</ele>
        <time>1970-01-01T00:33:13.000Z</time>
      </trkpt>
      <trkpt lat="43.29589" lon="6.52767">
        <ele>168.4</ele>
        <time>1970-01-01T00:33:17.000Z</time>
      </trkpt>
      <trkpt lat="43.29586" lon="6.52764">
        <ele>169.6</ele>
        <time>1970-01-01T00:33:20.000Z</time>
      </trkpt>
      <trkpt lat="43.29585" lon="6.52761">
        <ele>170.4</ele>
        <time>1970-01-01T00:33:22.000Z</time>
      </trkpt>
      <trkpt lat="43.29584" lon="6.52759">
        <ele>170.8</ele>
        <time>1970-01-01T00:33:23.000Z</time>
      </trkpt>
      <trkpt lat="43.29589" lon="6.52753">
        <ele>172</ele>
        <time>1970-01-01T00:33:27.000Z</time>
      </trkpt>
      <trkpt lat="43.29593" lon="6.52749">
        <ele>173</ele>
        <time>1970-01-01T00:33:31.000Z</time>
      </trkpt>
      <trkpt lat="43.29594" lon="6.52747">
        <ele>173.4</ele>
        <time>1970-01-01T00:33:32.000Z</time>
      </trkpt>
      <trkpt lat="43.29596" lon="6.5274">
        <ele>174.2</ele>
        <time>1970-01-01T00:33:35.000Z</time>
      </trkpt>
      <trkpt lat="43.29597" lon="6.52734">
        <ele>174.6</ele>
        <time>1970-01-01T00:33:39.000Z</time>
      </trkpt>
      <trkpt lat="43.29592" lon="6.52733">
        <ele>175.2</ele>
        <time>1970-01-01T00:33:43.000Z</time>
      </trkpt>
      <trkpt lat="43.2959" lon="6.52735">
        <ele>176</ele>
        <time>1970-01-01T00:33:45.000Z</time>
      </trkpt>
      <trkpt lat="43.29588" lon="6.52735">
        <ele>176.2</ele>
        <time>1970-01-01T00:33:46.000Z</time>
      </trkpt>
      <trkpt lat="43.29586" lon="6.52735">
        <ele>176.4</ele>
        <time>1970-01-01T00:33:47.000Z</time>
      </trkpt>
      <trkpt lat="43.29583" lon="6.52731">
        <ele>177.6</ele>
        <time>1970-01-01T00:33:51.000Z</time>
      </trkpt>
      <trkpt lat="43.29584" lon="6.5273">
        <ele>177.6</ele>
        <time>1970-01-01T00:33:52.000Z</time>
      </trkpt>
      <trkpt lat="43.29587" lon="6.52717">
        <ele>178.6</ele>
        <time>1970-01-01T00:33:59.000Z</time>
      </trkpt>
      <trkpt lat="43.29586" lon="6.52716">
        <ele>178.8</ele>
        <time>1970-01-01T00:34:00.000Z</time>
      </trkpt>
      <trkpt lat="43.29585" lon="6.52712">
        <ele>179.8</ele>
        <time>1970-01-01T00:34:03.000Z</time>
      </trkpt>
      <trkpt lat="43.29585" lon="6.5271">
        <ele>180.4</ele>
        <time>1970-01-01T00:34:05.000Z</time>
      </trkpt>
      <trkpt lat="43.29587" lon="6.52706">
        <ele>180.8</ele>
        <time>1970-01-01T00:34:07.000Z</time>
      </trkpt>
      <trkpt lat="43.2959" lon="6.52701">
        <ele>182.2</ele>
        <time>1970-01-01T00:34:10.000Z</time>
      </trkpt>
      <trkpt lat="43.29594" lon="6.52694">
        <ele>183.2</ele>
        <time>1970-01-01T00:34:14.000Z</time>
      </trkpt>
      <trkpt lat="43.29599" lon="6.52687">
        <ele>184.4</ele>
        <time>1970-01-01T00:34:19.000Z</time>
      </trkpt>
      <trkpt lat="43.29605" lon="6.52679">
        <ele>185.4</ele>
        <time>1970-01-01T00:34:24.000Z</time>
      </trkpt>
      <trkpt lat="43.29608" lon="6.52666">
        <ele>186.6</ele>
        <time>1970-01-01T00:34:32.000Z</time>
      </trkpt>
      <trkpt lat="43.29608" lon="6.52658">
        <ele>187.8</ele>
        <time>1970-01-01T00:34:38.000Z</time>
      </trkpt>
      <trkpt lat="43.29608" lon="6.52656">
        <ele>188.2</ele>
        <time>1970-01-01T00:34:39.000Z</time>
      </trkpt>
      <trkpt lat="43.29608" lon="6.52652">
        <ele>189.2</ele>
        <time>1970-01-01T00:34:41.000Z</time>
      </trkpt>
      <trkpt lat="43.29608" lon="6.52647">
        <ele>190.4</ele>
        <time>1970-01-01T00:34:45.000Z</time>
      </trkpt>
      <trkpt lat="43.29607" lon="6.52646">
        <ele>191</ele>
        <time>1970-01-01T00:34:47.000Z</time>
      </trkpt>
      <trkpt lat="43.2961" lon="6.52633">
        <ele>192.4</ele>
        <time>1970-01-01T00:35:15.000Z</time>
      </trkpt>
      <trkpt lat="43.2963" lon="6.52594">
        <ele>191.2</ele>
        <time>1970-01-01T00:35:24.000Z</time>
      </trkpt>
      <trkpt lat="43.29667" lon="6.5258">
        <ele>192.4</ele>
        <time>1970-01-01T00:35:40.000Z</time>
      </trkpt>
      <trkpt lat="43.2968" lon="6.52586">
        <ele>193.4</ele>
        <time>1970-01-01T00:35:47.000Z</time>
      </trkpt>
      <trkpt lat="43.29689" lon="6.52592">
        <ele>194.4</ele>
        <time>1970-01-01T00:35:52.000Z</time>
      </trkpt>
      <trkpt lat="43.29707" lon="6.52602">
        <ele>195.6</ele>
        <time>1970-01-01T00:36:00.000Z</time>
      </trkpt>
      <trkpt lat="43.29722" lon="6.52611">
        <ele>196.6</ele>
        <time>1970-01-01T00:36:09.000Z</time>
      </trkpt>
      <trkpt lat="43.29734" lon="6.52617">
        <ele>197.8</ele>
        <time>1970-01-01T00:36:16.000Z</time>
      </trkpt>
      <trkpt lat="43.29743" lon="6.52622">
        <ele>199</ele>
        <time>1970-01-01T00:36:21.000Z</time>
      </trkpt>
      <trkpt lat="43.29751" lon="6.52628">
        <ele>200</ele>
        <time>1970-01-01T00:36:26.000Z</time>
      </trkpt>
      <trkpt lat="43.29767" lon="6.52628">
        <ele>201.4</ele>
        <time>1970-01-01T00:36:35.000Z</time>
      </trkpt>
      <trkpt lat="43.29771" lon="6.52627">
        <ele>202.6</ele>
        <time>1970-01-01T00:36:38.000Z</time>
      </trkpt>
      <trkpt lat="43.29775" lon="6.52627">
        <ele>204</ele>
        <time>1970-01-01T00:36:42.000Z</time>
      </trkpt>
      <trkpt lat="43.29781" lon="6.52627">
        <ele>205</ele>
        <time>1970-01-01T00:36:46.000Z</time>
      </trkpt>
      <trkpt lat="43.29786" lon="6.52627">
        <ele>206.2</ele>
        <time>1970-01-01T00:36:50.000Z</time>
      </trkpt>
      <trkpt lat="43.29791" lon="6.52627">
        <ele>207.4</ele>
        <time>1970-01-01T00:36:54.000Z</time>
      </trkpt>
      <trkpt lat="43.29795" lon="6.52625">
        <ele>208.6</ele>
        <time>1970-01-01T00:36:58.000Z</time>
      </trkpt>
      <trkpt lat="43.29808" lon="6.52623">
        <ele>209.6</ele>
        <time>1970-01-01T00:37:06.000Z</time>
      </trkpt>
      <trkpt lat="43.29816" lon="6.52621">
        <ele>210.6</ele>
        <time>1970-01-01T00:37:11.000Z</time>
      </trkpt>
      <trkpt lat="43.29822" lon="6.52619">
        <ele>211.6</ele>
        <time>1970-01-01T00:37:15.000Z</time>
      </trkpt>
      <trkpt lat="43.2983" lon="6.52615">
        <ele>212.8</ele>
        <time>1970-01-01T00:37:20.000Z</time>
      </trkpt>
      <trkpt lat="43.29835" lon="6.52611">
        <ele>214</ele>
        <time>1970-01-01T00:37:25.000Z</time>
      </trkpt>
      <trkpt lat="43.29844" lon="6.52602">
        <ele>214.8</ele>
        <time>1970-01-01T00:37:32.000Z</time>
      </trkpt>
      <trkpt lat="43.29856" lon="6.52592">
        <ele>215.8</ele>
        <time>1970-01-01T00:37:39.000Z</time>
      </trkpt>
      <trkpt lat="43.29869" lon="6.52584">
        <ele>217</ele>
        <time>1970-01-01T00:37:46.000Z</time>
      </trkpt>
      <trkpt lat="43.29883" lon="6.52573">
        <ele>217.8</ele>
        <time>1970-01-01T00:37:54.000Z</time>
      </trkpt>
      <trkpt lat="43.29895" lon="6.52563">
        <ele>218.8</ele>
        <time>1970-01-01T00:38:02.000Z</time>
      </trkpt>
      <trkpt lat="43.29907" lon="6.52553">
        <ele>220</ele>
        <time>1970-01-01T00:38:08.000Z</time>
      </trkpt>
      <trkpt lat="43.29929" lon="6.52536">
        <ele>220.8</ele>
        <time>1970-01-01T00:38:19.000Z</time>
      </trkpt>
      <trkpt lat="43.2994" lon="6.52529">
        <ele>222</ele>
        <time>1970-01-01T00:38:25.000Z</time>
      </trkpt>
      <trkpt lat="43.29951" lon="6.52521">
        <ele>223</ele>
        <time>1970-01-01T00:38:31.000Z</time>
      </trkpt>
      <trkpt lat="43.29963" lon="6.52514">
        <ele>224</ele>
        <time>1970-01-01T00:38:37.000Z</time>
      </trkpt>
      <trkpt lat="43.2997" lon="6.52508">
        <ele>225.2</ele>
        <time>1970-01-01T00:38:41.000Z</time>
      </trkpt>
      <trkpt lat="43.29978" lon="6.52503">
        <ele>226.4</ele>
        <time>1970-01-01T00:38:46.000Z</time>
      </trkpt>
      <trkpt lat="43.29985" lon="6.52499">
        <ele>227.6</ele>
        <time>1970-01-01T00:38:50.000Z</time>
      </trkpt>
      <trkpt lat="43.29996" lon="6.52492">
        <ele>228.4</ele>
        <time>1970-01-01T00:38:56.000Z</time>
      </trkpt>
      <trkpt lat="43.30003" lon="6.52488">
        <ele>229.6</ele>
        <time>1970-01-01T00:39:00.000Z</time>
      </trkpt>
      <trkpt lat="43.30017" lon="6.52482">
        <ele>230.8</ele>
        <time>1970-01-01T00:39:06.000Z</time>
      </trkpt>
      <trkpt lat="43.30055" lon="6.52447">
        <ele>231.8</ele>
        <time>1970-01-01T00:39:23.000Z</time>
      </trkpt>
      <trkpt lat="43.3007" lon="6.52431">
        <ele>232.8</ele>
        <time>1970-01-01T00:39:32.000Z</time>
      </trkpt>
      <trkpt lat="43.30085" lon="6.5244">
        <ele>233.8</ele>
        <time>1970-01-01T00:39:40.000Z</time>
      </trkpt>
      <trkpt lat="43.30093" lon="6.52449">
        <ele>234.8</ele>
        <time>1970-01-01T00:39:45.000Z</time>
      </trkpt>
      <trkpt lat="43.30099" lon="6.52455">
        <ele>236</ele>
        <time>1970-01-01T00:39:49.000Z</time>
      </trkpt>
      <trkpt lat="43.30105" lon="6.5246">
        <ele>237.2</ele>
        <time>1970-01-01T00:39:53.000Z</time>
      </trkpt>
      <trkpt lat="43.30114" lon="6.52463">
        <ele>238.6</ele>
        <time>1970-01-01T00:39:58.000Z</time>
      </trkpt>
      <trkpt lat="43.30121" lon="6.52463">
        <ele>239.6</ele>
        <time>1970-01-01T00:40:01.000Z</time>
      </trkpt>
      <trkpt lat="43.3013" lon="6.52461">
        <ele>240.8</ele>
        <time>1970-01-01T00:40:05.000Z</time>
      </trkpt>
      <trkpt lat="43.30137" lon="6.52459">
        <ele>242</ele>
        <time>1970-01-01T00:40:08.000Z</time>
      </trkpt>
      <trkpt lat="43.30182" lon="6.52486">
        <ele>241.8</ele>
        <time>1970-01-01T00:40:30.000Z</time>
      </trkpt>
      <trkpt lat="43.30187" lon="6.52498">
        <ele>242.4</ele>
        <time>1970-01-01T00:40:35.000Z</time>
      </trkpt>
      <trkpt lat="43.30189" lon="6.52504">
        <ele>243.2</ele>
        <time>1970-01-01T00:40:38.000Z</time>
      </trkpt>
      <trkpt lat="43.30192" lon="6.52512">
        <ele>244.4</ele>
        <time>1970-01-01T00:40:42.000Z</time>
      </trkpt>
      <trkpt lat="43.30197" lon="6.5252">
        <ele>245.4</ele>
        <time>1970-01-01T00:40:46.000Z</time>
      </trkpt>
      <trkpt lat="43.30204" lon="6.52526">
        <ele>246.4</ele>
        <time>1970-01-01T00:40:50.000Z</time>
      </trkpt>
      <trkpt lat="43.30228" lon="6.52532">
        <ele>247.6</ele>
        <time>1970-01-01T00:41:01.000Z</time>
      </trkpt>
      <trkpt lat="43.30244" lon="6.52532">
        <ele>248.6</ele>
        <time>1970-01-01T00:41:09.000Z</time>
      </trkpt>
      <trkpt lat="43.30265" lon="6.52549">
        <ele>249.6</ele>
        <time>1970-01-01T00:41:20.000Z</time>
      </trkpt>
      <trkpt lat="43.30272" lon="6.52561">
        <ele>250.8</ele>
        <time>1970-01-01T00:41:26.000Z</time>
      </trkpt>
      <trkpt lat="43.30288" lon="6.52557">
        <ele>252</ele>
        <time>1970-01-01T00:41:34.000Z</time>
      </trkpt>
      <trkpt lat="43.30298" lon="6.52549">
        <ele>253</ele>
        <time>1970-01-01T00:41:40.000Z</time>
      </trkpt>
      <trkpt lat="43.30305" lon="6.52544">
        <ele>254</ele>
        <time>1970-01-01T00:41:45.000Z</time>
      </trkpt>
      <trkpt lat="43.30318" lon="6.52534">
        <ele>255</ele>
        <time>1970-01-01T00:41:52.000Z</time>
      </trkpt>
      <trkpt lat="43.30325" lon="6.52529">
        <ele>256</ele>
        <time>1970-01-01T00:41:57.000Z</time>
      </trkpt>
      <trkpt lat="43.30336" lon="6.52523">
        <ele>257.2</ele>
        <time>1970-01-01T00:42:02.000Z</time>
      </trkpt>
      <trkpt lat="43.30344" lon="6.5252">
        <ele>258.4</ele>
        <time>1970-01-01T00:42:06.000Z</time>
      </trkpt>
      <trkpt lat="43.30361" lon="6.52511">
        <ele>259.4</ele>
        <time>1970-01-01T00:42:14.000Z</time>
      </trkpt>
      <trkpt lat="43.3037" lon="6.52506">
        <ele>260.6</ele>
        <time>1970-01-01T00:42:19.000Z</time>
      </trkpt>
      <trkpt lat="43.30375" lon="6.52505">
        <ele>261.8</ele>
        <time>1970-01-01T00:42:22.000Z</time>
      </trkpt>
      <trkpt lat="43.30382" lon="6.52505">
        <ele>263</ele>
        <time>1970-01-01T00:42:26.000Z</time>
      </trkpt>
      <trkpt lat="43.30389" lon="6.52505">
        <ele>264</ele>
        <time>1970-01-01T00:42:30.000Z</time>
      </trkpt>
      <trkpt lat="43.30395" lon="6.52505">
        <ele>265.2</ele>
        <time>1970-01-01T00:42:34.000Z</time>
      </trkpt>
      <trkpt lat="43.30402" lon="6.52508">
        <ele>266.2</ele>
        <time>1970-01-01T00:42:39.000Z</time>
      </trkpt>
      <trkpt lat="43.30407" lon="6.52511">
        <ele>267.4</ele>
        <time>1970-01-01T00:42:43.000Z</time>
      </trkpt>
      <trkpt lat="43.30412" lon="6.52514">
        <ele>268.6</ele>
        <time>1970-01-01T00:42:47.000Z</time>
      </trkpt>
      <trkpt lat="43.30418" lon="6.52519">
        <ele>269.6</ele>
        <time>1970-01-01T00:42:52.000Z</time>
      </trkpt>
      <trkpt lat="43.30423" lon="6.52524">
        <ele>270.8</ele>
        <time>1970-01-01T00:42:56.000Z</time>
      </trkpt>
      <trkpt lat="43.30427" lon="6.52528">
        <ele>271.4</ele>
        <time>1970-01-01T00:42:59.000Z</time>
      </trkpt>
      <trkpt lat="43.30427" lon="6.5253">
        <ele>271.6</ele>
        <time>1970-01-01T00:43:00.000Z</time>
      </trkpt>
      <trkpt lat="43.30431" lon="6.52539">
        <ele>272.8</ele>
        <time>1970-01-01T00:43:04.000Z</time>
      </trkpt>
      <trkpt lat="43.30433" lon="6.52554">
        <ele>273.8</ele>
        <time>1970-01-01T00:43:10.000Z</time>
      </trkpt>
      <trkpt lat="43.30439" lon="6.5257">
        <ele>274.8</ele>
        <time>1970-01-01T00:43:17.000Z</time>
      </trkpt>
      <trkpt lat="43.30449" lon="6.52586">
        <ele>275.8</ele>
        <time>1970-01-01T00:43:25.000Z</time>
      </trkpt>
      <trkpt lat="43.30456" lon="6.52597">
        <ele>276.8</ele>
        <time>1970-01-01T00:43:30.000Z</time>
      </trkpt>
      <trkpt lat="43.30461" lon="6.52606">
        <ele>278</ele>
        <time>1970-01-01T00:43:35.000Z</time>
      </trkpt>
      <trkpt lat="43.30472" lon="6.52613">
        <ele>279</ele>
        <time>1970-01-01T00:43:41.000Z</time>
      </trkpt>
      <trkpt lat="43.30489" lon="6.52617">
        <ele>280.2</ele>
        <time>1970-01-01T00:43:49.000Z</time>
      </trkpt>
      <trkpt lat="43.30501" lon="6.52625">
        <ele>281</ele>
        <time>1970-01-01T00:43:56.000Z</time>
      </trkpt>
      <trkpt lat="43.30505" lon="6.52626">
        <ele>281.4</ele>
        <time>1970-01-01T00:43:58.000Z</time>
      </trkpt>
      <trkpt lat="43.3051" lon="6.5263">
        <ele>282</ele>
        <time>1970-01-01T00:44:01.000Z</time>
      </trkpt>
      <trkpt lat="43.30516" lon="6.52633">
        <ele>283.2</ele>
        <time>1970-01-01T00:44:06.000Z</time>
      </trkpt>
      <trkpt lat="43.30515" lon="6.52638">
        <ele>283.4</ele>
        <time>1970-01-01T00:44:08.000Z</time>
      </trkpt>
      <trkpt lat="43.3051" lon="6.52648">
        <ele>284.2</ele>
        <time>1970-01-01T00:44:11.000Z</time>
      </trkpt>
      <trkpt lat="43.30484" lon="6.52717">
        <ele>284</ele>
        <time>1970-01-01T00:44:27.000Z</time>
      </trkpt>
      <trkpt lat="43.30477" lon="6.52762">
        <ele>284.8</ele>
        <time>1970-01-01T00:44:39.000Z</time>
      </trkpt>
      <trkpt lat="43.30474" lon="6.5277">
        <ele>285.2</ele>
        <time>1970-01-01T00:44:41.000Z</time>
      </trkpt>
      <trkpt lat="43.30453" lon="6.52842">
        <ele>285.6</ele>
        <time>1970-01-01T00:44:56.000Z</time>
      </trkpt>
      <trkpt lat="43.30451" lon="6.52884">
        <ele>285.2</ele>
        <time>1970-01-01T00:45:01.000Z</time>
      </trkpt>
      <trkpt lat="43.30444" lon="6.52918">
        <ele>284.2</ele>
        <time>1970-01-01T00:45:05.000Z</time>
      </trkpt>
      <trkpt lat="43.30444" lon="6.52926">
        <ele>284</ele>
        <time>1970-01-01T00:45:06.000Z</time>
      </trkpt>
      <trkpt lat="43.30438" lon="6.52955">
        <ele>283.2</ele>
        <time>1970-01-01T00:45:10.000Z</time>
      </trkpt>
      <trkpt lat="43.30436" lon="6.52961">
        <ele>282.8</ele>
        <time>1970-01-01T00:45:11.000Z</time>
      </trkpt>
      <trkpt lat="43.30428" lon="6.52992">
        <ele>282.2</ele>
        <time>1970-01-01T00:45:16.000Z</time>
      </trkpt>
      <trkpt lat="43.30407" lon="6.53041">
        <ele>284</ele>
        <time>1970-01-01T00:45:30.000Z</time>
      </trkpt>
      <trkpt lat="43.30405" lon="6.5306">
        <ele>285.2</ele>
        <time>1970-01-01T00:45:34.000Z</time>
      </trkpt>
      <trkpt lat="43.30407" lon="6.53071">
        <ele>286.6</ele>
        <time>1970-01-01T00:45:37.000Z</time>
      </trkpt>
      <trkpt lat="43.30409" lon="6.53083">
        <ele>287.6</ele>
        <time>1970-01-01T00:45:41.000Z</time>
      </trkpt>
      <trkpt lat="43.3041" lon="6.53092">
        <ele>288.6</ele>
        <time>1970-01-01T00:45:44.000Z</time>
      </trkpt>
      <trkpt lat="43.30412" lon="6.53107">
        <ele>290</ele>
        <time>1970-01-01T00:45:49.000Z</time>
      </trkpt>
      <trkpt lat="43.30413" lon="6.53118">
        <ele>291</ele>
        <time>1970-01-01T00:45:54.000Z</time>
      </trkpt>
      <trkpt lat="43.30414" lon="6.53125">
        <ele>292.2</ele>
        <time>1970-01-01T00:45:57.000Z</time>
      </trkpt>
      <trkpt lat="43.30421" lon="6.53136">
        <ele>293.2</ele>
        <time>1970-01-01T00:46:04.000Z</time>
      </trkpt>
      <trkpt lat="43.30427" lon="6.53142">
        <ele>294.6</ele>
        <time>1970-01-01T00:46:09.000Z</time>
      </trkpt>
      <trkpt lat="43.30432" lon="6.53145">
        <ele>295.6</ele>
        <time>1970-01-01T00:46:12.000Z</time>
      </trkpt>
      <trkpt lat="43.30437" lon="6.5315">
        <ele>296.6</ele>
        <time>1970-01-01T00:46:16.000Z</time>
      </trkpt>
      <trkpt lat="43.30447" lon="6.53162">
        <ele>297.8</ele>
        <time>1970-01-01T00:46:24.000Z</time>
      </trkpt>
      <trkpt lat="43.30451" lon="6.53166">
        <ele>298.8</ele>
        <time>1970-01-01T00:46:28.000Z</time>
      </trkpt>
      <trkpt lat="43.30454" lon="6.5317">
        <ele>300</ele>
        <time>1970-01-01T00:46:31.000Z</time>
      </trkpt>
      <trkpt lat="43.30457" lon="6.53178">
        <ele>301.2</ele>
        <time>1970-01-01T00:46:35.000Z</time>
      </trkpt>
      <trkpt lat="43.30459" lon="6.53186">
        <ele>302.4</ele>
        <time>1970-01-01T00:46:39.000Z</time>
      </trkpt>
      <trkpt lat="43.30458" lon="6.53201">
        <ele>303.4</ele>
        <time>1970-01-01T00:46:46.000Z</time>
      </trkpt>
      <trkpt lat="43.30456" lon="6.53206">
        <ele>304.4</ele>
        <time>1970-01-01T00:46:49.000Z</time>
      </trkpt>
      <trkpt lat="43.30454" lon="6.53211">
        <ele>305.8</ele>
        <time>1970-01-01T00:46:52.000Z</time>
      </trkpt>
      <trkpt lat="43.30451" lon="6.53218">
        <ele>307</ele>
        <time>1970-01-01T00:46:56.000Z</time>
      </trkpt>
      <trkpt lat="43.30448" lon="6.53225">
        <ele>308</ele>
        <time>1970-01-01T00:47:00.000Z</time>
      </trkpt>
      <trkpt lat="43.30446" lon="6.53232">
        <ele>309.6</ele>
        <time>1970-01-01T00:47:04.000Z</time>
      </trkpt>
      <trkpt lat="43.30442" lon="6.53242">
        <ele>310.6</ele>
        <time>1970-01-01T00:47:10.000Z</time>
      </trkpt>
      <trkpt lat="43.3044" lon="6.53248">
        <ele>311.8</ele>
        <time>1970-01-01T00:47:14.000Z</time>
      </trkpt>
      <trkpt lat="43.30437" lon="6.53256">
        <ele>313</ele>
        <time>1970-01-01T00:47:19.000Z</time>
      </trkpt>
      <trkpt lat="43.30432" lon="6.53265">
        <ele>314</ele>
        <time>1970-01-01T00:47:24.000Z</time>
      </trkpt>
      <trkpt lat="43.30421" lon="6.53277">
        <ele>315.2</ele>
        <time>1970-01-01T00:47:34.000Z</time>
      </trkpt>
      <trkpt lat="43.30418" lon="6.5328">
        <ele>316.2</ele>
        <time>1970-01-01T00:47:37.000Z</time>
      </trkpt>
      <trkpt lat="43.30413" lon="6.53283">
        <ele>317.4</ele>
        <time>1970-01-01T00:47:40.000Z</time>
      </trkpt>
      <trkpt lat="43.3041" lon="6.53284">
        <ele>318.6</ele>
        <time>1970-01-01T00:47:43.000Z</time>
      </trkpt>
      <trkpt lat="43.30406" lon="6.53285">
        <ele>319.6</ele>
        <time>1970-01-01T00:47:46.000Z</time>
      </trkpt>
      <trkpt lat="43.30402" lon="6.53287">
        <ele>320.6</ele>
        <time>1970-01-01T00:47:49.000Z</time>
      </trkpt>
      <trkpt lat="43.30392" lon="6.53288">
        <ele>321.6</ele>
        <time>1970-01-01T00:47:56.000Z</time>
      </trkpt>
      <trkpt lat="43.3039" lon="6.53288">
        <ele>321.8</ele>
        <time>1970-01-01T00:47:57.000Z</time>
      </trkpt>
      <trkpt lat="43.30384" lon="6.53288">
        <ele>322.8</ele>
        <time>1970-01-01T00:48:02.000Z</time>
      </trkpt>
      <trkpt lat="43.30379" lon="6.53288">
        <ele>323.8</ele>
        <time>1970-01-01T00:48:06.000Z</time>
      </trkpt>
      <trkpt lat="43.30374" lon="6.5329">
        <ele>324.8</ele>
        <time>1970-01-01T00:48:10.000Z</time>
      </trkpt>
      <trkpt lat="43.30373" lon="6.53292">
        <ele>325</ele>
        <time>1970-01-01T00:48:11.000Z</time>
      </trkpt>
      <trkpt lat="43.30368" lon="6.53301">
        <ele>326.2</ele>
        <time>1970-01-01T00:48:15.000Z</time>
      </trkpt>
      <trkpt lat="43.30352" lon="6.5335">
        <ele>327.2</ele>
        <time>1970-01-01T00:48:31.000Z</time>
      </trkpt>
      <trkpt lat="43.30336" lon="6.53406">
        <ele>328.6</ele>
        <time>1970-01-01T00:48:48.000Z</time>
      </trkpt>
      <trkpt lat="43.30335" lon="6.53424">
        <ele>329.8</ele>
        <time>1970-01-01T00:48:53.000Z</time>
      </trkpt>
      <trkpt lat="43.30333" lon="6.53455">
        <ele>331</ele>
        <time>1970-01-01T00:49:02.000Z</time>
      </trkpt>
      <trkpt lat="43.30333" lon="6.53472">
        <ele>331.8</ele>
        <time>1970-01-01T00:49:07.000Z</time>
      </trkpt>
      <trkpt lat="43.30336" lon="6.5349">
        <ele>332.8</ele>
        <time>1970-01-01T00:49:12.000Z</time>
      </trkpt>
      <trkpt lat="43.30337" lon="6.53518">
        <ele>334</ele>
        <time>1970-01-01T00:49:21.000Z</time>
      </trkpt>
      <trkpt lat="43.30336" lon="6.53531">
        <ele>335.2</ele>
        <time>1970-01-01T00:49:25.000Z</time>
      </trkpt>
      <trkpt lat="43.30329" lon="6.53561">
        <ele>336.4</ele>
        <time>1970-01-01T00:49:33.000Z</time>
      </trkpt>
      <trkpt lat="43.30323" lon="6.53638">
        <ele>337</ele>
        <time>1970-01-01T00:49:49.000Z</time>
      </trkpt>
      <trkpt lat="43.30318" lon="6.53662">
        <ele>337.4</ele>
        <time>1970-01-01T00:49:54.000Z</time>
      </trkpt>
      <trkpt lat="43.30306" lon="6.53714">
        <ele>338.4</ele>
        <time>1970-01-01T00:50:05.000Z</time>
      </trkpt>
      <trkpt lat="43.30302" lon="6.53735">
        <ele>339.4</ele>
        <time>1970-01-01T00:50:10.000Z</time>
      </trkpt>
      <trkpt lat="43.30294" lon="6.53762">
        <ele>340.4</ele>
        <time>1970-01-01T00:50:18.000Z</time>
      </trkpt>
      <trkpt lat="43.30288" lon="6.5378">
        <ele>341.6</ele>
        <time>1970-01-01T00:50:23.000Z</time>
      </trkpt>
      <trkpt lat="43.3028" lon="6.53798">
        <ele>342.8</ele>
        <time>1970-01-01T00:50:28.000Z</time>
      </trkpt>
      <trkpt lat="43.30273" lon="6.53812">
        <ele>343.8</ele>
        <time>1970-01-01T00:50:33.000Z</time>
      </trkpt>
      <trkpt lat="43.30263" lon="6.53825">
        <ele>344.8</ele>
        <time>1970-01-01T00:50:39.000Z</time>
      </trkpt>
      <trkpt lat="43.30252" lon="6.53833">
        <ele>346.2</ele>
        <time>1970-01-01T00:50:44.000Z</time>
      </trkpt>
      <trkpt lat="43.30245" lon="6.53839">
        <ele>347.4</ele>
        <time>1970-01-01T00:50:47.000Z</time>
      </trkpt>
      <trkpt lat="43.30233" lon="6.5385">
        <ele>348.4</ele>
        <time>1970-01-01T00:50:52.000Z</time>
      </trkpt>
      <trkpt lat="43.30225" lon="6.53859">
        <ele>349.4</ele>
        <time>1970-01-01T00:50:56.000Z</time>
      </trkpt>
      <trkpt lat="43.30216" lon="6.53874">
        <ele>350.6</ele>
        <time>1970-01-01T00:51:03.000Z</time>
      </trkpt>
      <trkpt lat="43.30195" lon="6.53905">
        <ele>351</ele>
        <time>1970-01-01T00:51:14.000Z</time>
      </trkpt>
      <trkpt lat="43.30145" lon="6.53933">
        <ele>350</ele>
        <time>1970-01-01T00:51:31.000Z</time>
      </trkpt>
      <trkpt lat="43.30106" lon="6.53979">
        <ele>351.6</ele>
        <time>1970-01-01T00:51:54.000Z</time>
      </trkpt>
      <trkpt lat="43.30105" lon="6.53981">
        <ele>351.6</ele>
        <time>1970-01-01T00:51:55.000Z</time>
      </trkpt>
      <trkpt lat="43.30099" lon="6.5399">
        <ele>352.8</ele>
        <time>1970-01-01T00:52:01.000Z</time>
      </trkpt>
      <trkpt lat="43.30098" lon="6.53993">
        <ele>353.6</ele>
        <time>1970-01-01T00:52:05.000Z</time>
      </trkpt>
      <trkpt lat="43.30096" lon="6.54003">
        <ele>354</ele>
        <time>1970-01-01T00:59:19.000Z</time>
      </trkpt>
      <trkpt lat="43.30098" lon="6.54022">
        <ele>354</ele>
        <time>1970-01-01T00:59:22.000Z</time>
      </trkpt>
      <trkpt lat="43.30099" lon="6.54033">
        <ele>354</ele>
        <time>1970-01-01T00:59:24.000Z</time>
      </trkpt>
      <trkpt lat="43.30102" lon="6.54059">
        <ele>353</ele>
        <time>1970-01-01T00:59:28.000Z</time>
      </trkpt>
      <trkpt lat="43.30104" lon="6.54067">
        <ele>352</ele>
        <time>1970-01-01T00:59:29.000Z</time>
      </trkpt>
      <trkpt lat="43.30104" lon="6.54073">
        <ele>350.4</ele>
        <time>1970-01-01T00:59:30.000Z</time>
      </trkpt>
      <trkpt lat="43.30104" lon="6.5408">
        <ele>349</ele>
        <time>1970-01-01T00:59:31.000Z</time>
      </trkpt>
      <trkpt lat="43.30104" lon="6.54086">
        <ele>347.4</ele>
        <time>1970-01-01T00:59:32.000Z</time>
      </trkpt>
      <trkpt lat="43.30103" lon="6.54092">
        <ele>345.8</ele>
        <time>1970-01-01T00:59:33.000Z</time>
      </trkpt>
      <trkpt lat="43.30103" lon="6.54097">
        <ele>344.8</ele>
        <time>1970-01-01T00:59:34.000Z</time>
      </trkpt>
      <trkpt lat="43.30101" lon="6.54102">
        <ele>343.6</ele>
        <time>1970-01-01T00:59:35.000Z</time>
      </trkpt>
      <trkpt lat="43.30099" lon="6.54104">
        <ele>341.8</ele>
        <time>1970-01-01T00:59:36.000Z</time>
      </trkpt>
      <trkpt lat="43.30097" lon="6.54106">
        <ele>340.4</ele>
        <time>1970-01-01T00:59:37.000Z</time>
      </trkpt>
      <trkpt lat="43.30093" lon="6.54106">
        <ele>339.2</ele>
        <time>1970-01-01T00:59:38.000Z</time>
      </trkpt>
      <trkpt lat="43.3009" lon="6.54107">
        <ele>337.2</ele>
        <time>1970-01-01T00:59:39.000Z</time>
      </trkpt>
      <trkpt lat="43.30087" lon="6.5411">
        <ele>335.4</ele>
        <time>1970-01-01T00:59:40.000Z</time>
      </trkpt>
      <trkpt lat="43.30085" lon="6.54113">
        <ele>333.8</ele>
        <time>1970-01-01T00:59:41.000Z</time>
      </trkpt>
      <trkpt lat="43.30084" lon="6.54116">
        <ele>332</ele>
        <time>1970-01-01T00:59:42.000Z</time>
      </trkpt>
      <trkpt lat="43.30085" lon="6.54117">
        <ele>330.2</ele>
        <time>1970-01-01T00:59:43.000Z</time>
      </trkpt>
      <trkpt lat="43.30086" lon="6.54118">
        <ele>328.8</ele>
        <time>1970-01-01T00:59:44.000Z</time>
      </trkpt>
      <trkpt lat="43.30087" lon="6.54125">
        <ele>327.8</ele>
        <time>1970-01-01T00:59:46.000Z</time>
      </trkpt>
      <trkpt lat="43.3008" lon="6.54133">
        <ele>326.4</ele>
        <time>1970-01-01T00:59:49.000Z</time>
      </trkpt>
      <trkpt lat="43.30072" lon="6.54143">
        <ele>325</ele>
        <time>1970-01-01T00:59:51.000Z</time>
      </trkpt>
      <trkpt lat="43.30069" lon="6.54148">
        <ele>324</ele>
        <time>1970-01-01T00:59:52.000Z</time>
      </trkpt>
      <trkpt lat="43.30065" lon="6.54153">
        <ele>322.8</ele>
        <time>1970-01-01T00:59:53.000Z</time>
      </trkpt>
      <trkpt lat="43.3006" lon="6.54158">
        <ele>321.4</ele>
        <time>1970-01-01T00:59:54.000Z</time>
      </trkpt>
      <trkpt lat="43.30053" lon="6.54162">
        <ele>320.2</ele>
        <time>1970-01-01T00:59:55.000Z</time>
      </trkpt>
      <trkpt lat="43.30045" lon="6.54165">
        <ele>319.2</ele>
        <time>1970-01-01T00:59:56.000Z</time>
      </trkpt>
      <trkpt lat="43.30038" lon="6.54167">
        <ele>318.2</ele>
        <time>1970-01-01T00:59:57.000Z</time>
      </trkpt>
      <trkpt lat="43.3003" lon="6.54168">
        <ele>317.2</ele>
        <time>1970-01-01T00:59:58.000Z</time>
      </trkpt>
      <trkpt lat="43.30023" lon="6.54169">
        <ele>316.2</ele>
        <time>1970-01-01T00:59:59.000Z</time>
      </trkpt>
      <trkpt lat="43.30014" lon="6.54175">
        <ele>315</ele>
        <time>1970-01-01T01:00:00.000Z</time>
      </trkpt>
      <trkpt lat="43.30008" lon="6.54178">
        <ele>313.6</ele>
        <time>1970-01-01T01:00:01.000Z</time>
      </trkpt>
      <trkpt lat="43.30001" lon="6.54181">
        <ele>312.4</ele>
        <time>1970-01-01T01:00:02.000Z</time>
      </trkpt>
      <trkpt lat="43.29996" lon="6.54184">
        <ele>311.2</ele>
        <time>1970-01-01T01:00:03.000Z</time>
      </trkpt>
      <trkpt lat="43.29986" lon="6.5419">
        <ele>309.6</ele>
        <time>1970-01-01T01:00:05.000Z</time>
      </trkpt>
      <trkpt lat="43.29974" lon="6.54201">
        <ele>307.6</ele>
        <time>1970-01-01T01:00:08.000Z</time>
      </trkpt>
      <trkpt lat="43.2997" lon="6.54203">
        <ele>306.4</ele>
        <time>1970-01-01T01:00:09.000Z</time>
      </trkpt>
      <trkpt lat="43.29965" lon="6.54205">
        <ele>305.2</ele>
        <time>1970-01-01T01:00:10.000Z</time>
      </trkpt>
      <trkpt lat="43.2996" lon="6.54208">
        <ele>304</ele>
        <time>1970-01-01T01:00:11.000Z</time>
      </trkpt>
      <trkpt lat="43.29957" lon="6.54211">
        <ele>302.6</ele>
        <time>1970-01-01T01:00:12.000Z</time>
      </trkpt>
      <trkpt lat="43.29955" lon="6.54214">
        <ele>301.4</ele>
        <time>1970-01-01T01:00:13.000Z</time>
      </trkpt>
      <trkpt lat="43.29955" lon="6.54217">
        <ele>300</ele>
        <time>1970-01-01T01:00:14.000Z</time>
      </trkpt>
      <trkpt lat="43.29956" lon="6.54219">
        <ele>298.6</ele>
        <time>1970-01-01T01:00:15.000Z</time>
      </trkpt>
      <trkpt lat="43.29958" lon="6.54222">
        <ele>297.4</ele>
        <time>1970-01-01T01:00:16.000Z</time>
      </trkpt>
      <trkpt lat="43.29961" lon="6.5423">
        <ele>296</ele>
        <time>1970-01-01T01:00:18.000Z</time>
      </trkpt>
      <trkpt lat="43.29958" lon="6.54236">
        <ele>294</ele>
        <time>1970-01-01T01:00:20.000Z</time>
      </trkpt>
      <trkpt lat="43.29958" lon="6.54238">
        <ele>292.6</ele>
        <time>1970-01-01T01:00:21.000Z</time>
      </trkpt>
      <trkpt lat="43.29958" lon="6.54243">
        <ele>291</ele>
        <time>1970-01-01T01:00:22.000Z</time>
      </trkpt>
      <trkpt lat="43.29958" lon="6.54246">
        <ele>288</ele>
        <time>1970-01-01T01:00:23.000Z</time>
      </trkpt>
      <trkpt lat="43.29959" lon="6.54251">
        <ele>286.8</ele>
        <time>1970-01-01T01:00:24.000Z</time>
      </trkpt>
      <trkpt lat="43.2996" lon="6.54256">
        <ele>285.6</ele>
        <time>1970-01-01T01:00:25.000Z</time>
      </trkpt>
      <trkpt lat="43.29959" lon="6.54262">
        <ele>284.2</ele>
        <time>1970-01-01T01:00:26.000Z</time>
      </trkpt>
      <trkpt lat="43.29958" lon="6.54267">
        <ele>283</ele>
        <time>1970-01-01T01:00:27.000Z</time>
      </trkpt>
      <trkpt lat="43.29955" lon="6.54271">
        <ele>281.8</ele>
        <time>1970-01-01T01:00:28.000Z</time>
      </trkpt>
      <trkpt lat="43.29952" lon="6.54274">
        <ele>280.4</ele>
        <time>1970-01-01T01:00:29.000Z</time>
      </trkpt>
      <trkpt lat="43.29947" lon="6.54273">
        <ele>279.4</ele>
        <time>1970-01-01T01:00:30.000Z</time>
      </trkpt>
      <trkpt lat="43.29943" lon="6.54272">
        <ele>278.2</ele>
        <time>1970-01-01T01:00:31.000Z</time>
      </trkpt>
      <trkpt lat="43.29937" lon="6.54273">
        <ele>277</ele>
        <time>1970-01-01T01:00:32.000Z</time>
      </trkpt>
      <trkpt lat="43.29932" lon="6.54274">
        <ele>275.2</ele>
        <time>1970-01-01T01:00:33.000Z</time>
      </trkpt>
      <trkpt lat="43.29928" lon="6.54275">
        <ele>273.4</ele>
        <time>1970-01-01T01:00:34.000Z</time>
      </trkpt>
      <trkpt lat="43.29923" lon="6.54275">
        <ele>271.4</ele>
        <time>1970-01-01T01:00:35.000Z</time>
      </trkpt>
      <trkpt lat="43.29919" lon="6.54273">
        <ele>269.8</ele>
        <time>1970-01-01T01:00:36.000Z</time>
      </trkpt>
      <trkpt lat="43.29915" lon="6.54271">
        <ele>268.2</ele>
        <time>1970-01-01T01:00:37.000Z</time>
      </trkpt>
      <trkpt lat="43.29911" lon="6.5427">
        <ele>266.8</ele>
        <time>1970-01-01T01:00:38.000Z</time>
      </trkpt>
      <trkpt lat="43.29904" lon="6.54272">
        <ele>265.2</ele>
        <time>1970-01-01T01:00:40.000Z</time>
      </trkpt>
      <trkpt lat="43.29905" lon="6.54282">
        <ele>263.8</ele>
        <time>1970-01-01T01:00:43.000Z</time>
      </trkpt>
      <trkpt lat="43.29892" lon="6.54285">
        <ele>262.2</ele>
        <time>1970-01-01T01:00:48.000Z</time>
      </trkpt>
      <trkpt lat="43.29889" lon="6.54286">
        <ele>260.8</ele>
        <time>1970-01-01T01:00:49.000Z</time>
      </trkpt>
      <trkpt lat="43.29888" lon="6.54288">
        <ele>259.8</ele>
        <time>1970-01-01T01:00:50.000Z</time>
      </trkpt>
      <trkpt lat="43.29889" lon="6.54291">
        <ele>258.8</ele>
        <time>1970-01-01T01:00:51.000Z</time>
      </trkpt>
      <trkpt lat="43.2989" lon="6.54294">
        <ele>257.6</ele>
        <time>1970-01-01T01:00:52.000Z</time>
      </trkpt>
      <trkpt lat="43.29893" lon="6.54297">
        <ele>256.2</ele>
        <time>1970-01-01T01:00:53.000Z</time>
      </trkpt>
      <trkpt lat="43.299" lon="6.54303">
        <ele>254.2</ele>
        <time>1970-01-01T01:00:55.000Z</time>
      </trkpt>
      <trkpt lat="43.29908" lon="6.54311">
        <ele>252.4</ele>
        <time>1970-01-01T01:00:57.000Z</time>
      </trkpt>
      <trkpt lat="43.29911" lon="6.54315">
        <ele>251</ele>
        <time>1970-01-01T01:00:58.000Z</time>
      </trkpt>
      <trkpt lat="43.29904" lon="6.5433">
        <ele>250</ele>
        <time>1970-01-01T01:01:02.000Z</time>
      </trkpt>
      <trkpt lat="43.29896" lon="6.54345">
        <ele>249</ele>
        <time>1970-01-01T01:01:05.000Z</time>
      </trkpt>
      <trkpt lat="43.29885" lon="6.54363">
        <ele>248.4</ele>
        <time>1970-01-01T01:01:11.000Z</time>
      </trkpt>
      <trkpt lat="43.29884" lon="6.54372">
        <ele>248.4</ele>
        <time>1970-01-01T01:01:14.000Z</time>
      </trkpt>
      <trkpt lat="43.29879" lon="6.54401">
        <ele>250</ele>
        <time>1970-01-01T01:01:21.000Z</time>
      </trkpt>
      <trkpt lat="43.29877" lon="6.54426">
        <ele>251</ele>
        <time>1970-01-01T01:01:26.000Z</time>
      </trkpt>
      <trkpt lat="43.29882" lon="6.54501">
        <ele>251.2</ele>
        <time>1970-01-01T01:01:42.000Z</time>
      </trkpt>
      <trkpt lat="43.29892" lon="6.54568">
        <ele>251</ele>
        <time>1970-01-01T01:01:57.000Z</time>
      </trkpt>
      <trkpt lat="43.29902" lon="6.5459">
        <ele>251</ele>
        <time>1970-01-01T01:02:01.000Z</time>
      </trkpt>
      <trkpt lat="43.29909" lon="6.54602">
        <ele>250</ele>
        <time>1970-01-01T01:02:04.000Z</time>
      </trkpt>
      <trkpt lat="43.2991" lon="6.54608">
        <ele>248.6</ele>
        <time>1970-01-01T01:02:07.000Z</time>
      </trkpt>
      <trkpt lat="43.2991" lon="6.54609">
        <ele>248.6</ele>
        <time>1970-01-01T01:02:08.000Z</time>
      </trkpt>
      <trkpt lat="43.29909" lon="6.54615">
        <ele>244.4</ele>
        <time>1970-01-01T01:02:35.000Z</time>
      </trkpt>
      <trkpt lat="43.29909" lon="6.5463">
        <ele>244.4</ele>
        <time>1970-01-01T01:02:41.000Z</time>
      </trkpt>
      <trkpt lat="43.29914" lon="6.54636">
        <ele>239</ele>
        <time>1970-01-01T01:04:24.000Z</time>
      </trkpt>
      <trkpt lat="43.29921" lon="6.54645">
        <ele>238.8</ele>
        <time>1970-01-01T01:04:27.000Z</time>
      </trkpt>
      <trkpt lat="43.29914" lon="6.54652">
        <ele>238</ele>
        <time>1970-01-01T01:04:31.000Z</time>
      </trkpt>
      <trkpt lat="43.29912" lon="6.54654">
        <ele>237.6</ele>
        <time>1970-01-01T01:04:32.000Z</time>
      </trkpt>
      <trkpt lat="43.2991" lon="6.54656">
        <ele>236.6</ele>
        <time>1970-01-01T01:04:33.000Z</time>
      </trkpt>
      <trkpt lat="43.2991" lon="6.54659">
        <ele>235.8</ele>
        <time>1970-01-01T01:04:34.000Z</time>
      </trkpt>
      <trkpt lat="43.29911" lon="6.54661">
        <ele>234.8</ele>
        <time>1970-01-01T01:04:35.000Z</time>
      </trkpt>
      <trkpt lat="43.29909" lon="6.54667">
        <ele>232.8</ele>
        <time>1970-01-01T01:04:37.000Z</time>
      </trkpt>
      <trkpt lat="43.29904" lon="6.54671">
        <ele>230.8</ele>
        <time>1970-01-01T01:04:39.000Z</time>
      </trkpt>
      <trkpt lat="43.299" lon="6.54673">
        <ele>229.2</ele>
        <time>1970-01-01T01:04:40.000Z</time>
      </trkpt>
      <trkpt lat="43.29896" lon="6.54675">
        <ele>227.6</ele>
        <time>1970-01-01T01:04:41.000Z</time>
      </trkpt>
      <trkpt lat="43.29893" lon="6.54677">
        <ele>226.4</ele>
        <time>1970-01-01T01:04:42.000Z</time>
      </trkpt>
      <trkpt lat="43.29885" lon="6.54686">
        <ele>224.4</ele>
        <time>1970-01-01T01:04:44.000Z</time>
      </trkpt>
      <trkpt lat="43.2988" lon="6.5469">
        <ele>223.6</ele>
        <time>1970-01-01T01:04:45.000Z</time>
      </trkpt>
      <trkpt lat="43.29876" lon="6.54692">
        <ele>222.6</ele>
        <time>1970-01-01T01:04:46.000Z</time>
      </trkpt>
      <trkpt lat="43.29868" lon="6.54692">
        <ele>220.6</ele>
        <time>1970-01-01T01:04:48.000Z</time>
      </trkpt>
      <trkpt lat="43.29864" lon="6.54689">
        <ele>219.6</ele>
        <time>1970-01-01T01:04:49.000Z</time>
      </trkpt>
      <trkpt lat="43.29859" lon="6.54688">
        <ele>218.4</ele>
        <time>1970-01-01T01:04:50.000Z</time>
      </trkpt>
      <trkpt lat="43.29852" lon="6.54689">
        <ele>217</ele>
        <time>1970-01-01T01:04:51.000Z</time>
      </trkpt>
      <trkpt lat="43.29845" lon="6.54692">
        <ele>215.6</ele>
        <time>1970-01-01T01:04:52.000Z</time>
      </trkpt>
      <trkpt lat="43.29838" lon="6.54694">
        <ele>214.2</ele>
        <time>1970-01-01T01:04:53.000Z</time>
      </trkpt>
      <trkpt lat="43.29832" lon="6.54696">
        <ele>212.4</ele>
        <time>1970-01-01T01:04:54.000Z</time>
      </trkpt>
      <trkpt lat="43.29829" lon="6.54696">
        <ele>210.6</ele>
        <time>1970-01-01T01:04:55.000Z</time>
      </trkpt>
      <trkpt lat="43.29828" lon="6.54696">
        <ele>209.2</ele>
        <time>1970-01-01T01:04:56.000Z</time>
      </trkpt>
      <trkpt lat="43.29827" lon="6.54696">
        <ele>208.2</ele>
        <time>1970-01-01T01:04:57.000Z</time>
      </trkpt>
      <trkpt lat="43.29819" lon="6.547">
        <ele>196.2</ele>
        <time>1970-01-01T01:05:08.000Z</time>
      </trkpt>
      <trkpt lat="43.29797" lon="6.5471">
        <ele>196</ele>
        <time>1970-01-01T01:05:12.000Z</time>
      </trkpt>
      <trkpt lat="43.29779" lon="6.54725">
        <ele>195</ele>
        <time>1970-01-01T01:05:16.000Z</time>
      </trkpt>
      <trkpt lat="43.29772" lon="6.54726">
        <ele>193.8</ele>
        <time>1970-01-01T01:05:17.000Z</time>
      </trkpt>
      <trkpt lat="43.29765" lon="6.54726">
        <ele>193.2</ele>
        <time>1970-01-01T01:05:18.000Z</time>
      </trkpt>
      <trkpt lat="43.29759" lon="6.54726">
        <ele>192.8</ele>
        <time>1970-01-01T01:05:19.000Z</time>
      </trkpt>
      <trkpt lat="43.2974" lon="6.54724">
        <ele>190.8</ele>
        <time>1970-01-01T01:05:23.000Z</time>
      </trkpt>
      <trkpt lat="43.29733" lon="6.54721">
        <ele>189.8</ele>
        <time>1970-01-01T01:05:25.000Z</time>
      </trkpt>
      <trkpt lat="43.29725" lon="6.54719">
        <ele>189.4</ele>
        <time>1970-01-01T01:05:28.000Z</time>
      </trkpt>
      <trkpt lat="43.29677" lon="6.54737">
        <ele>190</ele>
        <time>1970-01-01T01:05:42.000Z</time>
      </trkpt>
      <trkpt lat="43.29658" lon="6.54721">
        <ele>188.4</ele>
        <time>1970-01-01T01:05:46.000Z</time>
      </trkpt>
      <trkpt lat="43.29645" lon="6.54721">
        <ele>187.2</ele>
        <time>1970-01-01T01:05:48.000Z</time>
      </trkpt>
      <trkpt lat="43.29638" lon="6.54722">
        <ele>186.6</ele>
        <time>1970-01-01T01:05:49.000Z</time>
      </trkpt>
      <trkpt lat="43.29631" lon="6.54723">
        <ele>186</ele>
        <time>1970-01-01T01:05:50.000Z</time>
      </trkpt>
      <trkpt lat="43.29625" lon="6.54723">
        <ele>185</ele>
        <time>1970-01-01T01:05:51.000Z</time>
      </trkpt>
      <trkpt lat="43.29618" lon="6.54722">
        <ele>183.8</ele>
        <time>1970-01-01T01:05:52.000Z</time>
      </trkpt>
      <trkpt lat="43.29613" lon="6.54723">
        <ele>182.2</ele>
        <time>1970-01-01T01:05:53.000Z</time>
      </trkpt>
      <trkpt lat="43.29608" lon="6.54725">
        <ele>180.8</ele>
        <time>1970-01-01T01:05:54.000Z</time>
      </trkpt>
      <trkpt lat="43.29604" lon="6.54727">
        <ele>179.6</ele>
        <time>1970-01-01T01:05:55.000Z</time>
      </trkpt>
      <trkpt lat="43.29601" lon="6.54732">
        <ele>178</ele>
        <time>1970-01-01T01:05:56.000Z</time>
      </trkpt>
      <trkpt lat="43.29598" lon="6.54738">
        <ele>176.4</ele>
        <time>1970-01-01T01:05:57.000Z</time>
      </trkpt>
      <trkpt lat="43.29594" lon="6.54744">
        <ele>175</ele>
        <time>1970-01-01T01:05:58.000Z</time>
      </trkpt>
      <trkpt lat="43.2959" lon="6.5475">
        <ele>173.6</ele>
        <time>1970-01-01T01:05:59.000Z</time>
      </trkpt>
      <trkpt lat="43.29586" lon="6.54757">
        <ele>172.2</ele>
        <time>1970-01-01T01:06:00.000Z</time>
      </trkpt>
      <trkpt lat="43.29583" lon="6.54762">
        <ele>171</ele>
        <time>1970-01-01T01:06:01.000Z</time>
      </trkpt>
      <trkpt lat="43.29578" lon="6.54773">
        <ele>169</ele>
        <time>1970-01-01T01:06:03.000Z</time>
      </trkpt>
      <trkpt lat="43.29572" lon="6.54783">
        <ele>167.4</ele>
        <time>1970-01-01T01:06:05.000Z</time>
      </trkpt>
      <trkpt lat="43.29564" lon="6.54791">
        <ele>165.6</ele>
        <time>1970-01-01T01:06:07.000Z</time>
      </trkpt>
      <trkpt lat="43.29559" lon="6.54787">
        <ele>164.4</ele>
        <time>1970-01-01T01:06:09.000Z</time>
      </trkpt>
      <trkpt lat="43.29556" lon="6.54773">
        <ele>163.2</ele>
        <time>1970-01-01T01:06:13.000Z</time>
      </trkpt>
      <trkpt lat="43.29553" lon="6.54762">
        <ele>161.8</ele>
        <time>1970-01-01T01:06:15.000Z</time>
      </trkpt>
      <trkpt lat="43.29551" lon="6.54756">
        <ele>160.2</ele>
        <time>1970-01-01T01:06:16.000Z</time>
      </trkpt>
      <trkpt lat="43.29549" lon="6.54751">
        <ele>158.8</ele>
        <time>1970-01-01T01:06:17.000Z</time>
      </trkpt>
      <trkpt lat="43.29547" lon="6.54749">
        <ele>157.6</ele>
        <time>1970-01-01T01:06:18.000Z</time>
      </trkpt>
      <trkpt lat="43.29544" lon="6.54748">
        <ele>156.2</ele>
        <time>1970-01-01T01:06:19.000Z</time>
      </trkpt>
      <trkpt lat="43.29541" lon="6.54749">
        <ele>154.8</ele>
        <time>1970-01-01T01:06:20.000Z</time>
      </trkpt>
      <trkpt lat="43.29539" lon="6.54752">
        <ele>153.8</ele>
        <time>1970-01-01T01:06:21.000Z</time>
      </trkpt>
      <trkpt lat="43.29536" lon="6.54755">
        <ele>151.8</ele>
        <time>1970-01-01T01:06:22.000Z</time>
      </trkpt>
      <trkpt lat="43.29533" lon="6.54758">
        <ele>149.8</ele>
        <time>1970-01-01T01:06:23.000Z</time>
      </trkpt>
      <trkpt lat="43.2953" lon="6.54762">
        <ele>148.2</ele>
        <time>1970-01-01T01:06:24.000Z</time>
      </trkpt>
      <trkpt lat="43.29526" lon="6.54767">
        <ele>147.2</ele>
        <time>1970-01-01T01:06:25.000Z</time>
      </trkpt>
      <trkpt lat="43.29523" lon="6.54771">
        <ele>146.6</ele>
        <time>1970-01-01T01:06:26.000Z</time>
      </trkpt>
      <trkpt lat="43.2952" lon="6.54773">
        <ele>146.2</ele>
        <time>1970-01-01T01:06:27.000Z</time>
      </trkpt>
      <trkpt lat="43.29514" lon="6.54779">
        <ele>144.8</ele>
        <time>1970-01-01T01:06:29.000Z</time>
      </trkpt>
      <trkpt lat="43.2951" lon="6.54781">
        <ele>143.4</ele>
        <time>1970-01-01T01:06:30.000Z</time>
      </trkpt>
      <trkpt lat="43.29503" lon="6.54782">
        <ele>141.8</ele>
        <time>1970-01-01T01:06:32.000Z</time>
      </trkpt>
      <trkpt lat="43.29494" lon="6.54784">
        <ele>141.2</ele>
        <time>1970-01-01T01:06:34.000Z</time>
      </trkpt>
      <trkpt lat="43.29483" lon="6.548">
        <ele>140.8</ele>
        <time>1970-01-01T01:06:37.000Z</time>
      </trkpt>
      <trkpt lat="43.29477" lon="6.54806">
        <ele>140.4</ele>
        <time>1970-01-01T01:06:39.000Z</time>
      </trkpt>
      <trkpt lat="43.29468" lon="6.54809">
        <ele>139.2</ele>
        <time>1970-01-01T01:06:41.000Z</time>
      </trkpt>
      <trkpt lat="43.29462" lon="6.54813">
        <ele>138</ele>
        <time>1970-01-01T01:06:42.000Z</time>
      </trkpt>
      <trkpt lat="43.29457" lon="6.54818">
        <ele>136.8</ele>
        <time>1970-01-01T01:06:43.000Z</time>
      </trkpt>
      <trkpt lat="43.29452" lon="6.54823">
        <ele>135.4</ele>
        <time>1970-01-01T01:06:44.000Z</time>
      </trkpt>
      <trkpt lat="43.29447" lon="6.54836">
        <ele>133.6</ele>
        <time>1970-01-01T01:06:46.000Z</time>
      </trkpt>
      <trkpt lat="43.29446" lon="6.54841">
        <ele>132.2</ele>
        <time>1970-01-01T01:06:47.000Z</time>
      </trkpt>
      <trkpt lat="43.29445" lon="6.54846">
        <ele>130.8</ele>
        <time>1970-01-01T01:06:48.000Z</time>
      </trkpt>
      <trkpt lat="43.29444" lon="6.54851">
        <ele>129.8</ele>
        <time>1970-01-01T01:06:49.000Z</time>
      </trkpt>
      <trkpt lat="43.29442" lon="6.54859">
        <ele>128</ele>
        <time>1970-01-01T01:06:51.000Z</time>
      </trkpt>
      <trkpt lat="43.29441" lon="6.54868">
        <ele>126.6</ele>
        <time>1970-01-01T01:06:53.000Z</time>
      </trkpt>
      <trkpt lat="43.29437" lon="6.54892">
        <ele>125.8</ele>
        <time>1970-01-01T01:06:58.000Z</time>
      </trkpt>
      <trkpt lat="43.29438" lon="6.54915">
        <ele>125.4</ele>
        <time>1970-01-01T01:07:01.000Z</time>
      </trkpt>
      <trkpt lat="43.29437" lon="6.54945">
        <ele>124.2</ele>
        <time>1970-01-01T01:07:07.000Z</time>
      </trkpt>
      <trkpt lat="43.29435" lon="6.54963">
        <ele>123</ele>
        <time>1970-01-01T01:07:11.000Z</time>
      </trkpt>
      <trkpt lat="43.29433" lon="6.54966">
        <ele>123</ele>
        <time>1970-01-01T01:07:12.000Z</time>
      </trkpt>
      <trkpt lat="43.29418" lon="6.54975">
        <ele>122</ele>
        <time>1970-01-01T01:07:17.000Z</time>
      </trkpt>
      <trkpt lat="43.29413" lon="6.54987">
        <ele>121.4</ele>
        <time>1970-01-01T01:07:19.000Z</time>
      </trkpt>
      <trkpt lat="43.29405" lon="6.55004">
        <ele>120.2</ele>
        <time>1970-01-01T01:07:22.000Z</time>
      </trkpt>
      <trkpt lat="43.294" lon="6.55011">
        <ele>118</ele>
        <time>1970-01-01T01:07:24.000Z</time>
      </trkpt>
      <trkpt lat="43.29394" lon="6.55008">
        <ele>116.6</ele>
        <time>1970-01-01T01:07:26.000Z</time>
      </trkpt>
      <trkpt lat="43.29381" lon="6.55">
        <ele>115.6</ele>
        <time>1970-01-01T01:07:29.000Z</time>
      </trkpt>
      <trkpt lat="43.29367" lon="6.54994">
        <ele>114.2</ele>
        <time>1970-01-01T01:07:33.000Z</time>
      </trkpt>
      <trkpt lat="43.29362" lon="6.54995">
        <ele>112.6</ele>
        <time>1970-01-01T01:07:35.000Z</time>
      </trkpt>
      <trkpt lat="43.29359" lon="6.54996">
        <ele>111.6</ele>
        <time>1970-01-01T01:07:36.000Z</time>
      </trkpt>
      <trkpt lat="43.29355" lon="6.54996">
        <ele>110</ele>
        <time>1970-01-01T01:07:38.000Z</time>
      </trkpt>
      <trkpt lat="43.29352" lon="6.54995">
        <ele>109</ele>
        <time>1970-01-01T01:07:39.000Z</time>
      </trkpt>
      <trkpt lat="43.2935" lon="6.54994">
        <ele>107.4</ele>
        <time>1970-01-01T01:07:40.000Z</time>
      </trkpt>
      <trkpt lat="43.29349" lon="6.54993">
        <ele>105.6</ele>
        <time>1970-01-01T01:07:41.000Z</time>
      </trkpt>
      <trkpt lat="43.29344" lon="6.54993">
        <ele>104.2</ele>
        <time>1970-01-01T01:07:43.000Z</time>
      </trkpt>
      <trkpt lat="43.29343" lon="6.54992">
        <ele>104</ele>
        <time>1970-01-01T01:07:44.000Z</time>
      </trkpt>
      <trkpt lat="43.29335" lon="6.54983">
        <ele>103.6</ele>
        <time>1970-01-01T01:07:48.000Z</time>
      </trkpt>
      <trkpt lat="43.29322" lon="6.54972">
        <ele>103.8</ele>
        <time>1970-01-01T01:07:52.000Z</time>
      </trkpt>
      <trkpt lat="43.29289" lon="6.54975">
        <ele>103.8</ele>
        <time>1970-01-01T01:07:59.000Z</time>
      </trkpt>
      <trkpt lat="43.29277" lon="6.5498">
        <ele>103.6</ele>
        <time>1970-01-01T01:08:02.000Z</time>
      </trkpt>
      <trkpt lat="43.29269" lon="6.54984">
        <ele>102.8</ele>
        <time>1970-01-01T01:08:04.000Z</time>
      </trkpt>
      <trkpt lat="43.29257" lon="6.54986">
        <ele>102.2</ele>
        <time>1970-01-01T01:08:06.000Z</time>
      </trkpt>
      <trkpt lat="43.29252" lon="6.54985">
        <ele>102.2</ele>
        <time>1970-01-01T01:08:07.000Z</time>
      </trkpt>
      <trkpt lat="43.29248" lon="6.54984">
        <ele>101.8</ele>
        <time>1970-01-01T01:08:08.000Z</time>
      </trkpt>
      <trkpt lat="43.2924" lon="6.54981">
        <ele>100.6</ele>
        <time>1970-01-01T01:08:10.000Z</time>
      </trkpt>
      <trkpt lat="43.29235" lon="6.54982">
        <ele>99.2</ele>
        <time>1970-01-01T01:08:12.000Z</time>
      </trkpt>
      <trkpt lat="43.29232" lon="6.54983">
        <ele>98.8</ele>
        <time>1970-01-01T01:08:13.000Z</time>
      </trkpt>
      <trkpt lat="43.29211" lon="6.54987">
        <ele>98</ele>
        <time>1970-01-01T01:08:21.000Z</time>
      </trkpt>
      <trkpt lat="43.29203" lon="6.54994">
        <ele>98</ele>
        <time>1970-01-01T01:08:23.000Z</time>
      </trkpt>
      <trkpt lat="43.29197" lon="6.54996">
        <ele>98</ele>
        <time>1970-01-01T01:08:24.000Z</time>
      </trkpt>
      <trkpt lat="43.29179" lon="6.55">
        <ele>98</ele>
        <time>1970-01-01T01:08:28.000Z</time>
      </trkpt>
      <trkpt lat="43.29167" lon="6.55011">
        <ele>97</ele>
        <time>1970-01-01T01:08:34.000Z</time>
      </trkpt>
      <trkpt lat="43.2916" lon="6.55019">
        <ele>96.4</ele>
        <time>1970-01-01T01:08:38.000Z</time>
      </trkpt>
      <trkpt lat="43.29158" lon="6.55021">
        <ele>96.2</ele>
        <time>1970-01-01T01:08:39.000Z</time>
      </trkpt>
      <trkpt lat="43.29156" lon="6.55024">
        <ele>96</ele>
        <time>1970-01-01T01:08:40.000Z</time>
      </trkpt>
      <trkpt lat="43.29157" lon="6.55036">
        <ele>95</ele>
        <time>1970-01-01T01:08:44.000Z</time>
      </trkpt>
      <trkpt lat="43.29163" lon="6.55042">
        <ele>93.6</ele>
        <time>1970-01-01T01:08:47.000Z</time>
      </trkpt>
      <trkpt lat="43.29165" lon="6.55045">
        <ele>92.4</ele>
        <time>1970-01-01T01:08:48.000Z</time>
      </trkpt>
      <trkpt lat="43.29168" lon="6.5505">
        <ele>91</ele>
        <time>1970-01-01T01:08:50.000Z</time>
      </trkpt>
      <trkpt lat="43.29168" lon="6.55111">
        <ele>92.2</ele>
        <time>1970-01-01T01:09:11.000Z</time>
      </trkpt>
      <trkpt lat="43.2916" lon="6.55138">
        <ele>93.2</ele>
        <time>1970-01-01T01:09:21.000Z</time>
      </trkpt>
      <trkpt lat="43.29146" lon="6.55179">
        <ele>94.4</ele>
        <time>1970-01-01T01:09:33.000Z</time>
      </trkpt>
      <trkpt lat="43.29135" lon="6.5521">
        <ele>95.6</ele>
        <time>1970-01-01T01:09:42.000Z</time>
      </trkpt>
      <trkpt lat="43.29131" lon="6.55243">
        <ele>96.8</ele>
        <time>1970-01-01T01:09:51.000Z</time>
      </trkpt>
      <trkpt lat="43.29133" lon="6.55269">
        <ele>98</ele>
        <time>1970-01-01T01:09:59.000Z</time>
      </trkpt>
      <trkpt lat="43.29137" lon="6.55294">
        <ele>99.2</ele>
        <time>1970-01-01T01:10:07.000Z</time>
      </trkpt>
      <trkpt lat="43.29142" lon="6.5531">
        <ele>100.2</ele>
        <time>1970-01-01T01:10:12.000Z</time>
      </trkpt>
      <trkpt lat="43.29147" lon="6.55325">
        <ele>101.4</ele>
        <time>1970-01-01T01:10:17.000Z</time>
      </trkpt>
      <trkpt lat="43.29149" lon="6.55365">
        <ele>102.6</ele>
        <time>1970-01-01T01:10:28.000Z</time>
      </trkpt>
      <trkpt lat="43.29137" lon="6.55382">
        <ele>104</ele>
        <time>1970-01-01T01:10:35.000Z</time>
      </trkpt>
      <trkpt lat="43.29124" lon="6.55404">
        <ele>105</ele>
        <time>1970-01-01T01:10:43.000Z</time>
      </trkpt>
      <trkpt lat="43.29119" lon="6.55426">
        <ele>106.4</ele>
        <time>1970-01-01T01:10:50.000Z</time>
      </trkpt>
      <trkpt lat="43.2912" lon="6.55449">
        <ele>107.4</ele>
        <time>1970-01-01T01:10:57.000Z</time>
      </trkpt>
      <trkpt lat="43.29125" lon="6.55464">
        <ele>108.6</ele>
        <time>1970-01-01T01:11:02.000Z</time>
      </trkpt>
      <trkpt lat="43.29132" lon="6.5548">
        <ele>109.8</ele>
        <time>1970-01-01T01:11:08.000Z</time>
      </trkpt>
      <trkpt lat="43.29143" lon="6.555">
        <ele>111</ele>
        <time>1970-01-01T01:11:15.000Z</time>
      </trkpt>
      <trkpt lat="43.29154" lon="6.55518">
        <ele>112.4</ele>
        <time>1970-01-01T01:11:22.000Z</time>
      </trkpt>
      <trkpt lat="43.29163" lon="6.55534">
        <ele>113.4</ele>
        <time>1970-01-01T01:11:28.000Z</time>
      </trkpt>
      <trkpt lat="43.29173" lon="6.55552">
        <ele>114.6</ele>
        <time>1970-01-01T01:11:35.000Z</time>
      </trkpt>
      <trkpt lat="43.29185" lon="6.55574">
        <ele>115.6</ele>
        <time>1970-01-01T01:11:43.000Z</time>
      </trkpt>
      <trkpt lat="43.29198" lon="6.55595">
        <ele>117</ele>
        <time>1970-01-01T01:11:51.000Z</time>
      </trkpt>
      <trkpt lat="43.29211" lon="6.55613">
        <ele>118</ele>
        <time>1970-01-01T01:11:58.000Z</time>
      </trkpt>
      <trkpt lat="43.29223" lon="6.55632">
        <ele>119.2</ele>
        <time>1970-01-01T01:12:06.000Z</time>
      </trkpt>
      <trkpt lat="43.29235" lon="6.55649">
        <ele>120.6</ele>
        <time>1970-01-01T01:12:13.000Z</time>
      </trkpt>
      <trkpt lat="43.29257" lon="6.55663">
        <ele>121.4</ele>
        <time>1970-01-01T01:12:22.000Z</time>
      </trkpt>
      <trkpt lat="43.29261" lon="6.55654">
        <ele>121.6</ele>
        <time>1970-01-01T01:12:25.000Z</time>
      </trkpt>
      <trkpt lat="43.2927" lon="6.55645">
        <ele>121.6</ele>
        <time>1970-01-01T01:12:31.000Z</time>
      </trkpt>
      <trkpt lat="43.29274" lon="6.5564">
        <ele>121.8</ele>
        <time>1970-01-01T01:12:50.000Z</time>
      </trkpt>
      <trkpt lat="43.29276" lon="6.55634">
        <ele>122</ele>
        <time>1970-01-01T01:12:54.000Z</time>
      </trkpt>
      <trkpt lat="43.29279" lon="6.55626">
        <ele>122.2</ele>
        <time>1970-01-01T01:12:57.000Z</time>
      </trkpt>
      <trkpt lat="43.29278" lon="6.5561">
        <ele>122.6</ele>
        <time>1970-01-01T01:13:03.000Z</time>
      </trkpt>
      <trkpt lat="43.29264" lon="6.55592">
        <ele>122.6</ele>
        <time>1970-01-01T01:13:09.000Z</time>
      </trkpt>
      <trkpt lat="43.29268" lon="6.55563">
        <ele>123</ele>
        <time>1970-01-01T01:13:21.000Z</time>
      </trkpt>
      <trkpt lat="43.2927" lon="6.55558">
        <ele>123.8</ele>
        <time>1970-01-01T01:13:24.000Z</time>
      </trkpt>
      <trkpt lat="43.2927" lon="6.55556">
        <ele>124.2</ele>
        <time>1970-01-01T01:13:25.000Z</time>
      </trkpt>
      <trkpt lat="43.29269" lon="6.55553">
        <ele>125.4</ele>
        <time>1970-01-01T01:13:27.000Z</time>
      </trkpt>
      <trkpt lat="43.29268" lon="6.5555">
        <ele>126.6</ele>
        <time>1970-01-01T01:13:29.000Z</time>
      </trkpt>
      <trkpt lat="43.29266" lon="6.55547">
        <ele>127.8</ele>
        <time>1970-01-01T01:13:31.000Z</time>
      </trkpt>
      <trkpt lat="43.29265" lon="6.55542">
        <ele>128.8</ele>
        <time>1970-01-01T01:13:34.000Z</time>
      </trkpt>
      <trkpt lat="43.29267" lon="6.55529">
        <ele>130.4</ele>
        <time>1970-01-01T01:13:41.000Z</time>
      </trkpt>
      <trkpt lat="43.29268" lon="6.55524">
        <ele>131.4</ele>
        <time>1970-01-01T01:13:44.000Z</time>
      </trkpt>
      <trkpt lat="43.29267" lon="6.55518">
        <ele>132.8</ele>
        <time>1970-01-01T01:13:48.000Z</time>
      </trkpt>
      <trkpt lat="43.29267" lon="6.55516">
        <ele>133.8</ele>
        <time>1970-01-01T01:13:50.000Z</time>
      </trkpt>
      <trkpt lat="43.29283" lon="6.55472">
        <ele>142.8</ele>
        <time>1970-01-01T01:14:19.000Z</time>
      </trkpt>
      <trkpt lat="43.29288" lon="6.55467">
        <ele>144</ele>
        <time>1970-01-01T01:14:24.000Z</time>
      </trkpt>
      <trkpt lat="43.29297" lon="6.55461">
        <ele>144.8</ele>
        <time>1970-01-01T01:14:31.000Z</time>
      </trkpt>
      <trkpt lat="43.29299" lon="6.55461">
        <ele>144.8</ele>
        <time>1970-01-01T01:14:32.000Z</time>
      </trkpt>
      <trkpt lat="43.29313" lon="6.55458">
        <ele>146</ele>
        <time>1970-01-01T01:14:41.000Z</time>
      </trkpt>
      <trkpt lat="43.29322" lon="6.55464">
        <ele>147.2</ele>
        <time>1970-01-01T01:14:47.000Z</time>
      </trkpt>
      <trkpt lat="43.29329" lon="6.55467">
        <ele>148.4</ele>
        <time>1970-01-01T01:14:52.000Z</time>
      </trkpt>
      <trkpt lat="43.29337" lon="6.55464">
        <ele>149.4</ele>
        <time>1970-01-01T01:14:57.000Z</time>
      </trkpt>
      <trkpt lat="43.29345" lon="6.55464">
        <ele>150.6</ele>
        <time>1970-01-01T01:15:02.000Z</time>
      </trkpt>
      <trkpt lat="43.29351" lon="6.55468">
        <ele>151.8</ele>
        <time>1970-01-01T01:15:07.000Z</time>
      </trkpt>
      <trkpt lat="43.29357" lon="6.55471">
        <ele>152.8</ele>
        <time>1970-01-01T01:15:12.000Z</time>
      </trkpt>
      <trkpt lat="43.29363" lon="6.55474">
        <ele>154.2</ele>
        <time>1970-01-01T01:15:17.000Z</time>
      </trkpt>
      <trkpt lat="43.2937" lon="6.55477">
        <ele>155.2</ele>
        <time>1970-01-01T01:15:22.000Z</time>
      </trkpt>
      <trkpt lat="43.29376" lon="6.5548">
        <ele>156.2</ele>
        <time>1970-01-01T01:15:26.000Z</time>
      </trkpt>
      <trkpt lat="43.29386" lon="6.55483">
        <ele>157.4</ele>
        <time>1970-01-01T01:15:32.000Z</time>
      </trkpt>
      <trkpt lat="43.29395" lon="6.55485">
        <ele>158.8</ele>
        <time>1970-01-01T01:15:38.000Z</time>
      </trkpt>
      <trkpt lat="43.29399" lon="6.55485">
        <ele>159.8</ele>
        <time>1970-01-01T01:15:41.000Z</time>
      </trkpt>
      <trkpt lat="43.29407" lon="6.55484">
        <ele>160.8</ele>
        <time>1970-01-01T01:15:46.000Z</time>
      </trkpt>
      <trkpt lat="43.29414" lon="6.55485">
        <ele>161.8</ele>
        <time>1970-01-01T01:15:50.000Z</time>
      </trkpt>
      <trkpt lat="43.29424" lon="6.55484">
        <ele>163</ele>
        <time>1970-01-01T01:15:56.000Z</time>
      </trkpt>
      <trkpt lat="43.29429" lon="6.55483">
        <ele>164</ele>
        <time>1970-01-01T01:16:00.000Z</time>
      </trkpt>
      <trkpt lat="43.29435" lon="6.55481">
        <ele>165.2</ele>
        <time>1970-01-01T01:16:04.000Z</time>
      </trkpt>
      <trkpt lat="43.29444" lon="6.55481">
        <ele>166.4</ele>
        <time>1970-01-01T01:16:09.000Z</time>
      </trkpt>
      <trkpt lat="43.2945" lon="6.55479">
        <ele>167.4</ele>
        <time>1970-01-01T01:16:13.000Z</time>
      </trkpt>
      <trkpt lat="43.2946" lon="6.55477">
        <ele>168.6</ele>
        <time>1970-01-01T01:16:19.000Z</time>
      </trkpt>
      <trkpt lat="43.29472" lon="6.55474">
        <ele>169.6</ele>
        <time>1970-01-01T01:16:26.000Z</time>
      </trkpt>
      <trkpt lat="43.29482" lon="6.55465">
        <ele>170.6</ele>
        <time>1970-01-01T01:16:33.000Z</time>
      </trkpt>
      <trkpt lat="43.29489" lon="6.55455">
        <ele>171.8</ele>
        <time>1970-01-01T01:16:39.000Z</time>
      </trkpt>
      <trkpt lat="43.29493" lon="6.55448">
        <ele>173</ele>
        <time>1970-01-01T01:16:43.000Z</time>
      </trkpt>
      <trkpt lat="43.29497" lon="6.5544">
        <ele>174</ele>
        <time>1970-01-01T01:16:48.000Z</time>
      </trkpt>
      <trkpt lat="43.29501" lon="6.55433">
        <ele>175.4</ele>
        <time>1970-01-01T01:16:52.000Z</time>
      </trkpt>
      <trkpt lat="43.29502" lon="6.5543">
        <ele>176.4</ele>
        <time>1970-01-01T01:16:54.000Z</time>
      </trkpt>
      <trkpt lat="43.29506" lon="6.55425">
        <ele>177.4</ele>
        <time>1970-01-01T01:16:58.000Z</time>
      </trkpt>
      <trkpt lat="43.29508" lon="6.55419">
        <ele>178</ele>
        <time>1970-01-01T01:17:01.000Z</time>
      </trkpt>
      <trkpt lat="43.29511" lon="6.55411">
        <ele>178.6</ele>
        <time>1970-01-01T01:17:05.000Z</time>
      </trkpt>
      <trkpt lat="43.29515" lon="6.55401">
        <ele>179.8</ele>
        <time>1970-01-01T01:17:10.000Z</time>
      </trkpt>
      <trkpt lat="43.29519" lon="6.55392">
        <ele>180.8</ele>
        <time>1970-01-01T01:17:15.000Z</time>
      </trkpt>
      <trkpt lat="43.29523" lon="6.55384">
        <ele>182</ele>
        <time>1970-01-01T01:17:19.000Z</time>
      </trkpt>
      <trkpt lat="43.29526" lon="6.55377">
        <ele>183.4</ele>
        <time>1970-01-01T01:17:23.000Z</time>
      </trkpt>
      <trkpt lat="43.29529" lon="6.55358">
        <ele>184.4</ele>
        <time>1970-01-01T01:17:30.000Z</time>
      </trkpt>
      <trkpt lat="43.29532" lon="6.5534">
        <ele>185.6</ele>
        <time>1970-01-01T01:17:37.000Z</time>
      </trkpt>
      <trkpt lat="43.29535" lon="6.55321">
        <ele>186.6</ele>
        <time>1970-01-01T01:17:44.000Z</time>
      </trkpt>
      <trkpt lat="43.29535" lon="6.55304">
        <ele>187.8</ele>
        <time>1970-01-01T01:17:51.000Z</time>
      </trkpt>
      <trkpt lat="43.29536" lon="6.55285">
        <ele>189</ele>
        <time>1970-01-01T01:18:00.000Z</time>
      </trkpt>
      <trkpt lat="43.29554" lon="6.55236">
        <ele>188</ele>
        <time>1970-01-01T01:18:12.000Z</time>
      </trkpt>
      <trkpt lat="43.29556" lon="6.55231">
        <ele>187.6</ele>
        <time>1970-01-01T01:18:13.000Z</time>
      </trkpt>
      <trkpt lat="43.29562" lon="6.55215">
        <ele>186.6</ele>
        <time>1970-01-01T01:18:16.000Z</time>
      </trkpt>
      <trkpt lat="43.29564" lon="6.55209">
        <ele>186.2</ele>
        <time>1970-01-01T01:18:17.000Z</time>
      </trkpt>
      <trkpt lat="43.29568" lon="6.55189">
        <ele>185.4</ele>
        <time>1970-01-01T01:18:20.000Z</time>
      </trkpt>
      <trkpt lat="43.29572" lon="6.55171">
        <ele>184.4</ele>
        <time>1970-01-01T01:18:23.000Z</time>
      </trkpt>
      <trkpt lat="43.29575" lon="6.55156">
        <ele>183.4</ele>
        <time>1970-01-01T01:18:26.000Z</time>
      </trkpt>
      <trkpt lat="43.29587" lon="6.55084">
        <ele>183</ele>
        <time>1970-01-01T01:18:41.000Z</time>
      </trkpt>
      <trkpt lat="43.29588" lon="6.55078">
        <ele>183</ele>
        <time>1970-01-01T01:18:43.000Z</time>
      </trkpt>
      <trkpt lat="43.29593" lon="6.55042">
        <ele>184.4</ele>
        <time>1970-01-01T01:18:54.000Z</time>
      </trkpt>
      <trkpt lat="43.29597" lon="6.5503">
        <ele>185.8</ele>
        <time>1970-01-01T01:18:59.000Z</time>
      </trkpt>
      <trkpt lat="43.29599" lon="6.55025">
        <ele>186.8</ele>
        <time>1970-01-01T01:19:01.000Z</time>
      </trkpt>
      <trkpt lat="43.29602" lon="6.55017">
        <ele>188</ele>
        <time>1970-01-01T01:19:04.000Z</time>
      </trkpt>
      <trkpt lat="43.29603" lon="6.55">
        <ele>189.2</ele>
        <time>1970-01-01T01:19:10.000Z</time>
      </trkpt>
      <trkpt lat="43.29613" lon="6.54977">
        <ele>190.2</ele>
        <time>1970-01-01T01:19:19.000Z</time>
      </trkpt>
      <trkpt lat="43.29624" lon="6.54937">
        <ele>191.2</ele>
        <time>1970-01-01T01:19:31.000Z</time>
      </trkpt>
      <trkpt lat="43.29627" lon="6.54904">
        <ele>192.4</ele>
        <time>1970-01-01T01:19:41.000Z</time>
      </trkpt>
      <trkpt lat="43.29631" lon="6.54885">
        <ele>193.6</ele>
        <time>1970-01-01T01:19:47.000Z</time>
      </trkpt>
      <trkpt lat="43.29639" lon="6.54869">
        <ele>194.8</ele>
        <time>1970-01-01T01:19:53.000Z</time>
      </trkpt>
      <trkpt lat="43.29647" lon="6.54855">
        <ele>195.8</ele>
        <time>1970-01-01T01:19:59.000Z</time>
      </trkpt>
      <trkpt lat="43.29662" lon="6.54828">
        <ele>196.8</ele>
        <time>1970-01-01T01:20:09.000Z</time>
      </trkpt>
      <trkpt lat="43.29682" lon="6.54803">
        <ele>198</ele>
        <time>1970-01-01T01:20:19.000Z</time>
      </trkpt>
      <trkpt lat="43.29705" lon="6.54749">
        <ele>198</ele>
        <time>1970-01-01T01:20:26.000Z</time>
      </trkpt>
      <trkpt lat="43.29712" lon="6.54728">
        <ele>197.2</ele>
        <time>1970-01-01T01:20:28.000Z</time>
      </trkpt>
      <trkpt lat="43.29728" lon="6.54705">
        <ele>195.8</ele>
        <time>1970-01-01T01:20:31.000Z</time>
      </trkpt>
      <trkpt lat="43.29732" lon="6.547">
        <ele>195</ele>
        <time>1970-01-01T01:20:32.000Z</time>
      </trkpt>
      <trkpt lat="43.29736" lon="6.54697">
        <ele>194.4</ele>
        <time>1970-01-01T01:20:33.000Z</time>
      </trkpt>
      <trkpt lat="43.29741" lon="6.54696">
        <ele>193.2</ele>
        <time>1970-01-01T01:20:35.000Z</time>
      </trkpt>
      <trkpt lat="43.29747" lon="6.54694">
        <ele>193</ele>
        <time>1970-01-01T01:20:39.000Z</time>
      </trkpt>
      <trkpt lat="43.29768" lon="6.54692">
        <ele>194.2</ele>
        <time>1970-01-01T01:20:50.000Z</time>
      </trkpt>
      <trkpt lat="43.29777" lon="6.54694">
        <ele>195.4</ele>
        <time>1970-01-01T01:20:55.000Z</time>
      </trkpt>
      <trkpt lat="43.29784" lon="6.54692">
        <ele>196.4</ele>
        <time>1970-01-01T01:20:59.000Z</time>
      </trkpt>
      <trkpt lat="43.29791" lon="6.54687">
        <ele>197.4</ele>
        <time>1970-01-01T01:21:03.000Z</time>
      </trkpt>
      <trkpt lat="43.29831" lon="6.54725">
        <ele>197.2</ele>
        <time>1970-01-01T01:21:21.000Z</time>
      </trkpt>
      <trkpt lat="43.29864" lon="6.54753">
        <ele>198.6</ele>
        <time>1970-01-01T01:21:38.000Z</time>
      </trkpt>
      <trkpt lat="43.29869" lon="6.54754">
        <ele>199.8</ele>
        <time>1970-01-01T01:21:41.000Z</time>
      </trkpt>
      <trkpt lat="43.29874" lon="6.54755">
        <ele>200.8</ele>
        <time>1970-01-01T01:21:45.000Z</time>
      </trkpt>
      <trkpt lat="43.2988" lon="6.54755">
        <ele>202.2</ele>
        <time>1970-01-01T01:21:48.000Z</time>
      </trkpt>
      <trkpt lat="43.2991" lon="6.54746">
        <ele>203.2</ele>
        <time>1970-01-01T01:22:00.000Z</time>
      </trkpt>
      <trkpt lat="43.29918" lon="6.54739">
        <ele>203.2</ele>
        <time>1970-01-01T01:22:07.000Z</time>
      </trkpt>
      <trkpt lat="43.29926" lon="6.54736">
        <ele>204.4</ele>
        <time>1970-01-01T01:22:13.000Z</time>
      </trkpt>
      <trkpt lat="43.29931" lon="6.54737">
        <ele>205.4</ele>
        <time>1970-01-01T01:22:16.000Z</time>
      </trkpt>
      <trkpt lat="43.29936" lon="6.54737">
        <ele>206.6</ele>
        <time>1970-01-01T01:22:19.000Z</time>
      </trkpt>
      <trkpt lat="43.2994" lon="6.54738">
        <ele>207.6</ele>
        <time>1970-01-01T01:22:22.000Z</time>
      </trkpt>
      <trkpt lat="43.29944" lon="6.54738">
        <ele>208.8</ele>
        <time>1970-01-01T01:22:24.000Z</time>
      </trkpt>
      <trkpt lat="43.29948" lon="6.54738">
        <ele>209.8</ele>
        <time>1970-01-01T01:22:27.000Z</time>
      </trkpt>
      <trkpt lat="43.29957" lon="6.54738">
        <ele>211</ele>
        <time>1970-01-01T01:22:32.000Z</time>
      </trkpt>
      <trkpt lat="43.29961" lon="6.5474">
        <ele>211.6</ele>
        <time>1970-01-01T01:22:35.000Z</time>
      </trkpt>
      <trkpt lat="43.29975" lon="6.5476">
        <ele>211.6</ele>
        <time>1970-01-01T01:22:41.000Z</time>
      </trkpt>
      <trkpt lat="43.29978" lon="6.54761">
        <ele>211.6</ele>
        <time>1970-01-01T01:22:42.000Z</time>
      </trkpt>
      <trkpt lat="43.29996" lon="6.54764">
        <ele>212</ele>
        <time>1970-01-01T01:22:53.000Z</time>
      </trkpt>
      <trkpt lat="43.3" lon="6.54769">
        <ele>213</ele>
        <time>1970-01-01T01:22:56.000Z</time>
      </trkpt>
      <trkpt lat="43.30002" lon="6.5477">
        <ele>213.2</ele>
        <time>1970-01-01T01:22:57.000Z</time>
      </trkpt>
      <trkpt lat="43.30004" lon="6.54773">
        <ele>214.6</ele>
        <time>1970-01-01T01:22:59.000Z</time>
      </trkpt>
      <trkpt lat="43.30007" lon="6.54778">
        <ele>216</ele>
        <time>1970-01-01T01:23:02.000Z</time>
      </trkpt>
      <trkpt lat="43.3001" lon="6.54782">
        <ele>217.4</ele>
        <time>1970-01-01T01:23:05.000Z</time>
      </trkpt>
      <trkpt lat="43.30012" lon="6.54787">
        <ele>218.8</ele>
        <time>1970-01-01T01:23:08.000Z</time>
      </trkpt>
      <trkpt lat="43.30014" lon="6.54792">
        <ele>219.8</ele>
        <time>1970-01-01T01:23:11.000Z</time>
      </trkpt>
      <trkpt lat="43.30016" lon="6.54798">
        <ele>221</ele>
        <time>1970-01-01T01:23:14.000Z</time>
      </trkpt>
      <trkpt lat="43.30017" lon="6.54802">
        <ele>222</ele>
        <time>1970-01-01T01:23:16.000Z</time>
      </trkpt>
      <trkpt lat="43.30018" lon="6.54806">
        <ele>223</ele>
        <time>1970-01-01T01:23:18.000Z</time>
      </trkpt>
      <trkpt lat="43.3002" lon="6.54815">
        <ele>224</ele>
        <time>1970-01-01T01:23:23.000Z</time>
      </trkpt>
      <trkpt lat="43.30023" lon="6.54826">
        <ele>225.2</ele>
        <time>1970-01-01T01:23:29.000Z</time>
      </trkpt>
      <trkpt lat="43.30024" lon="6.54833">
        <ele>226.6</ele>
        <time>1970-01-01T01:23:33.000Z</time>
      </trkpt>
      <trkpt lat="43.30024" lon="6.54842">
        <ele>227.6</ele>
        <time>1970-01-01T01:23:38.000Z</time>
      </trkpt>
      <trkpt lat="43.30025" lon="6.54853">
        <ele>228.8</ele>
        <time>1970-01-01T01:23:44.000Z</time>
      </trkpt>
      <trkpt lat="43.30048" lon="6.54914">
        <ele>230</ele>
        <time>1970-01-01T01:24:15.000Z</time>
      </trkpt>
      <trkpt lat="43.30049" lon="6.54916">
        <ele>230.2</ele>
        <time>1970-01-01T01:24:16.000Z</time>
      </trkpt>
      <trkpt lat="43.30052" lon="6.54918">
        <ele>230.8</ele>
        <time>1970-01-01T01:24:18.000Z</time>
      </trkpt>
      <trkpt lat="43.30054" lon="6.54919">
        <ele>231</ele>
        <time>1970-01-01T01:24:19.000Z</time>
      </trkpt>
      <trkpt lat="43.30061" lon="6.54921">
        <ele>232.4</ele>
        <time>1970-01-01T01:24:23.000Z</time>
      </trkpt>
      <trkpt lat="43.30067" lon="6.54927">
        <ele>233.4</ele>
        <time>1970-01-01T01:24:29.000Z</time>
      </trkpt>
      <trkpt lat="43.30069" lon="6.5493">
        <ele>233.8</ele>
        <time>1970-01-01T01:24:31.000Z</time>
      </trkpt>
      <trkpt lat="43.30071" lon="6.54933">
        <ele>234.6</ele>
        <time>1970-01-01T01:24:33.000Z</time>
      </trkpt>
      <trkpt lat="43.30075" lon="6.5494">
        <ele>235.8</ele>
        <time>1970-01-01T01:24:37.000Z</time>
      </trkpt>
      <trkpt lat="43.30082" lon="6.54946">
        <ele>236.8</ele>
        <time>1970-01-01T01:24:43.000Z</time>
      </trkpt>
      <trkpt lat="43.30087" lon="6.54953">
        <ele>238.2</ele>
        <time>1970-01-01T01:24:48.000Z</time>
      </trkpt>
      <trkpt lat="43.3009" lon="6.54957">
        <ele>239.2</ele>
        <time>1970-01-01T01:24:51.000Z</time>
      </trkpt>
      <trkpt lat="43.30093" lon="6.54963">
        <ele>240.4</ele>
        <time>1970-01-01T01:24:55.000Z</time>
      </trkpt>
      <trkpt lat="43.30098" lon="6.54971">
        <ele>241.4</ele>
        <time>1970-01-01T01:25:00.000Z</time>
      </trkpt>
      <trkpt lat="43.30103" lon="6.54976">
        <ele>242.8</ele>
        <time>1970-01-01T01:25:04.000Z</time>
      </trkpt>
      <trkpt lat="43.30107" lon="6.54981">
        <ele>244</ele>
        <time>1970-01-01T01:25:08.000Z</time>
      </trkpt>
      <trkpt lat="43.30111" lon="6.54985">
        <ele>245.2</ele>
        <time>1970-01-01T01:25:12.000Z</time>
      </trkpt>
      <trkpt lat="43.30116" lon="6.54987">
        <ele>246.6</ele>
        <time>1970-01-01T01:25:16.000Z</time>
      </trkpt>
      <trkpt lat="43.30121" lon="6.54988">
        <ele>247.6</ele>
        <time>1970-01-01T01:25:20.000Z</time>
      </trkpt>
      <trkpt lat="43.3013" lon="6.54986">
        <ele>249</ele>
        <time>1970-01-01T01:25:26.000Z</time>
      </trkpt>
      <trkpt lat="43.30134" lon="6.54985">
        <ele>250</ele>
        <time>1970-01-01T01:25:29.000Z</time>
      </trkpt>
      <trkpt lat="43.30141" lon="6.54985">
        <ele>251.2</ele>
        <time>1970-01-01T01:25:33.000Z</time>
      </trkpt>
      <trkpt lat="43.30145" lon="6.54986">
        <ele>252.2</ele>
        <time>1970-01-01T01:25:36.000Z</time>
      </trkpt>
      <trkpt lat="43.30149" lon="6.54986">
        <ele>253.6</ele>
        <time>1970-01-01T01:25:39.000Z</time>
      </trkpt>
      <trkpt lat="43.30151" lon="6.54988">
        <ele>254.4</ele>
        <time>1970-01-01T01:25:41.000Z</time>
      </trkpt>
      <trkpt lat="43.30152" lon="6.54988">
        <ele>254.8</ele>
        <time>1970-01-01T01:25:42.000Z</time>
      </trkpt>
      <trkpt lat="43.30155" lon="6.54989">
        <ele>256</ele>
        <time>1970-01-01T01:25:45.000Z</time>
      </trkpt>
      <trkpt lat="43.30158" lon="6.54988">
        <ele>257</ele>
        <time>1970-01-01T01:25:47.000Z</time>
      </trkpt>
      <trkpt lat="43.30159" lon="6.54988">
        <ele>257.4</ele>
        <time>1970-01-01T01:25:48.000Z</time>
      </trkpt>
      <trkpt lat="43.30163" lon="6.54986">
        <ele>258.6</ele>
        <time>1970-01-01T01:25:52.000Z</time>
      </trkpt>
      <trkpt lat="43.30165" lon="6.54981">
        <ele>259.4</ele>
        <time>1970-01-01T01:25:56.000Z</time>
      </trkpt>
      <trkpt lat="43.30166" lon="6.54979">
        <ele>259.6</ele>
        <time>1970-01-01T01:25:57.000Z</time>
      </trkpt>
      <trkpt lat="43.30166" lon="6.54899">
        <ele>259</ele>
        <time>1970-01-01T01:26:11.000Z</time>
      </trkpt>
      <trkpt lat="43.30165" lon="6.54888">
        <ele>258.6</ele>
        <time>1970-01-01T01:26:13.000Z</time>
      </trkpt>
      <trkpt lat="43.3016" lon="6.54852">
        <ele>259.6</ele>
        <time>1970-01-01T01:26:29.000Z</time>
      </trkpt>
      <trkpt lat="43.30158" lon="6.54841">
        <ele>261</ele>
        <time>1970-01-01T01:26:34.000Z</time>
      </trkpt>
      <trkpt lat="43.30157" lon="6.54833">
        <ele>262</ele>
        <time>1970-01-01T01:26:38.000Z</time>
      </trkpt>
      <trkpt lat="43.30158" lon="6.5482">
        <ele>263.4</ele>
        <time>1970-01-01T01:26:43.000Z</time>
      </trkpt>
      <trkpt lat="43.30163" lon="6.54775">
        <ele>264.6</ele>
        <time>1970-01-01T01:26:58.000Z</time>
      </trkpt>
      <trkpt lat="43.30184" lon="6.54711">
        <ele>265.8</ele>
        <time>1970-01-01T01:27:21.000Z</time>
      </trkpt>
      <trkpt lat="43.30189" lon="6.54703">
        <ele>267</ele>
        <time>1970-01-01T01:27:25.000Z</time>
      </trkpt>
      <trkpt lat="43.30193" lon="6.54697">
        <ele>268.6</ele>
        <time>1970-01-01T01:27:29.000Z</time>
      </trkpt>
      <trkpt lat="43.30196" lon="6.54694">
        <ele>270</ele>
        <time>1970-01-01T01:27:32.000Z</time>
      </trkpt>
      <trkpt lat="43.30199" lon="6.54693">
        <ele>271</ele>
        <time>1970-01-01T01:27:34.000Z</time>
      </trkpt>
      <trkpt lat="43.30203" lon="6.54692">
        <ele>272.2</ele>
        <time>1970-01-01T01:27:37.000Z</time>
      </trkpt>
      <trkpt lat="43.3021" lon="6.54691">
        <ele>273.2</ele>
        <time>1970-01-01T01:27:41.000Z</time>
      </trkpt>
      <trkpt lat="43.30227" lon="6.54685">
        <ele>274.4</ele>
        <time>1970-01-01T01:27:52.000Z</time>
      </trkpt>
      <trkpt lat="43.30232" lon="6.54682">
        <ele>275.6</ele>
        <time>1970-01-01T01:27:56.000Z</time>
      </trkpt>
      <trkpt lat="43.30237" lon="6.54678">
        <ele>276.6</ele>
        <time>1970-01-01T01:28:00.000Z</time>
      </trkpt>
      <trkpt lat="43.3024" lon="6.54675">
        <ele>277.4</ele>
        <time>1970-01-01T01:28:03.000Z</time>
      </trkpt>
      <trkpt lat="43.30242" lon="6.54672">
        <ele>278</ele>
        <time>1970-01-01T01:28:05.000Z</time>
      </trkpt>
      <trkpt lat="43.30248" lon="6.5467">
        <ele>279.2</ele>
        <time>1970-01-01T01:28:09.000Z</time>
      </trkpt>
      <trkpt lat="43.30252" lon="6.5467">
        <ele>280.2</ele>
        <time>1970-01-01T01:28:12.000Z</time>
      </trkpt>
      <trkpt lat="43.30258" lon="6.54671">
        <ele>281.4</ele>
        <time>1970-01-01T01:28:16.000Z</time>
      </trkpt>
      <trkpt lat="43.3027" lon="6.54671">
        <ele>282.6</ele>
        <time>1970-01-01T01:28:24.000Z</time>
      </trkpt>
      <trkpt lat="43.30275" lon="6.54669">
        <ele>283.8</ele>
        <time>1970-01-01T01:28:28.000Z</time>
      </trkpt>
      <trkpt lat="43.30281" lon="6.54667">
        <ele>284.8</ele>
        <time>1970-01-01T01:28:32.000Z</time>
      </trkpt>
      <trkpt lat="43.30284" lon="6.54667">
        <ele>286</ele>
        <time>1970-01-01T01:28:35.000Z</time>
      </trkpt>
      <trkpt lat="43.30288" lon="6.54665">
        <ele>287.2</ele>
        <time>1970-01-01T01:28:38.000Z</time>
      </trkpt>
      <trkpt lat="43.30295" lon="6.54661">
        <ele>288.2</ele>
        <time>1970-01-01T01:28:44.000Z</time>
      </trkpt>
      <trkpt lat="43.303" lon="6.54656">
        <ele>289.4</ele>
        <time>1970-01-01T01:28:48.000Z</time>
      </trkpt>
      <trkpt lat="43.30306" lon="6.5465">
        <ele>290.4</ele>
        <time>1970-01-01T01:28:53.000Z</time>
      </trkpt>
      <trkpt lat="43.3031" lon="6.54641">
        <ele>291.4</ele>
        <time>1970-01-01T01:28:58.000Z</time>
      </trkpt>
      <trkpt lat="43.30316" lon="6.54624">
        <ele>292.6</ele>
        <time>1970-01-01T01:29:07.000Z</time>
      </trkpt>
      <trkpt lat="43.30321" lon="6.54613">
        <ele>293.6</ele>
        <time>1970-01-01T01:29:13.000Z</time>
      </trkpt>
      <trkpt lat="43.30326" lon="6.546">
        <ele>294.8</ele>
        <time>1970-01-01T01:29:20.000Z</time>
      </trkpt>
      <trkpt lat="43.3033" lon="6.54584">
        <ele>296</ele>
        <time>1970-01-01T01:29:27.000Z</time>
      </trkpt>
      <trkpt lat="43.3033" lon="6.54574">
        <ele>297.2</ele>
        <time>1970-01-01T01:29:31.000Z</time>
      </trkpt>
      <trkpt lat="43.30329" lon="6.54559">
        <ele>298</ele>
        <time>1970-01-01T01:29:38.000Z</time>
      </trkpt>
      <trkpt lat="43.30324" lon="6.54547">
        <ele>299</ele>
        <time>1970-01-01T01:29:44.000Z</time>
      </trkpt>
      <trkpt lat="43.30318" lon="6.5454">
        <ele>300</ele>
        <time>1970-01-01T01:29:49.000Z</time>
      </trkpt>
      <trkpt lat="43.30306" lon="6.54532">
        <ele>301.2</ele>
        <time>1970-01-01T01:29:58.000Z</time>
      </trkpt>
      <trkpt lat="43.30299" lon="6.54527">
        <ele>302.4</ele>
        <time>1970-01-01T01:30:03.000Z</time>
      </trkpt>
      <trkpt lat="43.30295" lon="6.54524">
        <ele>303.6</ele>
        <time>1970-01-01T01:30:07.000Z</time>
      </trkpt>
      <trkpt lat="43.30291" lon="6.54523">
        <ele>304</ele>
        <time>1970-01-01T01:30:09.000Z</time>
      </trkpt>
      <trkpt lat="43.30285" lon="6.54522">
        <ele>304.8</ele>
        <time>1970-01-01T01:30:13.000Z</time>
      </trkpt>
      <trkpt lat="43.30272" lon="6.54517">
        <ele>306</ele>
        <time>1970-01-01T01:30:21.000Z</time>
      </trkpt>
      <trkpt lat="43.30271" lon="6.54516">
        <ele>306.2</ele>
        <time>1970-01-01T01:30:22.000Z</time>
      </trkpt>
      <trkpt lat="43.30263" lon="6.54511">
        <ele>307.2</ele>
        <time>1970-01-01T01:30:27.000Z</time>
      </trkpt>
      <trkpt lat="43.30258" lon="6.54505">
        <ele>308.2</ele>
        <time>1970-01-01T01:30:31.000Z</time>
      </trkpt>
      <trkpt lat="43.30252" lon="6.54497">
        <ele>309.4</ele>
        <time>1970-01-01T01:30:36.000Z</time>
      </trkpt>
      <trkpt lat="43.30249" lon="6.54489">
        <ele>310.6</ele>
        <time>1970-01-01T01:30:40.000Z</time>
      </trkpt>
      <trkpt lat="43.30246" lon="6.54481">
        <ele>311.8</ele>
        <time>1970-01-01T01:30:44.000Z</time>
      </trkpt>
      <trkpt lat="43.30242" lon="6.54471">
        <ele>313</ele>
        <time>1970-01-01T01:30:49.000Z</time>
      </trkpt>
      <trkpt lat="43.3024" lon="6.54465">
        <ele>314.4</ele>
        <time>1970-01-01T01:30:52.000Z</time>
      </trkpt>
      <trkpt lat="43.30237" lon="6.54453">
        <ele>315.4</ele>
        <time>1970-01-01T01:30:57.000Z</time>
      </trkpt>
      <trkpt lat="43.30234" lon="6.5444">
        <ele>316.4</ele>
        <time>1970-01-01T01:31:03.000Z</time>
      </trkpt>
      <trkpt lat="43.30233" lon="6.5443">
        <ele>317.6</ele>
        <time>1970-01-01T01:31:08.000Z</time>
      </trkpt>
      <trkpt lat="43.30232" lon="6.54417">
        <ele>318.8</ele>
        <time>1970-01-01T01:31:13.000Z</time>
      </trkpt>
      <trkpt lat="43.30239" lon="6.54388">
        <ele>319.8</ele>
        <time>1970-01-01T01:31:25.000Z</time>
      </trkpt>
      <trkpt lat="43.30244" lon="6.54377">
        <ele>320.6</ele>
        <time>1970-01-01T01:31:31.000Z</time>
      </trkpt>
      <trkpt lat="43.30247" lon="6.54368">
        <ele>322</ele>
        <time>1970-01-01T01:31:36.000Z</time>
      </trkpt>
      <trkpt lat="43.30249" lon="6.54359">
        <ele>323.2</ele>
        <time>1970-01-01T01:31:40.000Z</time>
      </trkpt>
      <trkpt lat="43.30252" lon="6.54343">
        <ele>324.2</ele>
        <time>1970-01-01T01:31:48.000Z</time>
      </trkpt>
      <trkpt lat="43.30254" lon="6.54333">
        <ele>325.4</ele>
        <time>1970-01-01T01:31:53.000Z</time>
      </trkpt>
      <trkpt lat="43.30257" lon="6.54326">
        <ele>326.4</ele>
        <time>1970-01-01T01:31:57.000Z</time>
      </trkpt>
      <trkpt lat="43.30259" lon="6.54321">
        <ele>327.4</ele>
        <time>1970-01-01T01:32:00.000Z</time>
      </trkpt>
      <trkpt lat="43.30261" lon="6.54316">
        <ele>328.4</ele>
        <time>1970-01-01T01:32:03.000Z</time>
      </trkpt>
      <trkpt lat="43.30264" lon="6.54311">
        <ele>329.4</ele>
        <time>1970-01-01T01:32:06.000Z</time>
      </trkpt>
      <trkpt lat="43.30267" lon="6.54304">
        <ele>330.4</ele>
        <time>1970-01-01T01:32:10.000Z</time>
      </trkpt>
      <trkpt lat="43.30269" lon="6.54298">
        <ele>331.6</ele>
        <time>1970-01-01T01:32:13.000Z</time>
      </trkpt>
      <trkpt lat="43.30274" lon="6.54286">
        <ele>332.6</ele>
        <time>1970-01-01T01:32:20.000Z</time>
      </trkpt>
      <trkpt lat="43.30275" lon="6.54277">
        <ele>333.6</ele>
        <time>1970-01-01T01:32:24.000Z</time>
      </trkpt>
      <trkpt lat="43.3028" lon="6.54263">
        <ele>334.8</ele>
        <time>1970-01-01T01:32:31.000Z</time>
      </trkpt>
      <trkpt lat="43.30286" lon="6.54249">
        <ele>335.8</ele>
        <time>1970-01-01T01:32:38.000Z</time>
      </trkpt>
      <trkpt lat="43.30292" lon="6.54237">
        <ele>336.8</ele>
        <time>1970-01-01T01:32:44.000Z</time>
      </trkpt>
      <trkpt lat="43.30298" lon="6.54223">
        <ele>337.8</ele>
        <time>1970-01-01T01:32:51.000Z</time>
      </trkpt>
      <trkpt lat="43.30299" lon="6.54209">
        <ele>339</ele>
        <time>1970-01-01T01:32:57.000Z</time>
      </trkpt>
      <trkpt lat="43.30295" lon="6.54194">
        <ele>340.2</ele>
        <time>1970-01-01T01:33:03.000Z</time>
      </trkpt>
      <trkpt lat="43.3029" lon="6.54181">
        <ele>341.2</ele>
        <time>1970-01-01T01:33:08.000Z</time>
      </trkpt>
      <trkpt lat="43.30286" lon="6.54172">
        <ele>342.2</ele>
        <time>1970-01-01T01:33:12.000Z</time>
      </trkpt>
      <trkpt lat="43.30282" lon="6.54161">
        <ele>343.2</ele>
        <time>1970-01-01T01:33:18.000Z</time>
      </trkpt>
      <trkpt lat="43.30277" lon="6.54151">
        <ele>344.6</ele>
        <time>1970-01-01T01:33:23.000Z</time>
      </trkpt>
      <trkpt lat="43.30272" lon="6.54141">
        <ele>345.6</ele>
        <time>1970-01-01T01:33:28.000Z</time>
      </trkpt>
      <trkpt lat="43.30265" lon="6.54133">
        <ele>346.6</ele>
        <time>1970-01-01T01:33:33.000Z</time>
      </trkpt>
      <trkpt lat="43.3026" lon="6.54123">
        <ele>347.8</ele>
        <time>1970-01-01T01:33:38.000Z</time>
      </trkpt>
      <trkpt lat="43.30255" lon="6.54114">
        <ele>349.2</ele>
        <time>1970-01-01T01:33:42.000Z</time>
      </trkpt>
      <trkpt lat="43.30257" lon="6.54104">
        <ele>350.2</ele>
        <time>1970-01-01T01:33:47.000Z</time>
      </trkpt>
      <trkpt lat="43.30258" lon="6.54101">
        <ele>350.6</ele>
        <time>1970-01-01T01:33:49.000Z</time>
      </trkpt>
      <trkpt lat="43.30259" lon="6.54093">
        <ele>351.2</ele>
        <time>1970-01-01T01:33:52.000Z</time>
      </trkpt>
      <trkpt lat="43.3026" lon="6.54084">
        <ele>352.4</ele>
        <time>1970-01-01T01:33:56.000Z</time>
      </trkpt>
      <trkpt lat="43.30263" lon="6.54066">
        <ele>353.4</ele>
        <time>1970-01-01T01:34:04.000Z</time>
      </trkpt>
      <trkpt lat="43.30266" lon="6.54049">
        <ele>354.4</ele>
        <time>1970-01-01T01:34:10.000Z</time>
      </trkpt>
      <trkpt lat="43.30269" lon="6.54034">
        <ele>355.6</ele>
        <time>1970-01-01T01:34:16.000Z</time>
      </trkpt>
      <trkpt lat="43.30271" lon="6.54026">
        <ele>356.6</ele>
        <time>1970-01-01T01:34:20.000Z</time>
      </trkpt>
      <trkpt lat="43.30275" lon="6.5402">
        <ele>358.2</ele>
        <time>1970-01-01T01:34:24.000Z</time>
      </trkpt>
      <trkpt lat="43.30277" lon="6.54015">
        <ele>359.4</ele>
        <time>1970-01-01T01:34:27.000Z</time>
      </trkpt>
      <trkpt lat="43.30281" lon="6.54008">
        <ele>360.4</ele>
        <time>1970-01-01T01:34:31.000Z</time>
      </trkpt>
      <trkpt lat="43.30283" lon="6.54004">
        <ele>361.2</ele>
        <time>1970-01-01T01:34:34.000Z</time>
      </trkpt>
      <trkpt lat="43.30284" lon="6.54003">
        <ele>361.6</ele>
        <time>1970-01-01T01:34:35.000Z</time>
      </trkpt>
      <trkpt lat="43.30295" lon="6.53995">
        <ele>362.8</ele>
        <time>1970-01-01T01:34:43.000Z</time>
      </trkpt>
      <trkpt lat="43.30303" lon="6.5399">
        <ele>364</ele>
        <time>1970-01-01T01:34:50.000Z</time>
      </trkpt>
      <trkpt lat="43.30307" lon="6.53985">
        <ele>365</ele>
        <time>1970-01-01T01:34:54.000Z</time>
      </trkpt>
      <trkpt lat="43.30308" lon="6.53985">
        <ele>365</ele>
        <time>1970-01-01T01:34:55.000Z</time>
      </trkpt>
      <trkpt lat="43.3031" lon="6.53985">
        <ele>365.6</ele>
        <time>1970-01-01T01:34:59.000Z</time>
      </trkpt>
      <trkpt lat="43.30316" lon="6.5399">
        <ele>366.4</ele>
        <time>1970-01-01T01:38:29.000Z</time>
      </trkpt>
      <trkpt lat="43.30323" lon="6.53995">
        <ele>366.4</ele>
        <time>1970-01-01T01:38:31.000Z</time>
      </trkpt>
      <trkpt lat="43.30327" lon="6.53997">
        <ele>366.4</ele>
        <time>1970-01-01T01:38:32.000Z</time>
      </trkpt>
      <trkpt lat="43.30331" lon="6.54028">
        <ele>365.4</ele>
        <time>1970-01-01T01:38:38.000Z</time>
      </trkpt>
      <trkpt lat="43.30331" lon="6.54047">
        <ele>364.2</ele>
        <time>1970-01-01T01:38:41.000Z</time>
      </trkpt>
      <trkpt lat="43.30338" lon="6.54054">
        <ele>363</ele>
        <time>1970-01-01T01:38:43.000Z</time>
      </trkpt>
      <trkpt lat="43.3034" lon="6.54058">
        <ele>362</ele>
        <time>1970-01-01T01:38:44.000Z</time>
      </trkpt>
      <trkpt lat="43.3034" lon="6.54066">
        <ele>360.2</ele>
        <time>1970-01-01T01:38:46.000Z</time>
      </trkpt>
      <trkpt lat="43.30339" lon="6.54069">
        <ele>358.2</ele>
        <time>1970-01-01T01:38:48.000Z</time>
      </trkpt>
      <trkpt lat="43.30338" lon="6.54069">
        <ele>357</ele>
        <time>1970-01-01T01:38:49.000Z</time>
      </trkpt>
      <trkpt lat="43.30337" lon="6.54069">
        <ele>355.6</ele>
        <time>1970-01-01T01:38:50.000Z</time>
      </trkpt>
      <trkpt lat="43.30336" lon="6.5407">
        <ele>354.4</ele>
        <time>1970-01-01T01:38:51.000Z</time>
      </trkpt>
      <trkpt lat="43.30335" lon="6.5407">
        <ele>353.2</ele>
        <time>1970-01-01T01:38:52.000Z</time>
      </trkpt>
      <trkpt lat="43.30333" lon="6.54073">
        <ele>352</ele>
        <time>1970-01-01T01:38:53.000Z</time>
      </trkpt>
      <trkpt lat="43.30332" lon="6.54079">
        <ele>350.6</ele>
        <time>1970-01-01T01:38:54.000Z</time>
      </trkpt>
      <trkpt lat="43.3033" lon="6.54098">
        <ele>349</ele>
        <time>1970-01-01T01:38:56.000Z</time>
      </trkpt>
      <trkpt lat="43.30333" lon="6.54128">
        <ele>348.4</ele>
        <time>1970-01-01T01:38:59.000Z</time>
      </trkpt>
      <trkpt lat="43.30344" lon="6.54156">
        <ele>348</ele>
        <time>1970-01-01T01:39:02.000Z</time>
      </trkpt>
      <trkpt lat="43.30349" lon="6.54168">
        <ele>346.6</ele>
        <time>1970-01-01T01:39:03.000Z</time>
      </trkpt>
      <trkpt lat="43.30355" lon="6.54179">
        <ele>344.8</ele>
        <time>1970-01-01T01:39:04.000Z</time>
      </trkpt>
      <trkpt lat="43.3036" lon="6.54188">
        <ele>343.4</ele>
        <time>1970-01-01T01:39:05.000Z</time>
      </trkpt>
      <trkpt lat="43.30365" lon="6.54199">
        <ele>342.6</ele>
        <time>1970-01-01T01:39:06.000Z</time>
      </trkpt>
      <trkpt lat="43.30366" lon="6.54208">
        <ele>341.6</ele>
        <time>1970-01-01T01:39:07.000Z</time>
      </trkpt>
      <trkpt lat="43.30366" lon="6.54221">
        <ele>339.4</ele>
        <time>1970-01-01T01:39:09.000Z</time>
      </trkpt>
      <trkpt lat="43.30364" lon="6.54226">
        <ele>337.2</ele>
        <time>1970-01-01T01:39:10.000Z</time>
      </trkpt>
      <trkpt lat="43.30353" lon="6.54305">
        <ele>337.4</ele>
        <time>1970-01-01T01:39:28.000Z</time>
      </trkpt>
      <trkpt lat="43.30353" lon="6.54312">
        <ele>337.4</ele>
        <time>1970-01-01T01:39:29.000Z</time>
      </trkpt>
      <trkpt lat="43.3036" lon="6.54344">
        <ele>337.4</ele>
        <time>1970-01-01T01:39:33.000Z</time>
      </trkpt>
      <trkpt lat="43.30357" lon="6.54399">
        <ele>335.4</ele>
        <time>1970-01-01T01:39:39.000Z</time>
      </trkpt>
      <trkpt lat="43.30358" lon="6.54406">
        <ele>335</ele>
        <time>1970-01-01T01:39:40.000Z</time>
      </trkpt>
      <trkpt lat="43.30369" lon="6.54419">
        <ele>334.4</ele>
        <time>1970-01-01T01:39:43.000Z</time>
      </trkpt>
      <trkpt lat="43.30368" lon="6.54433">
        <ele>332.4</ele>
        <time>1970-01-01T01:39:45.000Z</time>
      </trkpt>
      <trkpt lat="43.30367" lon="6.5444">
        <ele>331.6</ele>
        <time>1970-01-01T01:39:46.000Z</time>
      </trkpt>
      <trkpt lat="43.30367" lon="6.54446">
        <ele>330.6</ele>
        <time>1970-01-01T01:39:47.000Z</time>
      </trkpt>
      <trkpt lat="43.30368" lon="6.54453">
        <ele>329.4</ele>
        <time>1970-01-01T01:39:48.000Z</time>
      </trkpt>
      <trkpt lat="43.30368" lon="6.54461">
        <ele>327.8</ele>
        <time>1970-01-01T01:39:49.000Z</time>
      </trkpt>
      <trkpt lat="43.3037" lon="6.54467">
        <ele>326.2</ele>
        <time>1970-01-01T01:39:50.000Z</time>
      </trkpt>
      <trkpt lat="43.30371" lon="6.54474">
        <ele>325</ele>
        <time>1970-01-01T01:39:51.000Z</time>
      </trkpt>
      <trkpt lat="43.30371" lon="6.5448">
        <ele>323.6</ele>
        <time>1970-01-01T01:39:52.000Z</time>
      </trkpt>
      <trkpt lat="43.30371" lon="6.54488">
        <ele>322.4</ele>
        <time>1970-01-01T01:39:53.000Z</time>
      </trkpt>
      <trkpt lat="43.3037" lon="6.54508">
        <ele>320.4</ele>
        <time>1970-01-01T01:39:55.000Z</time>
      </trkpt>
      <trkpt lat="43.30369" lon="6.54519">
        <ele>319.2</ele>
        <time>1970-01-01T01:39:56.000Z</time>
      </trkpt>
      <trkpt lat="43.30369" lon="6.54531">
        <ele>317.8</ele>
        <time>1970-01-01T01:39:57.000Z</time>
      </trkpt>
      <trkpt lat="43.30369" lon="6.54545">
        <ele>316</ele>
        <time>1970-01-01T01:39:58.000Z</time>
      </trkpt>
      <trkpt lat="43.30368" lon="6.54558">
        <ele>314.4</ele>
        <time>1970-01-01T01:39:59.000Z</time>
      </trkpt>
      <trkpt lat="43.30368" lon="6.54571">
        <ele>312.8</ele>
        <time>1970-01-01T01:40:00.000Z</time>
      </trkpt>
      <trkpt lat="43.30366" lon="6.54582">
        <ele>311.6</ele>
        <time>1970-01-01T01:40:01.000Z</time>
      </trkpt>
      <trkpt lat="43.30363" lon="6.54593">
        <ele>310.2</ele>
        <time>1970-01-01T01:40:02.000Z</time>
      </trkpt>
      <trkpt lat="43.30358" lon="6.54604">
        <ele>308.8</ele>
        <time>1970-01-01T01:40:03.000Z</time>
      </trkpt>
      <trkpt lat="43.30354" lon="6.54615">
        <ele>307.6</ele>
        <time>1970-01-01T01:40:04.000Z</time>
      </trkpt>
      <trkpt lat="43.30349" lon="6.54625">
        <ele>306.4</ele>
        <time>1970-01-01T01:40:05.000Z</time>
      </trkpt>
      <trkpt lat="43.30343" lon="6.54631">
        <ele>305.2</ele>
        <time>1970-01-01T01:40:06.000Z</time>
      </trkpt>
      <trkpt lat="43.3033" lon="6.54642">
        <ele>303.6</ele>
        <time>1970-01-01T01:40:08.000Z</time>
      </trkpt>
      <trkpt lat="43.30325" lon="6.54655">
        <ele>302</ele>
        <time>1970-01-01T01:40:10.000Z</time>
      </trkpt>
      <trkpt lat="43.30311" lon="6.5467">
        <ele>300.4</ele>
        <time>1970-01-01T01:40:13.000Z</time>
      </trkpt>
      <trkpt lat="43.30303" lon="6.54682">
        <ele>298.8</ele>
        <time>1970-01-01T01:40:15.000Z</time>
      </trkpt>
      <trkpt lat="43.303" lon="6.54688">
        <ele>297.8</ele>
        <time>1970-01-01T01:40:16.000Z</time>
      </trkpt>
      <trkpt lat="43.30296" lon="6.54694">
        <ele>297</ele>
        <time>1970-01-01T01:40:17.000Z</time>
      </trkpt>
      <trkpt lat="43.30286" lon="6.54698">
        <ele>295.6</ele>
        <time>1970-01-01T01:40:19.000Z</time>
      </trkpt>
      <trkpt lat="43.3028" lon="6.54697">
        <ele>294.4</ele>
        <time>1970-01-01T01:40:20.000Z</time>
      </trkpt>
      <trkpt lat="43.30274" lon="6.54693">
        <ele>293.8</ele>
        <time>1970-01-01T01:40:21.000Z</time>
      </trkpt>
      <trkpt lat="43.30268" lon="6.54692">
        <ele>293</ele>
        <time>1970-01-01T01:40:22.000Z</time>
      </trkpt>
      <trkpt lat="43.30252" lon="6.547">
        <ele>291.8</ele>
        <time>1970-01-01T01:40:25.000Z</time>
      </trkpt>
      <trkpt lat="43.30248" lon="6.54707">
        <ele>291.2</ele>
        <time>1970-01-01T01:40:26.000Z</time>
      </trkpt>
      <trkpt lat="43.30242" lon="6.54712">
        <ele>291</ele>
        <time>1970-01-01T01:40:27.000Z</time>
      </trkpt>
      <trkpt lat="43.30235" lon="6.54717">
        <ele>290.4</ele>
        <time>1970-01-01T01:40:28.000Z</time>
      </trkpt>
      <trkpt lat="43.30228" lon="6.54724">
        <ele>289.8</ele>
        <time>1970-01-01T01:40:29.000Z</time>
      </trkpt>
      <trkpt lat="43.30223" lon="6.54733">
        <ele>289</ele>
        <time>1970-01-01T01:40:30.000Z</time>
      </trkpt>
      <trkpt lat="43.30219" lon="6.54745">
        <ele>287.6</ele>
        <time>1970-01-01T01:40:31.000Z</time>
      </trkpt>
      <trkpt lat="43.30216" lon="6.54757">
        <ele>286.2</ele>
        <time>1970-01-01T01:40:32.000Z</time>
      </trkpt>
      <trkpt lat="43.30214" lon="6.54769">
        <ele>285</ele>
        <time>1970-01-01T01:40:33.000Z</time>
      </trkpt>
      <trkpt lat="43.30213" lon="6.54782">
        <ele>284</ele>
        <time>1970-01-01T01:40:34.000Z</time>
      </trkpt>
      <trkpt lat="43.30213" lon="6.54795">
        <ele>282.8</ele>
        <time>1970-01-01T01:40:35.000Z</time>
      </trkpt>
      <trkpt lat="43.30213" lon="6.54809">
        <ele>281.6</ele>
        <time>1970-01-01T01:40:36.000Z</time>
      </trkpt>
      <trkpt lat="43.30213" lon="6.54824">
        <ele>280.6</ele>
        <time>1970-01-01T01:40:37.000Z</time>
      </trkpt>
      <trkpt lat="43.30213" lon="6.54838">
        <ele>279.6</ele>
        <time>1970-01-01T01:40:38.000Z</time>
      </trkpt>
      <trkpt lat="43.30214" lon="6.54869">
        <ele>277.6</ele>
        <time>1970-01-01T01:40:40.000Z</time>
      </trkpt>
      <trkpt lat="43.30214" lon="6.54885">
        <ele>276.6</ele>
        <time>1970-01-01T01:40:41.000Z</time>
      </trkpt>
      <trkpt lat="43.30212" lon="6.54914">
        <ele>274.6</ele>
        <time>1970-01-01T01:40:43.000Z</time>
      </trkpt>
      <trkpt lat="43.30212" lon="6.54927">
        <ele>273.4</ele>
        <time>1970-01-01T01:40:44.000Z</time>
      </trkpt>
      <trkpt lat="43.30212" lon="6.54941">
        <ele>272.4</ele>
        <time>1970-01-01T01:40:45.000Z</time>
      </trkpt>
      <trkpt lat="43.30212" lon="6.54954">
        <ele>271.2</ele>
        <time>1970-01-01T01:40:46.000Z</time>
      </trkpt>
      <trkpt lat="43.30214" lon="6.54967">
        <ele>270.2</ele>
        <time>1970-01-01T01:40:47.000Z</time>
      </trkpt>
      <trkpt lat="43.30215" lon="6.54978">
        <ele>269.2</ele>
        <time>1970-01-01T01:40:48.000Z</time>
      </trkpt>
      <trkpt lat="43.30215" lon="6.54989">
        <ele>268</ele>
        <time>1970-01-01T01:40:49.000Z</time>
      </trkpt>
      <trkpt lat="43.30212" lon="6.55008">
        <ele>266.8</ele>
        <time>1970-01-01T01:40:51.000Z</time>
      </trkpt>
      <trkpt lat="43.30208" lon="6.55026">
        <ele>266.2</ele>
        <time>1970-01-01T01:40:53.000Z</time>
      </trkpt>
      <trkpt lat="43.30205" lon="6.55034">
        <ele>265.6</ele>
        <time>1970-01-01T01:40:54.000Z</time>
      </trkpt>
      <trkpt lat="43.30202" lon="6.55042">
        <ele>264.4</ele>
        <time>1970-01-01T01:40:55.000Z</time>
      </trkpt>
      <trkpt lat="43.30195" lon="6.5506">
        <ele>263.6</ele>
        <time>1970-01-01T01:40:57.000Z</time>
      </trkpt>
      <trkpt lat="43.30191" lon="6.55068">
        <ele>263.4</ele>
        <time>1970-01-01T01:40:58.000Z</time>
      </trkpt>
      <trkpt lat="43.30176" lon="6.55072">
        <ele>261.8</ele>
        <time>1970-01-01T01:41:02.000Z</time>
      </trkpt>
      <trkpt lat="43.30161" lon="6.55068">
        <ele>260</ele>
        <time>1970-01-01T01:41:05.000Z</time>
      </trkpt>
      <trkpt lat="43.30156" lon="6.55066">
        <ele>259</ele>
        <time>1970-01-01T01:41:06.000Z</time>
      </trkpt>
      <trkpt lat="43.30143" lon="6.5506">
        <ele>257.8</ele>
        <time>1970-01-01T01:41:08.000Z</time>
      </trkpt>
      <trkpt lat="43.30117" lon="6.55097">
        <ele>256.8</ele>
        <time>1970-01-01T01:41:15.000Z</time>
      </trkpt>
      <trkpt lat="43.30108" lon="6.55099">
        <ele>254.6</ele>
        <time>1970-01-01T01:41:18.000Z</time>
      </trkpt>
      <trkpt lat="43.30107" lon="6.55096">
        <ele>253.4</ele>
        <time>1970-01-01T01:41:19.000Z</time>
      </trkpt>
      <trkpt lat="43.30104" lon="6.55093">
        <ele>252.2</ele>
        <time>1970-01-01T01:41:20.000Z</time>
      </trkpt>
      <trkpt lat="43.301" lon="6.5509">
        <ele>251</ele>
        <time>1970-01-01T01:41:21.000Z</time>
      </trkpt>
      <trkpt lat="43.3009" lon="6.55088">
        <ele>249</ele>
        <time>1970-01-01T01:41:23.000Z</time>
      </trkpt>
      <trkpt lat="43.30081" lon="6.55083">
        <ele>247.2</ele>
        <time>1970-01-01T01:41:25.000Z</time>
      </trkpt>
      <trkpt lat="43.3008" lon="6.55072">
        <ele>246.6</ele>
        <time>1970-01-01T01:41:27.000Z</time>
      </trkpt>
      <trkpt lat="43.30076" lon="6.55066">
        <ele>245.2</ele>
        <time>1970-01-01T01:41:29.000Z</time>
      </trkpt>
      <trkpt lat="43.3007" lon="6.55072">
        <ele>243.2</ele>
        <time>1970-01-01T01:41:31.000Z</time>
      </trkpt>
      <trkpt lat="43.30066" lon="6.55079">
        <ele>242</ele>
        <time>1970-01-01T01:41:32.000Z</time>
      </trkpt>
      <trkpt lat="43.30061" lon="6.55086">
        <ele>240.6</ele>
        <time>1970-01-01T01:41:34.000Z</time>
      </trkpt>
      <trkpt lat="43.30056" lon="6.55082">
        <ele>239.4</ele>
        <time>1970-01-01T01:41:36.000Z</time>
      </trkpt>
      <trkpt lat="43.30054" lon="6.55079">
        <ele>238.4</ele>
        <time>1970-01-01T01:41:37.000Z</time>
      </trkpt>
      <trkpt lat="43.3005" lon="6.55076">
        <ele>237.2</ele>
        <time>1970-01-01T01:41:38.000Z</time>
      </trkpt>
      <trkpt lat="43.30044" lon="6.55069">
        <ele>235.4</ele>
        <time>1970-01-01T01:41:40.000Z</time>
      </trkpt>
      <trkpt lat="43.30041" lon="6.55067">
        <ele>234.2</ele>
        <time>1970-01-01T01:41:41.000Z</time>
      </trkpt>
      <trkpt lat="43.30033" lon="6.55067">
        <ele>232.4</ele>
        <time>1970-01-01T01:41:43.000Z</time>
      </trkpt>
      <trkpt lat="43.30024" lon="6.55074">
        <ele>230.6</ele>
        <time>1970-01-01T01:41:45.000Z</time>
      </trkpt>
      <trkpt lat="43.3002" lon="6.55078">
        <ele>229.4</ele>
        <time>1970-01-01T01:41:46.000Z</time>
      </trkpt>
      <trkpt lat="43.30018" lon="6.55082">
        <ele>228.2</ele>
        <time>1970-01-01T01:41:47.000Z</time>
      </trkpt>
      <trkpt lat="43.30013" lon="6.55088">
        <ele>226.4</ele>
        <time>1970-01-01T01:41:49.000Z</time>
      </trkpt>
      <trkpt lat="43.30007" lon="6.5509">
        <ele>224.4</ele>
        <time>1970-01-01T01:41:51.000Z</time>
      </trkpt>
      <trkpt lat="43.30003" lon="6.55089">
        <ele>223</ele>
        <time>1970-01-01T01:41:52.000Z</time>
      </trkpt>
      <trkpt lat="43.3" lon="6.55088">
        <ele>221.4</ele>
        <time>1970-01-01T01:41:53.000Z</time>
      </trkpt>
      <trkpt lat="43.29998" lon="6.55089">
        <ele>219.6</ele>
        <time>1970-01-01T01:41:54.000Z</time>
      </trkpt>
      <trkpt lat="43.29997" lon="6.55089">
        <ele>218.2</ele>
        <time>1970-01-01T01:41:55.000Z</time>
      </trkpt>
      <trkpt lat="43.29997" lon="6.55089">
        <ele>217.8</ele>
        <time>1970-01-01T01:41:56.000Z</time>
      </trkpt>
      <trkpt lat="43.29994" lon="6.55098">
        <ele>210</ele>
        <time>1970-01-01T01:46:03.000Z</time>
      </trkpt>
      <trkpt lat="43.29955" lon="6.55118">
        <ele>208</ele>
        <time>1970-01-01T01:46:12.000Z</time>
      </trkpt>
      <trkpt lat="43.29948" lon="6.55125">
        <ele>206.4</ele>
        <time>1970-01-01T01:46:14.000Z</time>
      </trkpt>
      <trkpt lat="43.29943" lon="6.55129">
        <ele>205</ele>
        <time>1970-01-01T01:46:15.000Z</time>
      </trkpt>
      <trkpt lat="43.29939" lon="6.55134">
        <ele>203.8</ele>
        <time>1970-01-01T01:46:16.000Z</time>
      </trkpt>
      <trkpt lat="43.29935" lon="6.55139">
        <ele>202.8</ele>
        <time>1970-01-01T01:46:17.000Z</time>
      </trkpt>
      <trkpt lat="43.29933" lon="6.55148">
        <ele>201.4</ele>
        <time>1970-01-01T01:46:18.000Z</time>
      </trkpt>
      <trkpt lat="43.29929" lon="6.55155">
        <ele>199.6</ele>
        <time>1970-01-01T01:46:19.000Z</time>
      </trkpt>
      <trkpt lat="43.29924" lon="6.55161">
        <ele>198</ele>
        <time>1970-01-01T01:46:20.000Z</time>
      </trkpt>
      <trkpt lat="43.2992" lon="6.55168">
        <ele>196.8</ele>
        <time>1970-01-01T01:46:21.000Z</time>
      </trkpt>
      <trkpt lat="43.29918" lon="6.55175">
        <ele>195.2</ele>
        <time>1970-01-01T01:46:22.000Z</time>
      </trkpt>
      <trkpt lat="43.29916" lon="6.55182">
        <ele>193.6</ele>
        <time>1970-01-01T01:46:23.000Z</time>
      </trkpt>
      <trkpt lat="43.29914" lon="6.55189">
        <ele>191.6</ele>
        <time>1970-01-01T01:46:24.000Z</time>
      </trkpt>
      <trkpt lat="43.29912" lon="6.55197">
        <ele>190</ele>
        <time>1970-01-01T01:46:25.000Z</time>
      </trkpt>
      <trkpt lat="43.2991" lon="6.55204">
        <ele>189.4</ele>
        <time>1970-01-01T01:46:26.000Z</time>
      </trkpt>
      <trkpt lat="43.29907" lon="6.5521">
        <ele>188</ele>
        <time>1970-01-01T01:46:27.000Z</time>
      </trkpt>
      <trkpt lat="43.29903" lon="6.55216">
        <ele>186.8</ele>
        <time>1970-01-01T01:46:28.000Z</time>
      </trkpt>
      <trkpt lat="43.29898" lon="6.55226">
        <ele>184.4</ele>
        <time>1970-01-01T01:46:30.000Z</time>
      </trkpt>
      <trkpt lat="43.29892" lon="6.55227">
        <ele>182.8</ele>
        <time>1970-01-01T01:46:32.000Z</time>
      </trkpt>
      <trkpt lat="43.29886" lon="6.55222">
        <ele>181.4</ele>
        <time>1970-01-01T01:46:34.000Z</time>
      </trkpt>
      <trkpt lat="43.29879" lon="6.55221">
        <ele>179.6</ele>
        <time>1970-01-01T01:46:36.000Z</time>
      </trkpt>
      <trkpt lat="43.29873" lon="6.55216">
        <ele>178</ele>
        <time>1970-01-01T01:46:38.000Z</time>
      </trkpt>
      <trkpt lat="43.29865" lon="6.55215">
        <ele>176.8</ele>
        <time>1970-01-01T01:46:40.000Z</time>
      </trkpt>
      <trkpt lat="43.29862" lon="6.55216">
        <ele>175.4</ele>
        <time>1970-01-01T01:46:41.000Z</time>
      </trkpt>
      <trkpt lat="43.29858" lon="6.55218">
        <ele>174.2</ele>
        <time>1970-01-01T01:46:42.000Z</time>
      </trkpt>
      <trkpt lat="43.29854" lon="6.55219">
        <ele>173.2</ele>
        <time>1970-01-01T01:46:43.000Z</time>
      </trkpt>
      <trkpt lat="43.29849" lon="6.55218">
        <ele>172</ele>
        <time>1970-01-01T01:46:44.000Z</time>
      </trkpt>
      <trkpt lat="43.29845" lon="6.55216">
        <ele>170.8</ele>
        <time>1970-01-01T01:46:45.000Z</time>
      </trkpt>
      <trkpt lat="43.29843" lon="6.55215">
        <ele>169.2</ele>
        <time>1970-01-01T01:46:46.000Z</time>
      </trkpt>
      <trkpt lat="43.29841" lon="6.55213">
        <ele>167.8</ele>
        <time>1970-01-01T01:46:47.000Z</time>
      </trkpt>
      <trkpt lat="43.29839" lon="6.55211">
        <ele>166.6</ele>
        <time>1970-01-01T01:46:48.000Z</time>
      </trkpt>
      <trkpt lat="43.29836" lon="6.55211">
        <ele>165</ele>
        <time>1970-01-01T01:46:49.000Z</time>
      </trkpt>
      <trkpt lat="43.29832" lon="6.55213">
        <ele>163.2</ele>
        <time>1970-01-01T01:46:50.000Z</time>
      </trkpt>
      <trkpt lat="43.29828" lon="6.55216">
        <ele>161.4</ele>
        <time>1970-01-01T01:46:51.000Z</time>
      </trkpt>
      <trkpt lat="43.29824" lon="6.55218">
        <ele>159.2</ele>
        <time>1970-01-01T01:46:52.000Z</time>
      </trkpt>
      <trkpt lat="43.29821" lon="6.55217">
        <ele>157.8</ele>
        <time>1970-01-01T01:46:53.000Z</time>
      </trkpt>
      <trkpt lat="43.29813" lon="6.55216">
        <ele>156</ele>
        <time>1970-01-01T01:46:55.000Z</time>
      </trkpt>
      <trkpt lat="43.2981" lon="6.55215">
        <ele>154.6</ele>
        <time>1970-01-01T01:46:56.000Z</time>
      </trkpt>
      <trkpt lat="43.29807" lon="6.55214">
        <ele>153.2</ele>
        <time>1970-01-01T01:46:57.000Z</time>
      </trkpt>
      <trkpt lat="43.29805" lon="6.55212">
        <ele>152</ele>
        <time>1970-01-01T01:46:58.000Z</time>
      </trkpt>
      <trkpt lat="43.29804" lon="6.55203">
        <ele>150</ele>
        <time>1970-01-01T01:47:00.000Z</time>
      </trkpt>
      <trkpt lat="43.29801" lon="6.55197">
        <ele>148.4</ele>
        <time>1970-01-01T01:47:02.000Z</time>
      </trkpt>
      <trkpt lat="43.29792" lon="6.55198">
        <ele>146</ele>
        <time>1970-01-01T01:47:04.000Z</time>
      </trkpt>
      <trkpt lat="43.29786" lon="6.552">
        <ele>144.6</ele>
        <time>1970-01-01T01:47:05.000Z</time>
      </trkpt>
      <trkpt lat="43.29782" lon="6.55202">
        <ele>143.4</ele>
        <time>1970-01-01T01:47:06.000Z</time>
      </trkpt>
      <trkpt lat="43.29778" lon="6.55207">
        <ele>142.4</ele>
        <time>1970-01-01T01:47:07.000Z</time>
      </trkpt>
      <trkpt lat="43.29774" lon="6.5521">
        <ele>141.2</ele>
        <time>1970-01-01T01:47:08.000Z</time>
      </trkpt>
      <trkpt lat="43.2977" lon="6.55216">
        <ele>139.8</ele>
        <time>1970-01-01T01:47:09.000Z</time>
      </trkpt>
      <trkpt lat="43.29766" lon="6.55221">
        <ele>138.4</ele>
        <time>1970-01-01T01:47:10.000Z</time>
      </trkpt>
      <trkpt lat="43.29763" lon="6.55227">
        <ele>137</ele>
        <time>1970-01-01T01:47:11.000Z</time>
      </trkpt>
      <trkpt lat="43.2976" lon="6.55234">
        <ele>135.6</ele>
        <time>1970-01-01T01:47:12.000Z</time>
      </trkpt>
      <trkpt lat="43.29757" lon="6.5524">
        <ele>134.2</ele>
        <time>1970-01-01T01:47:13.000Z</time>
      </trkpt>
      <trkpt lat="43.29753" lon="6.55253">
        <ele>132.2</ele>
        <time>1970-01-01T01:47:15.000Z</time>
      </trkpt>
      <trkpt lat="43.29753" lon="6.55261">
        <ele>129.6</ele>
        <time>1970-01-01T01:47:16.000Z</time>
      </trkpt>
      <trkpt lat="43.29754" lon="6.55269">
        <ele>128.6</ele>
        <time>1970-01-01T01:47:17.000Z</time>
      </trkpt>
      <trkpt lat="43.29753" lon="6.55279">
        <ele>127.4</ele>
        <time>1970-01-01T01:47:18.000Z</time>
      </trkpt>
      <trkpt lat="43.29753" lon="6.55289">
        <ele>126.4</ele>
        <time>1970-01-01T01:47:19.000Z</time>
      </trkpt>
      <trkpt lat="43.29751" lon="6.55299">
        <ele>125</ele>
        <time>1970-01-01T01:47:20.000Z</time>
      </trkpt>
      <trkpt lat="43.2975" lon="6.55309">
        <ele>123.8</ele>
        <time>1970-01-01T01:47:21.000Z</time>
      </trkpt>
      <trkpt lat="43.29748" lon="6.5533">
        <ele>122.2</ele>
        <time>1970-01-01T01:47:23.000Z</time>
      </trkpt>
      <trkpt lat="43.29745" lon="6.55354">
        <ele>120.4</ele>
        <time>1970-01-01T01:47:25.000Z</time>
      </trkpt>
      <trkpt lat="43.29744" lon="6.55365">
        <ele>119.2</ele>
        <time>1970-01-01T01:47:26.000Z</time>
      </trkpt>
      <trkpt lat="43.29742" lon="6.55377">
        <ele>118</ele>
        <time>1970-01-01T01:47:27.000Z</time>
      </trkpt>
      <trkpt lat="43.29742" lon="6.55386">
        <ele>116.2</ele>
        <time>1970-01-01T01:47:28.000Z</time>
      </trkpt>
      <trkpt lat="43.29742" lon="6.55393">
        <ele>115.4</ele>
        <time>1970-01-01T01:47:29.000Z</time>
      </trkpt>
      <trkpt lat="43.29741" lon="6.55398">
        <ele>114.6</ele>
        <time>1970-01-01T01:47:30.000Z</time>
      </trkpt>
      <trkpt lat="43.29737" lon="6.55407">
        <ele>113.6</ele>
        <time>1970-01-01T01:47:32.000Z</time>
      </trkpt>
      <trkpt lat="43.29735" lon="6.55418">
        <ele>111.8</ele>
        <time>1970-01-01T01:47:34.000Z</time>
      </trkpt>
      <trkpt lat="43.29734" lon="6.55425">
        <ele>110.2</ele>
        <time>1970-01-01T01:47:35.000Z</time>
      </trkpt>
      <trkpt lat="43.29733" lon="6.55433">
        <ele>108.6</ele>
        <time>1970-01-01T01:47:36.000Z</time>
      </trkpt>
      <trkpt lat="43.29731" lon="6.55441">
        <ele>107.8</ele>
        <time>1970-01-01T01:47:37.000Z</time>
      </trkpt>
      <trkpt lat="43.2973" lon="6.55448">
        <ele>107.2</ele>
        <time>1970-01-01T01:47:38.000Z</time>
      </trkpt>
      <trkpt lat="43.29725" lon="6.55471">
        <ele>106</ele>
        <time>1970-01-01T01:47:41.000Z</time>
      </trkpt>
      <trkpt lat="43.29724" lon="6.5548">
        <ele>105.8</ele>
        <time>1970-01-01T01:47:42.000Z</time>
      </trkpt>
      <trkpt lat="43.29734" lon="6.55544">
        <ele>105</ele>
        <time>1970-01-01T01:47:49.000Z</time>
      </trkpt>
      <trkpt lat="43.29735" lon="6.55552">
        <ele>104.4</ele>
        <time>1970-01-01T01:47:50.000Z</time>
      </trkpt>
      <trkpt lat="43.29735" lon="6.55559">
        <ele>102.6</ele>
        <time>1970-01-01T01:47:51.000Z</time>
      </trkpt>
      <trkpt lat="43.29735" lon="6.55566">
        <ele>101.6</ele>
        <time>1970-01-01T01:47:52.000Z</time>
      </trkpt>
      <trkpt lat="43.29734" lon="6.55573">
        <ele>100.8</ele>
        <time>1970-01-01T01:47:53.000Z</time>
      </trkpt>
      <trkpt lat="43.29732" lon="6.55585">
        <ele>99.8</ele>
        <time>1970-01-01T01:47:55.000Z</time>
      </trkpt>
      <trkpt lat="43.2973" lon="6.556">
        <ele>98.8</ele>
        <time>1970-01-01T01:47:57.000Z</time>
      </trkpt>
      <trkpt lat="43.29729" lon="6.55608">
        <ele>98.2</ele>
        <time>1970-01-01T01:47:58.000Z</time>
      </trkpt>
      <trkpt lat="43.29724" lon="6.55641">
        <ele>97</ele>
        <time>1970-01-01T01:48:02.000Z</time>
      </trkpt>
      <trkpt lat="43.29721" lon="6.55665">
        <ele>95.8</ele>
        <time>1970-01-01T01:48:06.000Z</time>
      </trkpt>
      <trkpt lat="43.29721" lon="6.5568">
        <ele>94.6</ele>
        <time>1970-01-01T01:48:09.000Z</time>
      </trkpt>
      <trkpt lat="43.29721" lon="6.55693">
        <ele>93.4</ele>
        <time>1970-01-01T01:48:14.000Z</time>
      </trkpt>
      <trkpt lat="43.29718" lon="6.55701">
        <ele>92.2</ele>
        <time>1970-01-01T01:49:15.000Z</time>
      </trkpt>
      <trkpt lat="43.29682" lon="6.55759">
        <ele>92.8</ele>
        <time>1970-01-01T01:49:29.000Z</time>
      </trkpt>
      <trkpt lat="43.29663" lon="6.55792">
        <ele>93.4</ele>
        <time>1970-01-01T01:49:37.000Z</time>
      </trkpt>
      <trkpt lat="43.29643" lon="6.5583">
        <ele>94.6</ele>
        <time>1970-01-01T01:49:46.000Z</time>
      </trkpt>
      <trkpt lat="43.2963" lon="6.55853">
        <ele>95.6</ele>
        <time>1970-01-01T01:49:52.000Z</time>
      </trkpt>
      <trkpt lat="43.29618" lon="6.55882">
        <ele>96.6</ele>
        <time>1970-01-01T01:49:59.000Z</time>
      </trkpt>
      <trkpt lat="43.2961" lon="6.55908">
        <ele>97.8</ele>
        <time>1970-01-01T01:50:05.000Z</time>
      </trkpt>
      <trkpt lat="43.29601" lon="6.55934">
        <ele>99.4</ele>
        <time>1970-01-01T01:50:11.000Z</time>
      </trkpt>
      <trkpt lat="43.29595" lon="6.55955">
        <ele>100.6</ele>
        <time>1970-01-01T01:50:16.000Z</time>
      </trkpt>
      <trkpt lat="43.29588" lon="6.5598">
        <ele>101.6</ele>
        <time>1970-01-01T01:50:22.000Z</time>
      </trkpt>
      <trkpt lat="43.29584" lon="6.56003">
        <ele>102.8</ele>
        <time>1970-01-01T01:50:27.000Z</time>
      </trkpt>
      <trkpt lat="43.29585" lon="6.56038">
        <ele>103.8</ele>
        <time>1970-01-01T01:50:35.000Z</time>
      </trkpt>
      <trkpt lat="43.2959" lon="6.56059">
        <ele>105.2</ele>
        <time>1970-01-01T01:50:40.000Z</time>
      </trkpt>
      <trkpt lat="43.29601" lon="6.56075">
        <ele>106.6</ele>
        <time>1970-01-01T01:50:45.000Z</time>
      </trkpt>
      <trkpt lat="43.29622" lon="6.56091">
        <ele>107.6</ele>
        <time>1970-01-01T01:50:52.000Z</time>
      </trkpt>
      <trkpt lat="43.2964" lon="6.56099">
        <ele>108.8</ele>
        <time>1970-01-01T01:50:58.000Z</time>
      </trkpt>
      <trkpt lat="43.29658" lon="6.56109">
        <ele>110</ele>
        <time>1970-01-01T01:51:04.000Z</time>
      </trkpt>
      <trkpt lat="43.29674" lon="6.56113">
        <ele>111</ele>
        <time>1970-01-01T01:51:09.000Z</time>
      </trkpt>
      <trkpt lat="43.29687" lon="6.56113">
        <ele>112.2</ele>
        <time>1970-01-01T01:51:13.000Z</time>
      </trkpt>
      <trkpt lat="43.29702" lon="6.56106">
        <ele>113.2</ele>
        <time>1970-01-01T01:51:18.000Z</time>
      </trkpt>
      <trkpt lat="43.29711" lon="6.561">
        <ele>114.4</ele>
        <time>1970-01-01T01:51:21.000Z</time>
      </trkpt>
      <trkpt lat="43.29729" lon="6.56087">
        <ele>115.4</ele>
        <time>1970-01-01T01:51:27.000Z</time>
      </trkpt>
      <trkpt lat="43.29741" lon="6.56073">
        <ele>116.4</ele>
        <time>1970-01-01T01:51:32.000Z</time>
      </trkpt>
      <trkpt lat="43.29751" lon="6.56061">
        <ele>117.8</ele>
        <time>1970-01-01T01:51:36.000Z</time>
      </trkpt>
      <trkpt lat="43.29764" lon="6.56043">
        <ele>118.8</ele>
        <time>1970-01-01T01:51:41.000Z</time>
      </trkpt>
      <trkpt lat="43.29771" lon="6.56027">
        <ele>120</ele>
        <time>1970-01-01T01:51:45.000Z</time>
      </trkpt>
      <trkpt lat="43.29778" lon="6.56017">
        <ele>121</ele>
        <time>1970-01-01T01:51:48.000Z</time>
      </trkpt>
      <trkpt lat="43.29791" lon="6.56009">
        <ele>122</ele>
        <time>1970-01-01T01:51:52.000Z</time>
      </trkpt>
      <trkpt lat="43.29809" lon="6.56002">
        <ele>123.2</ele>
        <time>1970-01-01T01:51:57.000Z</time>
      </trkpt>
      <trkpt lat="43.29828" lon="6.55988">
        <ele>124.4</ele>
        <time>1970-01-01T01:52:03.000Z</time>
      </trkpt>
      <trkpt lat="43.2984" lon="6.55978">
        <ele>125.4</ele>
        <time>1970-01-01T01:52:07.000Z</time>
      </trkpt>
      <trkpt lat="43.29856" lon="6.55965">
        <ele>126.6</ele>
        <time>1970-01-01T01:52:12.000Z</time>
      </trkpt>
      <trkpt lat="43.29867" lon="6.55954">
        <ele>127.8</ele>
        <time>1970-01-01T01:52:16.000Z</time>
      </trkpt>
      <trkpt lat="43.29879" lon="6.5594">
        <ele>128.8</ele>
        <time>1970-01-01T01:52:21.000Z</time>
      </trkpt>
      <trkpt lat="43.29891" lon="6.55924">
        <ele>130</ele>
        <time>1970-01-01T01:52:26.000Z</time>
      </trkpt>
      <trkpt lat="43.29902" lon="6.55905">
        <ele>131.6</ele>
        <time>1970-01-01T01:52:31.000Z</time>
      </trkpt>
      <trkpt lat="43.29919" lon="6.55881">
        <ele>132.6</ele>
        <time>1970-01-01T01:52:38.000Z</time>
      </trkpt>
      <trkpt lat="43.29941" lon="6.5586">
        <ele>133.8</ele>
        <time>1970-01-01T01:52:46.000Z</time>
      </trkpt>
      <trkpt lat="43.29958" lon="6.5585">
        <ele>134.8</ele>
        <time>1970-01-01T01:52:51.000Z</time>
      </trkpt>
      <trkpt lat="43.29977" lon="6.55839">
        <ele>136.2</ele>
        <time>1970-01-01T01:52:57.000Z</time>
      </trkpt>
      <trkpt lat="43.29986" lon="6.55835">
        <ele>137.2</ele>
        <time>1970-01-01T01:53:00.000Z</time>
      </trkpt>
      <trkpt lat="43.29999" lon="6.5583">
        <ele>138.4</ele>
        <time>1970-01-01T01:53:04.000Z</time>
      </trkpt>
      <trkpt lat="43.30014" lon="6.55824">
        <ele>139.6</ele>
        <time>1970-01-01T01:53:09.000Z</time>
      </trkpt>
      <trkpt lat="43.30034" lon="6.55816">
        <ele>141</ele>
        <time>1970-01-01T01:53:15.000Z</time>
      </trkpt>
      <trkpt lat="43.30055" lon="6.558">
        <ele>142</ele>
        <time>1970-01-01T01:53:21.000Z</time>
      </trkpt>
      <trkpt lat="43.30073" lon="6.55775">
        <ele>143</ele>
        <time>1970-01-01T01:53:27.000Z</time>
      </trkpt>
      <trkpt lat="43.30087" lon="6.55749">
        <ele>144.2</ele>
        <time>1970-01-01T01:53:32.000Z</time>
      </trkpt>
      <trkpt lat="43.30115" lon="6.55697">
        <ele>145.6</ele>
        <time>1970-01-01T01:53:42.000Z</time>
      </trkpt>
      <trkpt lat="43.30143" lon="6.55659">
        <ele>146.2</ele>
        <time>1970-01-01T01:53:50.000Z</time>
      </trkpt>
      <trkpt lat="43.30172" lon="6.5565">
        <ele>146.4</ele>
        <time>1970-01-01T01:53:56.000Z</time>
      </trkpt>
      <trkpt lat="43.30182" lon="6.55649">
        <ele>146.6</ele>
        <time>1970-01-01T01:53:58.000Z</time>
      </trkpt>
      <trkpt lat="43.30223" lon="6.55636">
        <ele>147.6</ele>
        <time>1970-01-01T01:54:07.000Z</time>
      </trkpt>
      <trkpt lat="43.30244" lon="6.5562">
        <ele>148.4</ele>
        <time>1970-01-01T01:54:12.000Z</time>
      </trkpt>
      <trkpt lat="43.30252" lon="6.55612">
        <ele>148.6</ele>
        <time>1970-01-01T01:54:14.000Z</time>
      </trkpt>
      <trkpt lat="43.30273" lon="6.55589">
        <ele>149</ele>
        <time>1970-01-01T01:54:20.000Z</time>
      </trkpt>
      <trkpt lat="43.30281" lon="6.55574">
        <ele>149.2</ele>
        <time>1970-01-01T01:54:23.000Z</time>
      </trkpt>
      <trkpt lat="43.30296" lon="6.55563">
        <ele>149.8</ele>
        <time>1970-01-01T01:54:27.000Z</time>
      </trkpt>
      <trkpt lat="43.30311" lon="6.55567">
        <ele>150.2</ele>
        <time>1970-01-01T01:54:31.000Z</time>
      </trkpt>
      <trkpt lat="43.30323" lon="6.5557">
        <ele>150.4</ele>
        <time>1970-01-01T01:54:34.000Z</time>
      </trkpt>
      <trkpt lat="43.30335" lon="6.5557">
        <ele>150.8</ele>
        <time>1970-01-01T01:54:37.000Z</time>
      </trkpt>
      <trkpt lat="43.30355" lon="6.55567">
        <ele>152</ele>
        <time>1970-01-01T01:54:42.000Z</time>
      </trkpt>
      <trkpt lat="43.30385" lon="6.55558">
        <ele>153</ele>
        <time>1970-01-01T01:54:50.000Z</time>
      </trkpt>
      <trkpt lat="43.30401" lon="6.55543">
        <ele>154</ele>
        <time>1970-01-01T01:54:55.000Z</time>
      </trkpt>
      <trkpt lat="43.30414" lon="6.55531">
        <ele>155.2</ele>
        <time>1970-01-01T01:54:59.000Z</time>
      </trkpt>
      <trkpt lat="43.30431" lon="6.55515">
        <ele>156.2</ele>
        <time>1970-01-01T01:55:04.000Z</time>
      </trkpt>
      <trkpt lat="43.30435" lon="6.55512">
        <ele>156.6</ele>
        <time>1970-01-01T01:55:05.000Z</time>
      </trkpt>
      <trkpt lat="43.30447" lon="6.55506">
        <ele>157.2</ele>
        <time>1970-01-01T01:55:08.000Z</time>
      </trkpt>
      <trkpt lat="43.30472" lon="6.55491">
        <ele>158.4</ele>
        <time>1970-01-01T01:55:15.000Z</time>
      </trkpt>
      <trkpt lat="43.30486" lon="6.55473">
        <ele>159.8</ele>
        <time>1970-01-01T01:55:20.000Z</time>
      </trkpt>
      <trkpt lat="43.30497" lon="6.55458">
        <ele>161.2</ele>
        <time>1970-01-01T01:55:24.000Z</time>
      </trkpt>
      <trkpt lat="43.30515" lon="6.5544">
        <ele>162.4</ele>
        <time>1970-01-01T01:55:30.000Z</time>
      </trkpt>
      <trkpt lat="43.30542" lon="6.55432">
        <ele>163.4</ele>
        <time>1970-01-01T01:55:37.000Z</time>
      </trkpt>
      <trkpt lat="43.30575" lon="6.5542">
        <ele>164.4</ele>
        <time>1970-01-01T01:55:45.000Z</time>
      </trkpt>
      <trkpt lat="43.30593" lon="6.55407">
        <ele>165.6</ele>
        <time>1970-01-01T01:55:50.000Z</time>
      </trkpt>
      <trkpt lat="43.30608" lon="6.55391">
        <ele>166.6</ele>
        <time>1970-01-01T01:55:54.000Z</time>
      </trkpt>
      <trkpt lat="43.30622" lon="6.55369">
        <ele>167.8</ele>
        <time>1970-01-01T01:55:59.000Z</time>
      </trkpt>
      <trkpt lat="43.3063" lon="6.5535">
        <ele>168.4</ele>
        <time>1970-01-01T01:56:03.000Z</time>
      </trkpt>
      <trkpt lat="43.30633" lon="6.55339">
        <ele>168.8</ele>
        <time>1970-01-01T01:56:05.000Z</time>
      </trkpt>
      <trkpt lat="43.30626" lon="6.55306">
        <ele>169.8</ele>
        <time>1970-01-01T01:56:11.000Z</time>
      </trkpt>
      <trkpt lat="43.30624" lon="6.55301">
        <ele>170</ele>
        <time>1970-01-01T01:56:12.000Z</time>
      </trkpt>
      <trkpt lat="43.30609" lon="6.55272">
        <ele>170.8</ele>
        <time>1970-01-01T01:56:18.000Z</time>
      </trkpt>
      <trkpt lat="43.30621" lon="6.55232">
        <ele>171.2</ele>
        <time>1970-01-01T01:56:25.000Z</time>
      </trkpt>
      <trkpt lat="43.30628" lon="6.55225">
        <ele>171.2</ele>
        <time>1970-01-01T01:56:27.000Z</time>
      </trkpt>
      <trkpt lat="43.30636" lon="6.55218">
        <ele>171.4</ele>
        <time>1970-01-01T01:56:29.000Z</time>
      </trkpt>
      <trkpt lat="43.30646" lon="6.55212">
        <ele>171.6</ele>
        <time>1970-01-01T01:56:31.000Z</time>
      </trkpt>
      <trkpt lat="43.30656" lon="6.5521">
        <ele>172.2</ele>
        <time>1970-01-01T01:56:33.000Z</time>
      </trkpt>
      <trkpt lat="43.30677" lon="6.55218">
        <ele>172.8</ele>
        <time>1970-01-01T01:56:37.000Z</time>
      </trkpt>
      <trkpt lat="43.30696" lon="6.55227">
        <ele>173.2</ele>
        <time>1970-01-01T01:56:41.000Z</time>
      </trkpt>
      <trkpt lat="43.30701" lon="6.55228">
        <ele>173.4</ele>
        <time>1970-01-01T01:56:42.000Z</time>
      </trkpt>
      <trkpt lat="43.30732" lon="6.55213">
        <ele>174.4</ele>
        <time>1970-01-01T01:56:49.000Z</time>
      </trkpt>
      <trkpt lat="43.30742" lon="6.55203">
        <ele>174.8</ele>
        <time>1970-01-01T01:56:52.000Z</time>
      </trkpt>
      <trkpt lat="43.30761" lon="6.55189">
        <ele>175.8</ele>
        <time>1970-01-01T01:56:58.000Z</time>
      </trkpt>
      <trkpt lat="43.30793" lon="6.55169">
        <ele>176.4</ele>
        <time>1970-01-01T01:57:10.000Z</time>
      </trkpt>
      <trkpt lat="43.30798" lon="6.55165">
        <ele>176.6</ele>
        <time>1970-01-01T01:57:16.000Z</time>
      </trkpt>
      <trkpt lat="43.30793" lon="6.55167">
        <ele>176.6</ele>
        <time>1970-01-01T01:57:22.000Z</time>
      </trkpt>
      <trkpt lat="43.30793" lon="6.55167">
        <ele>176.6</ele>
        <time>1970-01-01T01:57:24.000Z</time>
      </trkpt>
      <trkpt lat="43.30785" lon="6.55173">
        <ele>176.2</ele>
        <time>1970-01-01T02:06:01.000Z</time>
      </trkpt>
      <trkpt lat="43.30763" lon="6.55181">
        <ele>176.2</ele>
        <time>1970-01-01T02:06:08.000Z</time>
      </trkpt>
      <trkpt lat="43.30741" lon="6.55198">
        <ele>176</ele>
        <time>1970-01-01T02:06:13.000Z</time>
      </trkpt>
      <trkpt lat="43.30728" lon="6.55212">
        <ele>176</ele>
        <time>1970-01-01T02:06:16.000Z</time>
      </trkpt>
      <trkpt lat="43.30704" lon="6.5522">
        <ele>175.6</ele>
        <time>1970-01-01T02:06:20.000Z</time>
      </trkpt>
      <trkpt lat="43.3068" lon="6.5521">
        <ele>174.8</ele>
        <time>1970-01-01T02:06:24.000Z</time>
      </trkpt>
      <trkpt lat="43.30668" lon="6.55204">
        <ele>174.4</ele>
        <time>1970-01-01T02:06:26.000Z</time>
      </trkpt>
      <trkpt lat="43.30633" lon="6.55215">
        <ele>173.6</ele>
        <time>1970-01-01T02:06:31.000Z</time>
      </trkpt>
      <trkpt lat="43.30621" lon="6.55224">
        <ele>173.4</ele>
        <time>1970-01-01T02:06:33.000Z</time>
      </trkpt>
      <trkpt lat="43.30617" lon="6.55229">
        <ele>173.2</ele>
        <time>1970-01-01T02:06:34.000Z</time>
      </trkpt>
      <trkpt lat="43.30612" lon="6.55289">
        <ele>172.4</ele>
        <time>1970-01-01T02:06:42.000Z</time>
      </trkpt>
      <trkpt lat="43.30615" lon="6.55295">
        <ele>172.2</ele>
        <time>1970-01-01T02:06:43.000Z</time>
      </trkpt>
      <trkpt lat="43.30618" lon="6.55302">
        <ele>172</ele>
        <time>1970-01-01T02:06:44.000Z</time>
      </trkpt>
      <trkpt lat="43.30608" lon="6.55358">
        <ele>171.4</ele>
        <time>1970-01-01T02:06:56.000Z</time>
      </trkpt>
      <trkpt lat="43.30592" lon="6.5536">
        <ele>173.8</ele>
        <time>1970-01-01T02:07:05.000Z</time>
      </trkpt>
      <trkpt lat="43.30591" lon="6.55358">
        <ele>174</ele>
        <time>1970-01-01T02:07:06.000Z</time>
      </trkpt>
      <trkpt lat="43.3059" lon="6.55349">
        <ele>174.6</ele>
        <time>1970-01-01T02:07:10.000Z</time>
      </trkpt>
      <trkpt lat="43.3059" lon="6.55346">
        <ele>175</ele>
        <time>1970-01-01T02:07:11.000Z</time>
      </trkpt>
      <trkpt lat="43.30587" lon="6.55339">
        <ele>176.2</ele>
        <time>1970-01-01T02:07:14.000Z</time>
      </trkpt>
      <trkpt lat="43.30582" lon="6.55334">
        <ele>177.4</ele>
        <time>1970-01-01T02:07:17.000Z</time>
      </trkpt>
      <trkpt lat="43.30575" lon="6.55329">
        <ele>178.8</ele>
        <time>1970-01-01T02:07:21.000Z</time>
      </trkpt>
      <trkpt lat="43.30567" lon="6.55325">
        <ele>179.8</ele>
        <time>1970-01-01T02:07:25.000Z</time>
      </trkpt>
      <trkpt lat="43.30554" lon="6.55318">
        <ele>181.2</ele>
        <time>1970-01-01T02:07:31.000Z</time>
      </trkpt>
      <trkpt lat="43.30541" lon="6.55313">
        <ele>182.2</ele>
        <time>1970-01-01T02:07:37.000Z</time>
      </trkpt>
      <trkpt lat="43.30526" lon="6.55306">
        <ele>183.4</ele>
        <time>1970-01-01T02:07:45.000Z</time>
      </trkpt>
      <trkpt lat="43.30515" lon="6.55303">
        <ele>184.6</ele>
        <time>1970-01-01T02:07:51.000Z</time>
      </trkpt>
      <trkpt lat="43.30506" lon="6.55299">
        <ele>185.8</ele>
        <time>1970-01-01T02:07:56.000Z</time>
      </trkpt>
      <trkpt lat="43.30499" lon="6.55295">
        <ele>187</ele>
        <time>1970-01-01T02:08:00.000Z</time>
      </trkpt>
      <trkpt lat="43.30491" lon="6.55292">
        <ele>188</ele>
        <time>1970-01-01T02:08:04.000Z</time>
      </trkpt>
      <trkpt lat="43.30482" lon="6.55288">
        <ele>189.2</ele>
        <time>1970-01-01T02:08:09.000Z</time>
      </trkpt>
      <trkpt lat="43.30474" lon="6.55287">
        <ele>190.6</ele>
        <time>1970-01-01T02:08:13.000Z</time>
      </trkpt>
      <trkpt lat="43.30469" lon="6.55292">
        <ele>191.8</ele>
        <time>1970-01-01T02:08:17.000Z</time>
      </trkpt>
      <trkpt lat="43.30467" lon="6.55299">
        <ele>193</ele>
        <time>1970-01-01T02:08:20.000Z</time>
      </trkpt>
      <trkpt lat="43.30467" lon="6.55309">
        <ele>194</ele>
        <time>1970-01-01T02:08:25.000Z</time>
      </trkpt>
      <trkpt lat="43.30454" lon="6.55349">
        <ele>195</ele>
        <time>1970-01-01T02:08:47.000Z</time>
      </trkpt>
      <trkpt lat="43.30447" lon="6.55339">
        <ele>196</ele>
        <time>1970-01-01T02:08:53.000Z</time>
      </trkpt>
      <trkpt lat="43.30443" lon="6.55327">
        <ele>197.2</ele>
        <time>1970-01-01T02:08:58.000Z</time>
      </trkpt>
      <trkpt lat="43.30439" lon="6.55316">
        <ele>198.4</ele>
        <time>1970-01-01T02:09:02.000Z</time>
      </trkpt>
      <trkpt lat="43.3043" lon="6.55303">
        <ele>199.6</ele>
        <time>1970-01-01T02:09:08.000Z</time>
      </trkpt>
      <trkpt lat="43.30421" lon="6.55296">
        <ele>200.8</ele>
        <time>1970-01-01T02:09:13.000Z</time>
      </trkpt>
      <trkpt lat="43.30407" lon="6.55284">
        <ele>201.8</ele>
        <time>1970-01-01T02:09:21.000Z</time>
      </trkpt>
      <trkpt lat="43.30395" lon="6.55275">
        <ele>202.8</ele>
        <time>1970-01-01T02:09:28.000Z</time>
      </trkpt>
      <trkpt lat="43.30387" lon="6.55269">
        <ele>204</ele>
        <time>1970-01-01T02:09:33.000Z</time>
      </trkpt>
      <trkpt lat="43.3038" lon="6.55266">
        <ele>205</ele>
        <time>1970-01-01T02:09:38.000Z</time>
      </trkpt>
      <trkpt lat="43.30374" lon="6.55264">
        <ele>206</ele>
        <time>1970-01-01T02:09:43.000Z</time>
      </trkpt>
      <trkpt lat="43.30372" lon="6.55265">
        <ele>206.4</ele>
        <time>1970-01-01T02:09:44.000Z</time>
      </trkpt>
      <trkpt lat="43.30368" lon="6.55272">
        <ele>207.4</ele>
        <time>1970-01-01T02:09:47.000Z</time>
      </trkpt>
      <trkpt lat="43.30368" lon="6.55279">
        <ele>208.4</ele>
        <time>1970-01-01T02:09:50.000Z</time>
      </trkpt>
      <trkpt lat="43.30369" lon="6.55286">
        <ele>209.6</ele>
        <time>1970-01-01T02:09:53.000Z</time>
      </trkpt>
      <trkpt lat="43.30368" lon="6.55295">
        <ele>210.6</ele>
        <time>1970-01-01T02:09:57.000Z</time>
      </trkpt>
      <trkpt lat="43.30367" lon="6.55308">
        <ele>211.8</ele>
        <time>1970-01-01T02:10:02.000Z</time>
      </trkpt>
      <trkpt lat="43.30359" lon="6.55328">
        <ele>212.6</ele>
        <time>1970-01-01T02:10:11.000Z</time>
      </trkpt>
      <trkpt lat="43.30357" lon="6.55329">
        <ele>212.8</ele>
        <time>1970-01-01T02:10:12.000Z</time>
      </trkpt>
      <trkpt lat="43.30351" lon="6.5532">
        <ele>213.8</ele>
        <time>1970-01-01T02:10:18.000Z</time>
      </trkpt>
      <trkpt lat="43.30351" lon="6.55318">
        <ele>214</ele>
        <time>1970-01-01T02:10:19.000Z</time>
      </trkpt>
      <trkpt lat="43.30348" lon="6.55311">
        <ele>215.2</ele>
        <time>1970-01-01T02:10:23.000Z</time>
      </trkpt>
      <trkpt lat="43.30346" lon="6.55305">
        <ele>216</ele>
        <time>1970-01-01T02:10:26.000Z</time>
      </trkpt>
      <trkpt lat="43.30344" lon="6.55301">
        <ele>216.4</ele>
        <time>1970-01-01T02:10:28.000Z</time>
      </trkpt>
      <trkpt lat="43.30339" lon="6.5529">
        <ele>217.8</ele>
        <time>1970-01-01T02:10:33.000Z</time>
      </trkpt>
      <trkpt lat="43.30334" lon="6.55283">
        <ele>218.8</ele>
        <time>1970-01-01T02:10:37.000Z</time>
      </trkpt>
      <trkpt lat="43.30327" lon="6.55276">
        <ele>219.8</ele>
        <time>1970-01-01T02:10:42.000Z</time>
      </trkpt>
      <trkpt lat="43.30319" lon="6.55271">
        <ele>221</ele>
        <time>1970-01-01T02:10:47.000Z</time>
      </trkpt>
      <trkpt lat="43.3031" lon="6.55266">
        <ele>222</ele>
        <time>1970-01-01T02:10:52.000Z</time>
      </trkpt>
      <trkpt lat="43.303" lon="6.55259">
        <ele>223</ele>
        <time>1970-01-01T02:10:59.000Z</time>
      </trkpt>
      <trkpt lat="43.30293" lon="6.55257">
        <ele>224.2</ele>
        <time>1970-01-01T02:11:04.000Z</time>
      </trkpt>
      <trkpt lat="43.30285" lon="6.55256">
        <ele>225.4</ele>
        <time>1970-01-01T02:11:09.000Z</time>
      </trkpt>
      <trkpt lat="43.30279" lon="6.55256">
        <ele>226.6</ele>
        <time>1970-01-01T02:11:13.000Z</time>
      </trkpt>
      <trkpt lat="43.30272" lon="6.55258">
        <ele>227.8</ele>
        <time>1970-01-01T02:11:17.000Z</time>
      </trkpt>
      <trkpt lat="43.30262" lon="6.55263">
        <ele>229</ele>
        <time>1970-01-01T02:11:22.000Z</time>
      </trkpt>
      <trkpt lat="43.30257" lon="6.55268">
        <ele>230.2</ele>
        <time>1970-01-01T02:11:26.000Z</time>
      </trkpt>
      <trkpt lat="43.30251" lon="6.5527">
        <ele>231</ele>
        <time>1970-01-01T02:11:31.000Z</time>
      </trkpt>
      <trkpt lat="43.3025" lon="6.5527">
        <ele>231.2</ele>
        <time>1970-01-01T02:11:32.000Z</time>
      </trkpt>
      <trkpt lat="43.30246" lon="6.55265">
        <ele>232.4</ele>
        <time>1970-01-01T02:11:35.000Z</time>
      </trkpt>
      <trkpt lat="43.30244" lon="6.55256">
        <ele>233.6</ele>
        <time>1970-01-01T02:11:39.000Z</time>
      </trkpt>
      <trkpt lat="43.30245" lon="6.55248">
        <ele>233.8</ele>
        <time>1970-01-01T02:11:42.000Z</time>
      </trkpt>
      <trkpt lat="43.30246" lon="6.55213">
        <ele>234.6</ele>
        <time>1970-01-01T02:11:56.000Z</time>
      </trkpt>
      <trkpt lat="43.30243" lon="6.55204">
        <ele>235.8</ele>
        <time>1970-01-01T02:12:00.000Z</time>
      </trkpt>
      <trkpt lat="43.3024" lon="6.55203">
        <ele>236.2</ele>
        <time>1970-01-01T02:12:01.000Z</time>
      </trkpt>
      <trkpt lat="43.30236" lon="6.55201">
        <ele>237</ele>
        <time>1970-01-01T02:12:03.000Z</time>
      </trkpt>
      <trkpt lat="43.3023" lon="6.552">
        <ele>238</ele>
        <time>1970-01-01T02:12:06.000Z</time>
      </trkpt>
      <trkpt lat="43.30223" lon="6.55199">
        <ele>239</ele>
        <time>1970-01-01T02:12:10.000Z</time>
      </trkpt>
      <trkpt lat="43.30214" lon="6.55198">
        <ele>240.2</ele>
        <time>1970-01-01T02:12:14.000Z</time>
      </trkpt>
      <trkpt lat="43.302" lon="6.55187">
        <ele>241.2</ele>
        <time>1970-01-01T02:12:23.000Z</time>
      </trkpt>
      <trkpt lat="43.30194" lon="6.5518">
        <ele>242.4</ele>
        <time>1970-01-01T02:12:27.000Z</time>
      </trkpt>
      <trkpt lat="43.30178" lon="6.55157">
        <ele>243.4</ele>
        <time>1970-01-01T02:12:39.000Z</time>
      </trkpt>
      <trkpt lat="43.30175" lon="6.55148">
        <ele>244.6</ele>
        <time>1970-01-01T02:12:43.000Z</time>
      </trkpt>
      <trkpt lat="43.30175" lon="6.5514">
        <ele>245.8</ele>
        <time>1970-01-01T02:12:46.000Z</time>
      </trkpt>
      <trkpt lat="43.30177" lon="6.55127">
        <ele>246.8</ele>
        <time>1970-01-01T02:12:52.000Z</time>
      </trkpt>
      <trkpt lat="43.30181" lon="6.55121">
        <ele>248.2</ele>
        <time>1970-01-01T02:12:56.000Z</time>
      </trkpt>
      <trkpt lat="43.30187" lon="6.55117">
        <ele>249.4</ele>
        <time>1970-01-01T02:13:00.000Z</time>
      </trkpt>
      <trkpt lat="43.30196" lon="6.55111">
        <ele>250.4</ele>
        <time>1970-01-01T02:13:06.000Z</time>
      </trkpt>
      <trkpt lat="43.30204" lon="6.55105">
        <ele>251.6</ele>
        <time>1970-01-01T02:13:11.000Z</time>
      </trkpt>
      <trkpt lat="43.30207" lon="6.55092">
        <ele>252.8</ele>
        <time>1970-01-01T02:13:16.000Z</time>
      </trkpt>
      <trkpt lat="43.302" lon="6.55074">
        <ele>254</ele>
        <time>1970-01-01T02:13:23.000Z</time>
      </trkpt>
      <trkpt lat="43.30189" lon="6.55055">
        <ele>255.2</ele>
        <time>1970-01-01T02:13:31.000Z</time>
      </trkpt>
      <trkpt lat="43.30184" lon="6.55048">
        <ele>255.6</ele>
        <time>1970-01-01T02:13:34.000Z</time>
      </trkpt>
      <trkpt lat="43.30176" lon="6.55028">
        <ele>256.2</ele>
        <time>1970-01-01T02:13:43.000Z</time>
      </trkpt>
      <trkpt lat="43.30171" lon="6.55014">
        <ele>257.4</ele>
        <time>1970-01-01T02:13:48.000Z</time>
      </trkpt>
      <trkpt lat="43.30169" lon="6.55005">
        <ele>258.4</ele>
        <time>1970-01-01T02:13:51.000Z</time>
      </trkpt>
      <trkpt lat="43.3017" lon="6.54935">
        <ele>259.2</ele>
        <time>1970-01-01T02:14:06.000Z</time>
      </trkpt>
      <trkpt lat="43.30166" lon="6.54876">
        <ele>257.4</ele>
        <time>1970-01-01T02:14:15.000Z</time>
      </trkpt>
      <trkpt lat="43.30163" lon="6.54846">
        <ele>258.6</ele>
        <time>1970-01-01T02:14:25.000Z</time>
      </trkpt>
      <trkpt lat="43.30162" lon="6.54835">
        <ele>259.8</ele>
        <time>1970-01-01T02:14:29.000Z</time>
      </trkpt>
      <trkpt lat="43.30162" lon="6.54826">
        <ele>261.4</ele>
        <time>1970-01-01T02:14:32.000Z</time>
      </trkpt>
      <trkpt lat="43.30162" lon="6.54816">
        <ele>262.4</ele>
        <time>1970-01-01T02:14:35.000Z</time>
      </trkpt>
      <trkpt lat="43.30166" lon="6.54781">
        <ele>263.4</ele>
        <time>1970-01-01T02:14:46.000Z</time>
      </trkpt>
      <trkpt lat="43.30187" lon="6.54713">
        <ele>264.2</ele>
        <time>1970-01-01T02:15:08.000Z</time>
      </trkpt>
      <trkpt lat="43.30188" lon="6.54711">
        <ele>264.6</ele>
        <time>1970-01-01T02:15:09.000Z</time>
      </trkpt>
      <trkpt lat="43.30194" lon="6.54702">
        <ele>266</ele>
        <time>1970-01-01T02:15:14.000Z</time>
      </trkpt>
      <trkpt lat="43.30196" lon="6.54699">
        <ele>267</ele>
        <time>1970-01-01T02:15:16.000Z</time>
      </trkpt>
      <trkpt lat="43.30199" lon="6.54694">
        <ele>268.2</ele>
        <time>1970-01-01T02:15:19.000Z</time>
      </trkpt>
      <trkpt lat="43.30203" lon="6.54691">
        <ele>269.2</ele>
        <time>1970-01-01T02:15:22.000Z</time>
      </trkpt>
      <trkpt lat="43.30209" lon="6.54689">
        <ele>270.4</ele>
        <time>1970-01-01T02:15:25.000Z</time>
      </trkpt>
      <trkpt lat="43.30217" lon="6.54688">
        <ele>271.4</ele>
        <time>1970-01-01T02:15:29.000Z</time>
      </trkpt>
      <trkpt lat="43.30229" lon="6.54684">
        <ele>272.4</ele>
        <time>1970-01-01T02:15:36.000Z</time>
      </trkpt>
      <trkpt lat="43.30235" lon="6.54681">
        <ele>273.6</ele>
        <time>1970-01-01T02:15:40.000Z</time>
      </trkpt>
      <trkpt lat="43.3024" lon="6.5468">
        <ele>274.8</ele>
        <time>1970-01-01T02:15:43.000Z</time>
      </trkpt>
      <trkpt lat="43.30246" lon="6.54677">
        <ele>276</ele>
        <time>1970-01-01T02:15:47.000Z</time>
      </trkpt>
      <trkpt lat="43.3025" lon="6.54675">
        <ele>277.4</ele>
        <time>1970-01-01T02:15:50.000Z</time>
      </trkpt>
      <trkpt lat="43.30253" lon="6.54673">
        <ele>278.4</ele>
        <time>1970-01-01T02:15:53.000Z</time>
      </trkpt>
      <trkpt lat="43.3026" lon="6.54673">
        <ele>279.6</ele>
        <time>1970-01-01T02:15:57.000Z</time>
      </trkpt>
      <trkpt lat="43.30273" lon="6.54671">
        <ele>280.8</ele>
        <time>1970-01-01T02:16:05.000Z</time>
      </trkpt>
      <trkpt lat="43.30278" lon="6.54672">
        <ele>282</ele>
        <time>1970-01-01T02:16:08.000Z</time>
      </trkpt>
      <trkpt lat="43.30283" lon="6.5467">
        <ele>283.6</ele>
        <time>1970-01-01T02:16:12.000Z</time>
      </trkpt>
      <trkpt lat="43.30287" lon="6.54669">
        <ele>284.8</ele>
        <time>1970-01-01T02:16:15.000Z</time>
      </trkpt>
      <trkpt lat="43.3029" lon="6.54668">
        <ele>285.8</ele>
        <time>1970-01-01T02:16:17.000Z</time>
      </trkpt>
      <trkpt lat="43.30294" lon="6.54665">
        <ele>287</ele>
        <time>1970-01-01T02:16:20.000Z</time>
      </trkpt>
      <trkpt lat="43.30302" lon="6.5466">
        <ele>288.2</ele>
        <time>1970-01-01T02:16:25.000Z</time>
      </trkpt>
      <trkpt lat="43.30306" lon="6.54654">
        <ele>289.2</ele>
        <time>1970-01-01T02:16:29.000Z</time>
      </trkpt>
      <trkpt lat="43.30313" lon="6.54641">
        <ele>290.4</ele>
        <time>1970-01-01T02:16:36.000Z</time>
      </trkpt>
      <trkpt lat="43.30319" lon="6.54626">
        <ele>291.4</ele>
        <time>1970-01-01T02:16:44.000Z</time>
      </trkpt>
      <trkpt lat="43.30324" lon="6.54616">
        <ele>292.6</ele>
        <time>1970-01-01T02:16:49.000Z</time>
      </trkpt>
      <trkpt lat="43.30326" lon="6.54607">
        <ele>293.8</ele>
        <time>1970-01-01T02:16:53.000Z</time>
      </trkpt>
      <trkpt lat="43.30331" lon="6.54593">
        <ele>294.8</ele>
        <time>1970-01-01T02:17:00.000Z</time>
      </trkpt>
      <trkpt lat="43.30332" lon="6.54583">
        <ele>295.8</ele>
        <time>1970-01-01T02:17:04.000Z</time>
      </trkpt>
      <trkpt lat="43.30331" lon="6.54571">
        <ele>296.8</ele>
        <time>1970-01-01T02:17:09.000Z</time>
      </trkpt>
      <trkpt lat="43.3033" lon="6.54557">
        <ele>297.8</ele>
        <time>1970-01-01T02:17:16.000Z</time>
      </trkpt>
      <trkpt lat="43.30325" lon="6.54544">
        <ele>299</ele>
        <time>1970-01-01T02:17:23.000Z</time>
      </trkpt>
      <trkpt lat="43.30312" lon="6.54531">
        <ele>300.2</ele>
        <time>1970-01-01T02:17:35.000Z</time>
      </trkpt>
      <trkpt lat="43.30307" lon="6.54526">
        <ele>301.6</ele>
        <time>1970-01-01T02:17:39.000Z</time>
      </trkpt>
      <trkpt lat="43.30294" lon="6.54519">
        <ele>302.8</ele>
        <time>1970-01-01T02:17:46.000Z</time>
      </trkpt>
      <trkpt lat="43.30287" lon="6.54516">
        <ele>303.8</ele>
        <time>1970-01-01T02:17:50.000Z</time>
      </trkpt>
      <trkpt lat="43.30273" lon="6.54509">
        <ele>305</ele>
        <time>1970-01-01T02:17:59.000Z</time>
      </trkpt>
      <trkpt lat="43.30266" lon="6.54504">
        <ele>306.2</ele>
        <time>1970-01-01T02:18:03.000Z</time>
      </trkpt>
      <trkpt lat="43.30259" lon="6.54497">
        <ele>307.4</ele>
        <time>1970-01-01T02:18:08.000Z</time>
      </trkpt>
      <trkpt lat="43.30254" lon="6.54493">
        <ele>308.6</ele>
        <time>1970-01-01T02:18:11.000Z</time>
      </trkpt>
      <trkpt lat="43.30251" lon="6.54489">
        <ele>309.6</ele>
        <time>1970-01-01T02:18:14.000Z</time>
      </trkpt>
      <trkpt lat="43.30248" lon="6.5448">
        <ele>311</ele>
        <time>1970-01-01T02:18:18.000Z</time>
      </trkpt>
      <trkpt lat="43.30246" lon="6.54475">
        <ele>312.4</ele>
        <time>1970-01-01T02:18:21.000Z</time>
      </trkpt>
      <trkpt lat="43.30241" lon="6.54461">
        <ele>313.4</ele>
        <time>1970-01-01T02:18:28.000Z</time>
      </trkpt>
      <trkpt lat="43.30238" lon="6.54448">
        <ele>314.6</ele>
        <time>1970-01-01T02:18:34.000Z</time>
      </trkpt>
      <trkpt lat="43.30235" lon="6.54438">
        <ele>315.8</ele>
        <time>1970-01-01T02:18:39.000Z</time>
      </trkpt>
      <trkpt lat="43.30232" lon="6.5443">
        <ele>316.8</ele>
        <time>1970-01-01T02:18:43.000Z</time>
      </trkpt>
      <trkpt lat="43.30232" lon="6.5442">
        <ele>317.8</ele>
        <time>1970-01-01T02:18:48.000Z</time>
      </trkpt>
      <trkpt lat="43.30242" lon="6.54385">
        <ele>318.8</ele>
        <time>1970-01-01T02:19:08.000Z</time>
      </trkpt>
      <trkpt lat="43.30245" lon="6.54377">
        <ele>320</ele>
        <time>1970-01-01T02:19:12.000Z</time>
      </trkpt>
      <trkpt lat="43.30247" lon="6.54373">
        <ele>320.4</ele>
        <time>1970-01-01T02:19:14.000Z</time>
      </trkpt>
      <trkpt lat="43.30248" lon="6.54367">
        <ele>321.2</ele>
        <time>1970-01-01T02:19:17.000Z</time>
      </trkpt>
      <trkpt lat="43.30251" lon="6.54355">
        <ele>322.2</ele>
        <time>1970-01-01T02:19:22.000Z</time>
      </trkpt>
      <trkpt lat="43.30255" lon="6.54339">
        <ele>323.2</ele>
        <time>1970-01-01T02:19:30.000Z</time>
      </trkpt>
      <trkpt lat="43.3026" lon="6.54327">
        <ele>324.6</ele>
        <time>1970-01-01T02:19:36.000Z</time>
      </trkpt>
      <trkpt lat="43.30262" lon="6.54322">
        <ele>325.8</ele>
        <time>1970-01-01T02:19:39.000Z</time>
      </trkpt>
      <trkpt lat="43.30264" lon="6.54316">
        <ele>327</ele>
        <time>1970-01-01T02:19:42.000Z</time>
      </trkpt>
      <trkpt lat="43.30266" lon="6.54312">
        <ele>328.4</ele>
        <time>1970-01-01T02:19:44.000Z</time>
      </trkpt>
      <trkpt lat="43.30269" lon="6.54306">
        <ele>329.6</ele>
        <time>1970-01-01T02:19:47.000Z</time>
      </trkpt>
      <trkpt lat="43.30273" lon="6.54299">
        <ele>330.6</ele>
        <time>1970-01-01T02:19:51.000Z</time>
      </trkpt>
      <trkpt lat="43.30277" lon="6.54282">
        <ele>331.6</ele>
        <time>1970-01-01T02:19:58.000Z</time>
      </trkpt>
      <trkpt lat="43.3028" lon="6.54272">
        <ele>332.8</ele>
        <time>1970-01-01T02:20:03.000Z</time>
      </trkpt>
      <trkpt lat="43.30282" lon="6.54263">
        <ele>334</ele>
        <time>1970-01-01T02:20:07.000Z</time>
      </trkpt>
      <trkpt lat="43.30287" lon="6.54251">
        <ele>335.2</ele>
        <time>1970-01-01T02:20:13.000Z</time>
      </trkpt>
      <trkpt lat="43.30293" lon="6.54238">
        <ele>336.2</ele>
        <time>1970-01-01T02:20:19.000Z</time>
      </trkpt>
      <trkpt lat="43.30301" lon="6.54221">
        <ele>337.4</ele>
        <time>1970-01-01T02:20:27.000Z</time>
      </trkpt>
      <trkpt lat="43.303" lon="6.54203">
        <ele>338.4</ele>
        <time>1970-01-01T02:20:34.000Z</time>
      </trkpt>
      <trkpt lat="43.30295" lon="6.54186">
        <ele>339.4</ele>
        <time>1970-01-01T02:20:42.000Z</time>
      </trkpt>
      <trkpt lat="43.30291" lon="6.54177">
        <ele>340.4</ele>
        <time>1970-01-01T02:20:46.000Z</time>
      </trkpt>
      <trkpt lat="43.30287" lon="6.5417">
        <ele>342</ele>
        <time>1970-01-01T02:20:50.000Z</time>
      </trkpt>
      <trkpt lat="43.3028" lon="6.5416">
        <ele>343</ele>
        <time>1970-01-01T02:20:56.000Z</time>
      </trkpt>
      <trkpt lat="43.30275" lon="6.54148">
        <ele>344.2</ele>
        <time>1970-01-01T02:21:02.000Z</time>
      </trkpt>
      <trkpt lat="43.3027" lon="6.54139">
        <ele>345.2</ele>
        <time>1970-01-01T02:21:07.000Z</time>
      </trkpt>
      <trkpt lat="43.30264" lon="6.54128">
        <ele>346.4</ele>
        <time>1970-01-01T02:21:13.000Z</time>
      </trkpt>
      <trkpt lat="43.3026" lon="6.54122">
        <ele>347.6</ele>
        <time>1970-01-01T02:21:17.000Z</time>
      </trkpt>
      <trkpt lat="43.30253" lon="6.54113">
        <ele>348.8</ele>
        <time>1970-01-01T02:21:22.000Z</time>
      </trkpt>
      <trkpt lat="43.30248" lon="6.54104">
        <ele>349.8</ele>
        <time>1970-01-01T02:21:26.000Z</time>
      </trkpt>
      <trkpt lat="43.30246" lon="6.54101">
        <ele>350</ele>
        <time>1970-01-01T02:21:27.000Z</time>
      </trkpt>
      <trkpt lat="43.30223" lon="6.54027">
        <ele>349.8</ele>
        <time>1970-01-01T02:21:40.000Z</time>
      </trkpt>
      <trkpt lat="43.30219" lon="6.54005">
        <ele>349.2</ele>
        <time>1970-01-01T02:21:42.000Z</time>
      </trkpt>
      <trkpt lat="43.30216" lon="6.53988">
        <ele>348.4</ele>
        <time>1970-01-01T02:21:44.000Z</time>
      </trkpt>
      <trkpt lat="43.30213" lon="6.5397">
        <ele>347.2</ele>
        <time>1970-01-01T02:21:48.000Z</time>
      </trkpt>
      <trkpt lat="43.30212" lon="6.53934">
        <ele>347.2</ele>
        <time>1970-01-01T02:21:59.000Z</time>
      </trkpt>
      <trkpt lat="43.30219" lon="6.53933">
        <ele>348.4</ele>
        <time>1970-01-01T02:22:03.000Z</time>
      </trkpt>
      <trkpt lat="43.30223" lon="6.5394">
        <ele>349</ele>
        <time>1970-01-01T02:22:06.000Z</time>
      </trkpt>
      <trkpt lat="43.30226" lon="6.53945">
        <ele>349.4</ele>
        <time>1970-01-01T02:22:08.000Z</time>
      </trkpt>
      <trkpt lat="43.30233" lon="6.53952">
        <ele>350.4</ele>
        <time>1970-01-01T02:22:12.000Z</time>
      </trkpt>
      <trkpt lat="43.3025" lon="6.53948">
        <ele>351.6</ele>
        <time>1970-01-01T02:22:21.000Z</time>
      </trkpt>
      <trkpt lat="43.30254" lon="6.53946">
        <ele>353</ele>
        <time>1970-01-01T02:22:24.000Z</time>
      </trkpt>
      <trkpt lat="43.30258" lon="6.53944">
        <ele>354</ele>
        <time>1970-01-01T02:22:26.000Z</time>
      </trkpt>
      <trkpt lat="43.30261" lon="6.53943">
        <ele>355.2</ele>
        <time>1970-01-01T02:22:28.000Z</time>
      </trkpt>
      <trkpt lat="43.30264" lon="6.53941">
        <ele>356.2</ele>
        <time>1970-01-01T02:22:30.000Z</time>
      </trkpt>
      <trkpt lat="43.30267" lon="6.53939">
        <ele>357.4</ele>
        <time>1970-01-01T02:22:32.000Z</time>
      </trkpt>
      <trkpt lat="43.30273" lon="6.53933">
        <ele>358.8</ele>
        <time>1970-01-01T02:22:36.000Z</time>
      </trkpt>
      <trkpt lat="43.30282" lon="6.5393">
        <ele>359.8</ele>
        <time>1970-01-01T02:22:41.000Z</time>
      </trkpt>
      <trkpt lat="43.30292" lon="6.53926">
        <ele>361</ele>
        <time>1970-01-01T02:22:47.000Z</time>
      </trkpt>
      <trkpt lat="43.30298" lon="6.53918">
        <ele>362.2</ele>
        <time>1970-01-01T02:22:51.000Z</time>
      </trkpt>
      <trkpt lat="43.30306" lon="6.539">
        <ele>363.4</ele>
        <time>1970-01-01T02:22:59.000Z</time>
      </trkpt>
      <trkpt lat="43.30334" lon="6.53876">
        <ele>364.4</ele>
        <time>1970-01-01T02:23:17.000Z</time>
      </trkpt>
      <trkpt lat="43.30344" lon="6.53871">
        <ele>365.8</ele>
        <time>1970-01-01T02:23:22.000Z</time>
      </trkpt>
      <trkpt lat="43.30349" lon="6.53869">
        <ele>367.4</ele>
        <time>1970-01-01T02:23:25.000Z</time>
      </trkpt>
      <trkpt lat="43.30356" lon="6.53867">
        <ele>368.6</ele>
        <time>1970-01-01T02:23:28.000Z</time>
      </trkpt>
      <trkpt lat="43.30366" lon="6.53864">
        <ele>369.8</ele>
        <time>1970-01-01T02:23:33.000Z</time>
      </trkpt>
      <trkpt lat="43.30373" lon="6.53864">
        <ele>371</ele>
        <time>1970-01-01T02:23:36.000Z</time>
      </trkpt>
      <trkpt lat="43.3038" lon="6.53865">
        <ele>372.2</ele>
        <time>1970-01-01T02:23:39.000Z</time>
      </trkpt>
      <trkpt lat="43.30386" lon="6.53868">
        <ele>373.6</ele>
        <time>1970-01-01T02:23:42.000Z</time>
      </trkpt>
      <trkpt lat="43.30391" lon="6.53871">
        <ele>374.8</ele>
        <time>1970-01-01T02:23:45.000Z</time>
      </trkpt>
      <trkpt lat="43.30392" lon="6.53873">
        <ele>375.2</ele>
        <time>1970-01-01T02:23:46.000Z</time>
      </trkpt>
      <trkpt lat="43.30392" lon="6.53874">
        <ele>376</ele>
        <time>1970-01-01T02:23:47.000Z</time>
      </trkpt>
      <trkpt lat="43.30396" lon="6.53881">
        <ele>377</ele>
        <time>1970-01-01T02:23:52.000Z</time>
      </trkpt>
      <trkpt lat="43.30397" lon="6.53885">
        <ele>377.6</ele>
        <time>1970-01-01T02:23:54.000Z</time>
      </trkpt>
      <trkpt lat="43.30401" lon="6.53893">
        <ele>378.2</ele>
        <time>1970-01-01T02:23:59.000Z</time>
      </trkpt>
      <trkpt lat="43.304" lon="6.53898">
        <ele>378.2</ele>
        <time>1970-01-01T02:24:02.000Z</time>
      </trkpt>
      <trkpt lat="43.30395" lon="6.53906">
        <ele>378.2</ele>
        <time>1970-01-01T02:24:06.000Z</time>
      </trkpt>
      <trkpt lat="43.3039" lon="6.53914">
        <ele>378.2</ele>
        <time>1970-01-01T02:24:11.000Z</time>
      </trkpt>
      <trkpt lat="43.30384" lon="6.53918">
        <ele>377.6</ele>
        <time>1970-01-01T02:27:29.000Z</time>
      </trkpt>
      <trkpt lat="43.30372" lon="6.53927">
        <ele>377.6</ele>
        <time>1970-01-01T02:27:32.000Z</time>
      </trkpt>
      <trkpt lat="43.3034" lon="6.53931">
        <ele>377.2</ele>
        <time>1970-01-01T02:27:39.000Z</time>
      </trkpt>
      <trkpt lat="43.30335" lon="6.53944">
        <ele>375.8</ele>
        <time>1970-01-01T02:27:43.000Z</time>
      </trkpt>
      <trkpt lat="43.30332" lon="6.53953">
        <ele>374.8</ele>
        <time>1970-01-01T02:27:45.000Z</time>
      </trkpt>
      <trkpt lat="43.3033" lon="6.53959">
        <ele>374.2</ele>
        <time>1970-01-01T02:27:46.000Z</time>
      </trkpt>
      <trkpt lat="43.30323" lon="6.53971">
        <ele>373.2</ele>
        <time>1970-01-01T02:27:48.000Z</time>
      </trkpt>
      <trkpt lat="43.30305" lon="6.53992">
        <ele>372.6</ele>
        <time>1970-01-01T02:27:51.000Z</time>
      </trkpt>
      <trkpt lat="43.30296" lon="6.54007">
        <ele>372</ele>
        <time>1970-01-01T02:27:53.000Z</time>
      </trkpt>
      <trkpt lat="43.30298" lon="6.54022">
        <ele>370.8</ele>
        <time>1970-01-01T02:27:55.000Z</time>
      </trkpt>
      <trkpt lat="43.30298" lon="6.5403">
        <ele>369.8</ele>
        <time>1970-01-01T02:27:56.000Z</time>
      </trkpt>
      <trkpt lat="43.30299" lon="6.54048">
        <ele>368.4</ele>
        <time>1970-01-01T02:27:58.000Z</time>
      </trkpt>
      <trkpt lat="43.30303" lon="6.54053">
        <ele>367.2</ele>
        <time>1970-01-01T02:27:59.000Z</time>
      </trkpt>
      <trkpt lat="43.30306" lon="6.54058">
        <ele>366</ele>
        <time>1970-01-01T02:28:00.000Z</time>
      </trkpt>
      <trkpt lat="43.3031" lon="6.54062">
        <ele>365</ele>
        <time>1970-01-01T02:28:01.000Z</time>
      </trkpt>
      <trkpt lat="43.30313" lon="6.54072">
        <ele>363.4</ele>
        <time>1970-01-01T02:28:03.000Z</time>
      </trkpt>
      <trkpt lat="43.30314" lon="6.54089">
        <ele>361.8</ele>
        <time>1970-01-01T02:28:05.000Z</time>
      </trkpt>
      <trkpt lat="43.30312" lon="6.54102">
        <ele>360</ele>
        <time>1970-01-01T02:28:06.000Z</time>
      </trkpt>
      <trkpt lat="43.30312" lon="6.54113">
        <ele>358.2</ele>
        <time>1970-01-01T02:28:07.000Z</time>
      </trkpt>
      <trkpt lat="43.30312" lon="6.54126">
        <ele>356.6</ele>
        <time>1970-01-01T02:28:08.000Z</time>
      </trkpt>
      <trkpt lat="43.30309" lon="6.54149">
        <ele>354.8</ele>
        <time>1970-01-01T02:28:10.000Z</time>
      </trkpt>
      <trkpt lat="43.30309" lon="6.5416">
        <ele>353.2</ele>
        <time>1970-01-01T02:28:11.000Z</time>
      </trkpt>
      <trkpt lat="43.30309" lon="6.54171">
        <ele>351</ele>
        <time>1970-01-01T02:28:12.000Z</time>
      </trkpt>
      <trkpt lat="43.3031" lon="6.54181">
        <ele>349.2</ele>
        <time>1970-01-01T02:28:13.000Z</time>
      </trkpt>
      <trkpt lat="43.30311" lon="6.54192">
        <ele>347.8</ele>
        <time>1970-01-01T02:28:14.000Z</time>
      </trkpt>
      <trkpt lat="43.30313" lon="6.54213">
        <ele>346.4</ele>
        <time>1970-01-01T02:28:16.000Z</time>
      </trkpt>
      <trkpt lat="43.30321" lon="6.54229">
        <ele>345.2</ele>
        <time>1970-01-01T02:28:18.000Z</time>
      </trkpt>
      <trkpt lat="43.30327" lon="6.54242">
        <ele>343.4</ele>
        <time>1970-01-01T02:28:20.000Z</time>
      </trkpt>
      <trkpt lat="43.30328" lon="6.54256">
        <ele>342.4</ele>
        <time>1970-01-01T02:28:22.000Z</time>
      </trkpt>
      <trkpt lat="43.30329" lon="6.54271">
        <ele>341.2</ele>
        <time>1970-01-01T02:28:24.000Z</time>
      </trkpt>
      <trkpt lat="43.30329" lon="6.54278">
        <ele>341</ele>
        <time>1970-01-01T02:28:25.000Z</time>
      </trkpt>
      <trkpt lat="43.30305" lon="6.54313">
        <ele>340.8</ele>
        <time>1970-01-01T02:28:32.000Z</time>
      </trkpt>
      <trkpt lat="43.30293" lon="6.54322">
        <ele>340.8</ele>
        <time>1970-01-01T02:28:34.000Z</time>
      </trkpt>
      <trkpt lat="43.30294" lon="6.54351">
        <ele>340.8</ele>
        <time>1970-01-01T02:28:38.000Z</time>
      </trkpt>
      <trkpt lat="43.30295" lon="6.54358">
        <ele>340.8</ele>
        <time>1970-01-01T02:28:39.000Z</time>
      </trkpt>
      <trkpt lat="43.30289" lon="6.54369">
        <ele>340</ele>
        <time>1970-01-01T02:28:41.000Z</time>
      </trkpt>
      <trkpt lat="43.30279" lon="6.54371">
        <ele>338.8</ele>
        <time>1970-01-01T02:28:43.000Z</time>
      </trkpt>
      <trkpt lat="43.30271" lon="6.54376">
        <ele>337.2</ele>
        <time>1970-01-01T02:28:46.000Z</time>
      </trkpt>
      <trkpt lat="43.30269" lon="6.54379">
        <ele>336.4</ele>
        <time>1970-01-01T02:28:47.000Z</time>
      </trkpt>
      <trkpt lat="43.30266" lon="6.54381">
        <ele>335.8</ele>
        <time>1970-01-01T02:28:48.000Z</time>
      </trkpt>
      <trkpt lat="43.30256" lon="6.5438">
        <ele>334.6</ele>
        <time>1970-01-01T02:28:50.000Z</time>
      </trkpt>
      <trkpt lat="43.30245" lon="6.54373">
        <ele>333.2</ele>
        <time>1970-01-01T02:28:52.000Z</time>
      </trkpt>
      <trkpt lat="43.30239" lon="6.54371">
        <ele>332.4</ele>
        <time>1970-01-01T02:28:53.000Z</time>
      </trkpt>
      <trkpt lat="43.30233" lon="6.5437">
        <ele>331.4</ele>
        <time>1970-01-01T02:28:54.000Z</time>
      </trkpt>
      <trkpt lat="43.30218" lon="6.54373">
        <ele>330</ele>
        <time>1970-01-01T02:28:56.000Z</time>
      </trkpt>
      <trkpt lat="43.30204" lon="6.54376">
        <ele>328.6</ele>
        <time>1970-01-01T02:28:58.000Z</time>
      </trkpt>
      <trkpt lat="43.30199" lon="6.5438">
        <ele>327</ele>
        <time>1970-01-01T02:28:59.000Z</time>
      </trkpt>
      <trkpt lat="43.30195" lon="6.54385">
        <ele>325.6</ele>
        <time>1970-01-01T02:29:00.000Z</time>
      </trkpt>
      <trkpt lat="43.30191" lon="6.54391">
        <ele>324.2</ele>
        <time>1970-01-01T02:29:01.000Z</time>
      </trkpt>
      <trkpt lat="43.30187" lon="6.54396">
        <ele>322.6</ele>
        <time>1970-01-01T02:29:02.000Z</time>
      </trkpt>
      <trkpt lat="43.30183" lon="6.544">
        <ele>320.8</ele>
        <time>1970-01-01T02:29:03.000Z</time>
      </trkpt>
      <trkpt lat="43.30179" lon="6.54404">
        <ele>319.4</ele>
        <time>1970-01-01T02:29:04.000Z</time>
      </trkpt>
      <trkpt lat="43.30173" lon="6.54406">
        <ele>318.2</ele>
        <time>1970-01-01T02:29:05.000Z</time>
      </trkpt>
      <trkpt lat="43.30164" lon="6.54408">
        <ele>316.4</ele>
        <time>1970-01-01T02:29:07.000Z</time>
      </trkpt>
      <trkpt lat="43.30159" lon="6.5441">
        <ele>314.8</ele>
        <time>1970-01-01T02:29:08.000Z</time>
      </trkpt>
      <trkpt lat="43.30155" lon="6.54411">
        <ele>313.6</ele>
        <time>1970-01-01T02:29:09.000Z</time>
      </trkpt>
      <trkpt lat="43.30147" lon="6.54414">
        <ele>311.6</ele>
        <time>1970-01-01T02:29:11.000Z</time>
      </trkpt>
      <trkpt lat="43.3014" lon="6.5442">
        <ele>310</ele>
        <time>1970-01-01T02:29:13.000Z</time>
      </trkpt>
      <trkpt lat="43.30133" lon="6.54427">
        <ele>309</ele>
        <time>1970-01-01T02:29:15.000Z</time>
      </trkpt>
      <trkpt lat="43.30129" lon="6.54431">
        <ele>308.4</ele>
        <time>1970-01-01T02:29:16.000Z</time>
      </trkpt>
      <trkpt lat="43.30122" lon="6.54437">
        <ele>307.2</ele>
        <time>1970-01-01T02:29:18.000Z</time>
      </trkpt>
      <trkpt lat="43.30117" lon="6.54437">
        <ele>306.6</ele>
        <time>1970-01-01T02:29:20.000Z</time>
      </trkpt>
      <trkpt lat="43.30113" lon="6.54439">
        <ele>306.2</ele>
        <time>1970-01-01T02:29:21.000Z</time>
      </trkpt>
      <trkpt lat="43.3009" lon="6.54454">
        <ele>305</ele>
        <time>1970-01-01T02:29:28.000Z</time>
      </trkpt>
      <trkpt lat="43.30082" lon="6.54458">
        <ele>305</ele>
        <time>1970-01-01T02:29:30.000Z</time>
      </trkpt>
      <trkpt lat="43.30079" lon="6.54469">
        <ele>304.8</ele>
        <time>1970-01-01T02:29:32.000Z</time>
      </trkpt>
      <trkpt lat="43.30071" lon="6.54479">
        <ele>304.4</ele>
        <time>1970-01-01T02:29:35.000Z</time>
      </trkpt>
      <trkpt lat="43.30056" lon="6.54489">
        <ele>304</ele>
        <time>1970-01-01T02:29:38.000Z</time>
      </trkpt>
      <trkpt lat="43.30051" lon="6.54493">
        <ele>303.6</ele>
        <time>1970-01-01T02:29:39.000Z</time>
      </trkpt>
      <trkpt lat="43.30047" lon="6.54498">
        <ele>302.8</ele>
        <time>1970-01-01T02:29:40.000Z</time>
      </trkpt>
      <trkpt lat="43.30043" lon="6.54504">
        <ele>302</ele>
        <time>1970-01-01T02:29:41.000Z</time>
      </trkpt>
      <trkpt lat="43.30037" lon="6.54519">
        <ele>300.8</ele>
        <time>1970-01-01T02:29:43.000Z</time>
      </trkpt>
      <trkpt lat="43.30034" lon="6.54531">
        <ele>299.4</ele>
        <time>1970-01-01T02:29:45.000Z</time>
      </trkpt>
      <trkpt lat="43.30028" lon="6.54538">
        <ele>297.6</ele>
        <time>1970-01-01T02:29:47.000Z</time>
      </trkpt>
      <trkpt lat="43.30025" lon="6.5454">
        <ele>296.4</ele>
        <time>1970-01-01T02:29:48.000Z</time>
      </trkpt>
      <trkpt lat="43.3002" lon="6.54544">
        <ele>294.8</ele>
        <time>1970-01-01T02:29:49.000Z</time>
      </trkpt>
      <trkpt lat="43.30016" lon="6.54547">
        <ele>293.2</ele>
        <time>1970-01-01T02:29:50.000Z</time>
      </trkpt>
      <trkpt lat="43.30011" lon="6.5455">
        <ele>291.2</ele>
        <time>1970-01-01T02:29:51.000Z</time>
      </trkpt>
      <trkpt lat="43.30006" lon="6.54555">
        <ele>289.6</ele>
        <time>1970-01-01T02:29:52.000Z</time>
      </trkpt>
      <trkpt lat="43.30002" lon="6.5456">
        <ele>288.2</ele>
        <time>1970-01-01T02:29:53.000Z</time>
      </trkpt>
      <trkpt lat="43.3" lon="6.54564">
        <ele>286.8</ele>
        <time>1970-01-01T02:29:54.000Z</time>
      </trkpt>
      <trkpt lat="43.30002" lon="6.54567">
        <ele>285.6</ele>
        <time>1970-01-01T02:29:55.000Z</time>
      </trkpt>
      <trkpt lat="43.30007" lon="6.54572">
        <ele>283.8</ele>
        <time>1970-01-01T02:29:56.000Z</time>
      </trkpt>
      <trkpt lat="43.30012" lon="6.54576">
        <ele>282.4</ele>
        <time>1970-01-01T02:29:57.000Z</time>
      </trkpt>
      <trkpt lat="43.30017" lon="6.54581">
        <ele>281.6</ele>
        <time>1970-01-01T02:29:58.000Z</time>
      </trkpt>
      <trkpt lat="43.30021" lon="6.54585">
        <ele>281</ele>
        <time>1970-01-01T02:29:59.000Z</time>
      </trkpt>
      <trkpt lat="43.30025" lon="6.54591">
        <ele>280</ele>
        <time>1970-01-01T02:30:00.000Z</time>
      </trkpt>
      <trkpt lat="43.30024" lon="6.54595">
        <ele>278.8</ele>
        <time>1970-01-01T02:30:01.000Z</time>
      </trkpt>
      <trkpt lat="43.30023" lon="6.54599">
        <ele>277.6</ele>
        <time>1970-01-01T02:30:02.000Z</time>
      </trkpt>
      <trkpt lat="43.3002" lon="6.54603">
        <ele>276.4</ele>
        <time>1970-01-01T02:30:03.000Z</time>
      </trkpt>
      <trkpt lat="43.30017" lon="6.54609">
        <ele>274.6</ele>
        <time>1970-01-01T02:30:04.000Z</time>
      </trkpt>
      <trkpt lat="43.30014" lon="6.54616">
        <ele>272.4</ele>
        <time>1970-01-01T02:30:05.000Z</time>
      </trkpt>
      <trkpt lat="43.3001" lon="6.54622">
        <ele>270.2</ele>
        <time>1970-01-01T02:30:06.000Z</time>
      </trkpt>
      <trkpt lat="43.30006" lon="6.54627">
        <ele>268.2</ele>
        <time>1970-01-01T02:30:07.000Z</time>
      </trkpt>
      <trkpt lat="43.30001" lon="6.54632">
        <ele>265</ele>
        <time>1970-01-01T02:30:08.000Z</time>
      </trkpt>
      <trkpt lat="43.29996" lon="6.54636">
        <ele>263.2</ele>
        <time>1970-01-01T02:30:09.000Z</time>
      </trkpt>
      <trkpt lat="43.2999" lon="6.54638">
        <ele>261.4</ele>
        <time>1970-01-01T02:30:10.000Z</time>
      </trkpt>
      <trkpt lat="43.29983" lon="6.54637">
        <ele>260</ele>
        <time>1970-01-01T02:30:11.000Z</time>
      </trkpt>
      <trkpt lat="43.29973" lon="6.54636">
        <ele>258.2</ele>
        <time>1970-01-01T02:30:13.000Z</time>
      </trkpt>
      <trkpt lat="43.29972" lon="6.54638">
        <ele>257</ele>
        <time>1970-01-01T02:30:14.000Z</time>
      </trkpt>
      <trkpt lat="43.29971" lon="6.5464">
        <ele>255.6</ele>
        <time>1970-01-01T02:30:15.000Z</time>
      </trkpt>
      <trkpt lat="43.29971" lon="6.54645">
        <ele>253.8</ele>
        <time>1970-01-01T02:30:16.000Z</time>
      </trkpt>
      <trkpt lat="43.29971" lon="6.54649">
        <ele>251.8</ele>
        <time>1970-01-01T02:30:17.000Z</time>
      </trkpt>
      <trkpt lat="43.29969" lon="6.54653">
        <ele>250</ele>
        <time>1970-01-01T02:30:18.000Z</time>
      </trkpt>
      <trkpt lat="43.29967" lon="6.54655">
        <ele>248.8</ele>
        <time>1970-01-01T02:30:19.000Z</time>
      </trkpt>
      <trkpt lat="43.29964" lon="6.54655">
        <ele>247.6</ele>
        <time>1970-01-01T02:30:20.000Z</time>
      </trkpt>
      <trkpt lat="43.2996" lon="6.54655">
        <ele>246.6</ele>
        <time>1970-01-01T02:30:21.000Z</time>
      </trkpt>
      <trkpt lat="43.29955" lon="6.54656">
        <ele>245.4</ele>
        <time>1970-01-01T02:30:22.000Z</time>
      </trkpt>
      <trkpt lat="43.29948" lon="6.54658">
        <ele>243.8</ele>
        <time>1970-01-01T02:30:24.000Z</time>
      </trkpt>
      <trkpt lat="43.29945" lon="6.54661">
        <ele>241.2</ele>
        <time>1970-01-01T02:30:26.000Z</time>
      </trkpt>
      <trkpt lat="43.29946" lon="6.54662">
        <ele>239.6</ele>
        <time>1970-01-01T02:30:27.000Z</time>
      </trkpt>
      <trkpt lat="43.29948" lon="6.54666">
        <ele>236.4</ele>
        <time>1970-01-01T02:30:29.000Z</time>
      </trkpt>
      <trkpt lat="43.29949" lon="6.54669">
        <ele>234.2</ele>
        <time>1970-01-01T02:30:30.000Z</time>
      </trkpt>
      <trkpt lat="43.29948" lon="6.54673">
        <ele>232.2</ele>
        <time>1970-01-01T02:30:31.000Z</time>
      </trkpt>
      <trkpt lat="43.29947" lon="6.54678">
        <ele>230.6</ele>
        <time>1970-01-01T02:30:32.000Z</time>
      </trkpt>
      <trkpt lat="43.29947" lon="6.54685">
        <ele>229.2</ele>
        <time>1970-01-01T02:30:33.000Z</time>
      </trkpt>
      <trkpt lat="43.29945" lon="6.54691">
        <ele>228</ele>
        <time>1970-01-01T02:30:34.000Z</time>
      </trkpt>
      <trkpt lat="43.29938" lon="6.54703">
        <ele>226.6</ele>
        <time>1970-01-01T02:30:36.000Z</time>
      </trkpt>
      <trkpt lat="43.2993" lon="6.54708">
        <ele>224.2</ele>
        <time>1970-01-01T02:30:38.000Z</time>
      </trkpt>
      <trkpt lat="43.29925" lon="6.54709">
        <ele>223</ele>
        <time>1970-01-01T02:30:39.000Z</time>
      </trkpt>
      <trkpt lat="43.2992" lon="6.54709">
        <ele>221.4</ele>
        <time>1970-01-01T02:30:40.000Z</time>
      </trkpt>
      <trkpt lat="43.29917" lon="6.54709">
        <ele>219.4</ele>
        <time>1970-01-01T02:30:41.000Z</time>
      </trkpt>
      <trkpt lat="43.29914" lon="6.54708">
        <ele>217.8</ele>
        <time>1970-01-01T02:30:42.000Z</time>
      </trkpt>
      <trkpt lat="43.29912" lon="6.54708">
        <ele>215</ele>
        <time>1970-01-01T02:30:43.000Z</time>
      </trkpt>
      <trkpt lat="43.29905" lon="6.54708">
        <ele>213.4</ele>
        <time>1970-01-01T02:30:46.000Z</time>
      </trkpt>
      <trkpt lat="43.29902" lon="6.54707">
        <ele>213</ele>
        <time>1970-01-01T02:30:49.000Z</time>
      </trkpt>
      <trkpt lat="43.29895" lon="6.54711">
        <ele>213.2</ele>
        <time>1970-01-01T02:32:27.000Z</time>
      </trkpt>
      <trkpt lat="43.29876" lon="6.54717">
        <ele>212.4</ele>
        <time>1970-01-01T02:32:33.000Z</time>
      </trkpt>
      <trkpt lat="43.29872" lon="6.54719">
        <ele>211.2</ele>
        <time>1970-01-01T02:32:34.000Z</time>
      </trkpt>
      <trkpt lat="43.29866" lon="6.54723">
        <ele>210</ele>
        <time>1970-01-01T02:32:35.000Z</time>
      </trkpt>
      <trkpt lat="43.2986" lon="6.54727">
        <ele>208.2</ele>
        <time>1970-01-01T02:32:36.000Z</time>
      </trkpt>
      <trkpt lat="43.29851" lon="6.54732">
        <ele>207.2</ele>
        <time>1970-01-01T02:32:37.000Z</time>
      </trkpt>
      <trkpt lat="43.29838" lon="6.54745">
        <ele>205.8</ele>
        <time>1970-01-01T02:32:39.000Z</time>
      </trkpt>
      <trkpt lat="43.2983" lon="6.54757">
        <ele>204.2</ele>
        <time>1970-01-01T02:32:41.000Z</time>
      </trkpt>
      <trkpt lat="43.2982" lon="6.54771">
        <ele>201.8</ele>
        <time>1970-01-01T02:32:43.000Z</time>
      </trkpt>
      <trkpt lat="43.29817" lon="6.54777">
        <ele>200.4</ele>
        <time>1970-01-01T02:32:44.000Z</time>
      </trkpt>
      <trkpt lat="43.29814" lon="6.54781">
        <ele>198.8</ele>
        <time>1970-01-01T02:32:45.000Z</time>
      </trkpt>
      <trkpt lat="43.2981" lon="6.54781">
        <ele>197</ele>
        <time>1970-01-01T02:32:46.000Z</time>
      </trkpt>
      <trkpt lat="43.29807" lon="6.54779">
        <ele>195.2</ele>
        <time>1970-01-01T02:32:47.000Z</time>
      </trkpt>
      <trkpt lat="43.29803" lon="6.54777">
        <ele>194</ele>
        <time>1970-01-01T02:32:48.000Z</time>
      </trkpt>
      <trkpt lat="43.29798" lon="6.54777">
        <ele>192.8</ele>
        <time>1970-01-01T02:32:49.000Z</time>
      </trkpt>
      <trkpt lat="43.29787" lon="6.54777">
        <ele>191</ele>
        <time>1970-01-01T02:32:51.000Z</time>
      </trkpt>
      <trkpt lat="43.29783" lon="6.54778">
        <ele>189.8</ele>
        <time>1970-01-01T02:32:52.000Z</time>
      </trkpt>
      <trkpt lat="43.29776" lon="6.54781">
        <ele>187.8</ele>
        <time>1970-01-01T02:32:54.000Z</time>
      </trkpt>
      <trkpt lat="43.29771" lon="6.54784">
        <ele>186.8</ele>
        <time>1970-01-01T02:32:55.000Z</time>
      </trkpt>
      <trkpt lat="43.29767" lon="6.54788">
        <ele>186</ele>
        <time>1970-01-01T02:32:56.000Z</time>
      </trkpt>
      <trkpt lat="43.29763" lon="6.54794">
        <ele>184.8</ele>
        <time>1970-01-01T02:32:57.000Z</time>
      </trkpt>
      <trkpt lat="43.29761" lon="6.548">
        <ele>183</ele>
        <time>1970-01-01T02:32:58.000Z</time>
      </trkpt>
      <trkpt lat="43.29758" lon="6.54804">
        <ele>181.4</ele>
        <time>1970-01-01T02:32:59.000Z</time>
      </trkpt>
      <trkpt lat="43.29756" lon="6.54808">
        <ele>179.4</ele>
        <time>1970-01-01T02:33:00.000Z</time>
      </trkpt>
      <trkpt lat="43.29754" lon="6.5481">
        <ele>177.4</ele>
        <time>1970-01-01T02:33:01.000Z</time>
      </trkpt>
      <trkpt lat="43.29753" lon="6.54813">
        <ele>174.8</ele>
        <time>1970-01-01T02:33:02.000Z</time>
      </trkpt>
      <trkpt lat="43.2975" lon="6.54843">
        <ele>173.8</ele>
        <time>1970-01-01T02:33:12.000Z</time>
      </trkpt>
      <trkpt lat="43.29752" lon="6.54875">
        <ele>173.8</ele>
        <time>1970-01-01T02:33:21.000Z</time>
      </trkpt>
      <trkpt lat="43.29754" lon="6.54873">
        <ele>173.6</ele>
        <time>1970-01-01T02:33:22.000Z</time>
      </trkpt>
      <trkpt lat="43.2976" lon="6.54882">
        <ele>171.6</ele>
        <time>1970-01-01T02:33:25.000Z</time>
      </trkpt>
      <trkpt lat="43.2976" lon="6.5489">
        <ele>170.4</ele>
        <time>1970-01-01T02:33:26.000Z</time>
      </trkpt>
      <trkpt lat="43.29759" lon="6.54899">
        <ele>169.2</ele>
        <time>1970-01-01T02:33:27.000Z</time>
      </trkpt>
      <trkpt lat="43.29754" lon="6.54914">
        <ele>168</ele>
        <time>1970-01-01T02:33:29.000Z</time>
      </trkpt>
      <trkpt lat="43.29748" lon="6.54919">
        <ele>167.4</ele>
        <time>1970-01-01T02:33:30.000Z</time>
      </trkpt>
      <trkpt lat="43.29744" lon="6.54923">
        <ele>166.6</ele>
        <time>1970-01-01T02:33:31.000Z</time>
      </trkpt>
      <trkpt lat="43.29744" lon="6.54928">
        <ele>164.6</ele>
        <time>1970-01-01T02:33:33.000Z</time>
      </trkpt>
      <trkpt lat="43.29744" lon="6.54929">
        <ele>163.6</ele>
        <time>1970-01-01T02:33:34.000Z</time>
      </trkpt>
      <trkpt lat="43.29746" lon="6.54929">
        <ele>162</ele>
        <time>1970-01-01T02:33:35.000Z</time>
      </trkpt>
      <trkpt lat="43.29749" lon="6.54934">
        <ele>160.6</ele>
        <time>1970-01-01T02:33:36.000Z</time>
      </trkpt>
      <trkpt lat="43.29753" lon="6.54939">
        <ele>158.4</ele>
        <time>1970-01-01T02:33:37.000Z</time>
      </trkpt>
      <trkpt lat="43.29758" lon="6.54952">
        <ele>157</ele>
        <time>1970-01-01T02:33:39.000Z</time>
      </trkpt>
      <trkpt lat="43.29759" lon="6.54959">
        <ele>155.6</ele>
        <time>1970-01-01T02:33:40.000Z</time>
      </trkpt>
      <trkpt lat="43.29757" lon="6.54967">
        <ele>154</ele>
        <time>1970-01-01T02:33:41.000Z</time>
      </trkpt>
      <trkpt lat="43.29757" lon="6.54974">
        <ele>152.8</ele>
        <time>1970-01-01T02:33:42.000Z</time>
      </trkpt>
      <trkpt lat="43.29758" lon="6.54979">
        <ele>151.6</ele>
        <time>1970-01-01T02:33:43.000Z</time>
      </trkpt>
      <trkpt lat="43.29759" lon="6.54985">
        <ele>149.8</ele>
        <time>1970-01-01T02:33:44.000Z</time>
      </trkpt>
      <trkpt lat="43.29761" lon="6.5499">
        <ele>148.2</ele>
        <time>1970-01-01T02:33:45.000Z</time>
      </trkpt>
      <trkpt lat="43.29763" lon="6.54998">
        <ele>147</ele>
        <time>1970-01-01T02:33:47.000Z</time>
      </trkpt>
      <trkpt lat="43.29765" lon="6.55013">
        <ele>146</ele>
        <time>1970-01-01T02:33:51.000Z</time>
      </trkpt>
      <trkpt lat="43.29764" lon="6.55023">
        <ele>145.8</ele>
        <time>1970-01-01T02:33:53.000Z</time>
      </trkpt>
      <trkpt lat="43.29758" lon="6.55047">
        <ele>144.8</ele>
        <time>1970-01-01T02:33:57.000Z</time>
      </trkpt>
      <trkpt lat="43.29755" lon="6.55067">
        <ele>144.2</ele>
        <time>1970-01-01T02:34:00.000Z</time>
      </trkpt>
      <trkpt lat="43.29752" lon="6.55084">
        <ele>143.8</ele>
        <time>1970-01-01T02:34:02.000Z</time>
      </trkpt>
      <trkpt lat="43.29749" lon="6.55094">
        <ele>142.8</ele>
        <time>1970-01-01T02:34:03.000Z</time>
      </trkpt>
      <trkpt lat="43.29744" lon="6.55113">
        <ele>141.4</ele>
        <time>1970-01-01T02:34:05.000Z</time>
      </trkpt>
      <trkpt lat="43.29748" lon="6.55122">
        <ele>139.8</ele>
        <time>1970-01-01T02:34:07.000Z</time>
      </trkpt>
      <trkpt lat="43.29753" lon="6.55126">
        <ele>138.6</ele>
        <time>1970-01-01T02:34:09.000Z</time>
      </trkpt>
      <trkpt lat="43.29755" lon="6.55129">
        <ele>138</ele>
        <time>1970-01-01T02:34:10.000Z</time>
      </trkpt>
      <trkpt lat="43.29757" lon="6.55132">
        <ele>136.8</ele>
        <time>1970-01-01T02:34:11.000Z</time>
      </trkpt>
      <trkpt lat="43.29761" lon="6.55134">
        <ele>133.8</ele>
        <time>1970-01-01T02:34:12.000Z</time>
      </trkpt>
      <trkpt lat="43.29766" lon="6.5514">
        <ele>132.4</ele>
        <time>1970-01-01T02:34:14.000Z</time>
      </trkpt>
      <trkpt lat="43.29772" lon="6.55171">
        <ele>131.4</ele>
        <time>1970-01-01T02:34:20.000Z</time>
      </trkpt>
      <trkpt lat="43.2977" lon="6.55203">
        <ele>130</ele>
        <time>1970-01-01T02:34:25.000Z</time>
      </trkpt>
      <trkpt lat="43.29767" lon="6.55215">
        <ele>128.8</ele>
        <time>1970-01-01T02:34:27.000Z</time>
      </trkpt>
      <trkpt lat="43.29763" lon="6.55229">
        <ele>127.4</ele>
        <time>1970-01-01T02:34:29.000Z</time>
      </trkpt>
      <trkpt lat="43.29753" lon="6.55273">
        <ele>126.4</ele>
        <time>1970-01-01T02:34:34.000Z</time>
      </trkpt>
      <trkpt lat="43.29744" lon="6.55304">
        <ele>124.8</ele>
        <time>1970-01-01T02:34:37.000Z</time>
      </trkpt>
      <trkpt lat="43.29741" lon="6.55315">
        <ele>123.6</ele>
        <time>1970-01-01T02:34:38.000Z</time>
      </trkpt>
      <trkpt lat="43.29739" lon="6.55337">
        <ele>121.8</ele>
        <time>1970-01-01T02:34:40.000Z</time>
      </trkpt>
      <trkpt lat="43.29738" lon="6.55348">
        <ele>120.4</ele>
        <time>1970-01-01T02:34:41.000Z</time>
      </trkpt>
      <trkpt lat="43.29738" lon="6.55369">
        <ele>118.2</ele>
        <time>1970-01-01T02:34:43.000Z</time>
      </trkpt>
      <trkpt lat="43.29738" lon="6.5538">
        <ele>116.6</ele>
        <time>1970-01-01T02:34:45.000Z</time>
      </trkpt>
      <trkpt lat="43.29737" lon="6.55384">
        <ele>115.8</ele>
        <time>1970-01-01T02:34:46.000Z</time>
      </trkpt>
      <trkpt lat="43.29735" lon="6.55388">
        <ele>114.4</ele>
        <time>1970-01-01T02:34:47.000Z</time>
      </trkpt>
      <trkpt lat="43.29733" lon="6.55394">
        <ele>113.2</ele>
        <time>1970-01-01T02:34:48.000Z</time>
      </trkpt>
      <trkpt lat="43.29732" lon="6.55399">
        <ele>112</ele>
        <time>1970-01-01T02:34:49.000Z</time>
      </trkpt>
      <trkpt lat="43.29729" lon="6.55405">
        <ele>110.6</ele>
        <time>1970-01-01T02:34:50.000Z</time>
      </trkpt>
      <trkpt lat="43.29728" lon="6.55411">
        <ele>109.4</ele>
        <time>1970-01-01T02:34:51.000Z</time>
      </trkpt>
      <trkpt lat="43.29724" lon="6.55422">
        <ele>108.2</ele>
        <time>1970-01-01T02:34:53.000Z</time>
      </trkpt>
      <trkpt lat="43.29718" lon="6.55447">
        <ele>107.4</ele>
        <time>1970-01-01T02:34:57.000Z</time>
      </trkpt>
      <trkpt lat="43.29716" lon="6.5547">
        <ele>106.8</ele>
        <time>1970-01-01T02:35:00.000Z</time>
      </trkpt>
      <trkpt lat="43.29724" lon="6.55508">
        <ele>106</ele>
        <time>1970-01-01T02:35:04.000Z</time>
      </trkpt>
      <trkpt lat="43.29727" lon="6.55515">
        <ele>105.6</ele>
        <time>1970-01-01T02:35:05.000Z</time>
      </trkpt>
      <trkpt lat="43.29732" lon="6.55528">
        <ele>104.4</ele>
        <time>1970-01-01T02:35:07.000Z</time>
      </trkpt>
      <trkpt lat="43.29733" lon="6.55549">
        <ele>103</ele>
        <time>1970-01-01T02:35:10.000Z</time>
      </trkpt>
      <trkpt lat="43.2973" lon="6.55559">
        <ele>101.8</ele>
        <time>1970-01-01T02:35:12.000Z</time>
      </trkpt>
      <trkpt lat="43.29728" lon="6.55579">
        <ele>100.6</ele>
        <time>1970-01-01T02:35:15.000Z</time>
      </trkpt>
      <trkpt lat="43.29728" lon="6.55593">
        <ele>99.4</ele>
        <time>1970-01-01T02:35:17.000Z</time>
      </trkpt>
      <trkpt lat="43.29724" lon="6.55625">
        <ele>98.4</ele>
        <time>1970-01-01T02:35:21.000Z</time>
      </trkpt>
      <trkpt lat="43.29722" lon="6.55642">
        <ele>97.2</ele>
        <time>1970-01-01T02:35:23.000Z</time>
      </trkpt>
      <trkpt lat="43.29723" lon="6.55662">
        <ele>95.8</ele>
        <time>1970-01-01T02:35:27.000Z</time>
      </trkpt>
      <trkpt lat="43.29723" lon="6.55667">
        <ele>94.8</ele>
        <time>1970-01-01T02:35:30.000Z</time>
      </trkpt>
      <trkpt lat="43.29724" lon="6.55669">
        <ele>94.4</ele>
        <time>1970-01-01T02:35:32.000Z</time>
      </trkpt>
      <trkpt lat="43.29728" lon="6.55662">
        <ele>93</ele>
        <time>1970-01-01T02:38:16.000Z</time>
      </trkpt>
      <trkpt lat="43.29733" lon="6.55652">
        <ele>93</ele>
        <time>1970-01-01T02:38:20.000Z</time>
      </trkpt>
      <trkpt lat="43.29739" lon="6.55632">
        <ele>94</ele>
        <time>1970-01-01T02:38:27.000Z</time>
      </trkpt>
      <trkpt lat="43.29741" lon="6.5562">
        <ele>95.6</ele>
        <time>1970-01-01T02:38:31.000Z</time>
      </trkpt>
      <trkpt lat="43.29743" lon="6.55609">
        <ele>96.6</ele>
        <time>1970-01-01T02:38:35.000Z</time>
      </trkpt>
      <trkpt lat="43.29745" lon="6.55594">
        <ele>97.6</ele>
        <time>1970-01-01T02:38:40.000Z</time>
      </trkpt>
      <trkpt lat="43.29749" lon="6.55578">
        <ele>99</ele>
        <time>1970-01-01T02:38:46.000Z</time>
      </trkpt>
      <trkpt lat="43.29752" lon="6.55565">
        <ele>100</ele>
        <time>1970-01-01T02:38:51.000Z</time>
      </trkpt>
      <trkpt lat="43.29753" lon="6.55554">
        <ele>101.2</ele>
        <time>1970-01-01T02:38:55.000Z</time>
      </trkpt>
      <trkpt lat="43.29754" lon="6.55538">
        <ele>102.2</ele>
        <time>1970-01-01T02:39:01.000Z</time>
      </trkpt>
      <trkpt lat="43.29752" lon="6.55524">
        <ele>103.2</ele>
        <time>1970-01-01T02:39:06.000Z</time>
      </trkpt>
      <trkpt lat="43.29751" lon="6.55512">
        <ele>104.2</ele>
        <time>1970-01-01T02:39:11.000Z</time>
      </trkpt>
      <trkpt lat="43.29747" lon="6.55492">
        <ele>105.4</ele>
        <time>1970-01-01T02:39:18.000Z</time>
      </trkpt>
      <trkpt lat="43.29744" lon="6.55477">
        <ele>107</ele>
        <time>1970-01-01T02:39:25.000Z</time>
      </trkpt>
      <trkpt lat="43.29744" lon="6.55469">
        <ele>108.2</ele>
        <time>1970-01-01T02:39:29.000Z</time>
      </trkpt>
      <trkpt lat="43.29745" lon="6.55464">
        <ele>108.4</ele>
        <time>1970-01-01T02:39:31.000Z</time>
      </trkpt>
      <trkpt lat="43.29747" lon="6.55453">
        <ele>109.4</ele>
        <time>1970-01-01T02:39:36.000Z</time>
      </trkpt>
      <trkpt lat="43.2975" lon="6.55441">
        <ele>110.4</ele>
        <time>1970-01-01T02:39:41.000Z</time>
      </trkpt>
      <trkpt lat="43.29756" lon="6.55423">
        <ele>111.6</ele>
        <time>1970-01-01T02:39:48.000Z</time>
      </trkpt>
      <trkpt lat="43.29766" lon="6.55403">
        <ele>112.6</ele>
        <time>1970-01-01T02:39:56.000Z</time>
      </trkpt>
      <trkpt lat="43.2977" lon="6.55388">
        <ele>113.8</ele>
        <time>1970-01-01T02:40:02.000Z</time>
      </trkpt>
      <trkpt lat="43.29774" lon="6.55368">
        <ele>114.8</ele>
        <time>1970-01-01T02:40:10.000Z</time>
      </trkpt>
      <trkpt lat="43.29777" lon="6.55355">
        <ele>116</ele>
        <time>1970-01-01T02:40:16.000Z</time>
      </trkpt>
      <trkpt lat="43.29785" lon="6.55348">
        <ele>117</ele>
        <time>1970-01-01T02:40:22.000Z</time>
      </trkpt>
      <trkpt lat="43.29796" lon="6.55353">
        <ele>118.2</ele>
        <time>1970-01-01T02:40:27.000Z</time>
      </trkpt>
      <trkpt lat="43.29797" lon="6.55358">
        <ele>118.6</ele>
        <time>1970-01-01T02:40:29.000Z</time>
      </trkpt>
      <trkpt lat="43.29799" lon="6.55368">
        <ele>119.2</ele>
        <time>1970-01-01T02:40:33.000Z</time>
      </trkpt>
      <trkpt lat="43.29794" lon="6.55384">
        <ele>120.2</ele>
        <time>1970-01-01T02:40:39.000Z</time>
      </trkpt>
      <trkpt lat="43.29781" lon="6.55417">
        <ele>121.2</ele>
        <time>1970-01-01T02:40:50.000Z</time>
      </trkpt>
      <trkpt lat="43.29779" lon="6.55462">
        <ele>122.2</ele>
        <time>1970-01-01T02:41:02.000Z</time>
      </trkpt>
      <trkpt lat="43.29805" lon="6.55479">
        <ele>123.6</ele>
        <time>1970-01-01T02:41:13.000Z</time>
      </trkpt>
      <trkpt lat="43.29813" lon="6.55494">
        <ele>124.6</ele>
        <time>1970-01-01T02:41:19.000Z</time>
      </trkpt>
      <trkpt lat="43.29817" lon="6.5551">
        <ele>125.6</ele>
        <time>1970-01-01T02:41:25.000Z</time>
      </trkpt>
      <trkpt lat="43.2982" lon="6.55529">
        <ele>126.8</ele>
        <time>1970-01-01T02:41:32.000Z</time>
      </trkpt>
      <trkpt lat="43.29822" lon="6.5553">
        <ele>127</ele>
        <time>1970-01-01T02:41:33.000Z</time>
      </trkpt>
      <trkpt lat="43.29826" lon="6.55529">
        <ele>128.2</ele>
        <time>1970-01-01T02:41:37.000Z</time>
      </trkpt>
      <trkpt lat="43.29827" lon="6.55517">
        <ele>129.2</ele>
        <time>1970-01-01T02:41:42.000Z</time>
      </trkpt>
      <trkpt lat="43.29831" lon="6.55504">
        <ele>130.2</ele>
        <time>1970-01-01T02:41:48.000Z</time>
      </trkpt>
      <trkpt lat="43.29833" lon="6.55493">
        <ele>131.4</ele>
        <time>1970-01-01T02:41:53.000Z</time>
      </trkpt>
      <trkpt lat="43.29834" lon="6.55484">
        <ele>132.4</ele>
        <time>1970-01-01T02:41:57.000Z</time>
      </trkpt>
      <trkpt lat="43.29833" lon="6.5547">
        <ele>133.6</ele>
        <time>1970-01-01T02:42:03.000Z</time>
      </trkpt>
      <trkpt lat="43.29832" lon="6.55462">
        <ele>134.6</ele>
        <time>1970-01-01T02:42:07.000Z</time>
      </trkpt>
      <trkpt lat="43.29829" lon="6.55448">
        <ele>135.8</ele>
        <time>1970-01-01T02:42:13.000Z</time>
      </trkpt>
      <trkpt lat="43.29828" lon="6.55437">
        <ele>137</ele>
        <time>1970-01-01T02:42:18.000Z</time>
      </trkpt>
      <trkpt lat="43.2983" lon="6.55419">
        <ele>138</ele>
        <time>1970-01-01T02:42:25.000Z</time>
      </trkpt>
      <trkpt lat="43.29837" lon="6.55392">
        <ele>139</ele>
        <time>1970-01-01T02:42:36.000Z</time>
      </trkpt>
      <trkpt lat="43.29846" lon="6.55381">
        <ele>140</ele>
        <time>1970-01-01T02:42:42.000Z</time>
      </trkpt>
      <trkpt lat="43.29859" lon="6.55371">
        <ele>141.2</ele>
        <time>1970-01-01T02:42:50.000Z</time>
      </trkpt>
      <trkpt lat="43.29875" lon="6.55363">
        <ele>142.2</ele>
        <time>1970-01-01T02:43:00.000Z</time>
      </trkpt>
      <trkpt lat="43.2989" lon="6.5535">
        <ele>143.4</ele>
        <time>1970-01-01T02:43:09.000Z</time>
      </trkpt>
      <trkpt lat="43.29894" lon="6.55339">
        <ele>144.6</ele>
        <time>1970-01-01T02:43:15.000Z</time>
      </trkpt>
      <trkpt lat="43.29891" lon="6.55326">
        <ele>145.6</ele>
        <time>1970-01-01T02:43:21.000Z</time>
      </trkpt>
      <trkpt lat="43.29881" lon="6.55319">
        <ele>146.8</ele>
        <time>1970-01-01T02:43:27.000Z</time>
      </trkpt>
      <trkpt lat="43.29869" lon="6.55311">
        <ele>147.8</ele>
        <time>1970-01-01T02:43:33.000Z</time>
      </trkpt>
      <trkpt lat="43.29853" lon="6.553">
        <ele>149</ele>
        <time>1970-01-01T02:43:42.000Z</time>
      </trkpt>
      <trkpt lat="43.29837" lon="6.55282">
        <ele>150.2</ele>
        <time>1970-01-01T02:43:53.000Z</time>
      </trkpt>
      <trkpt lat="43.29831" lon="6.55269">
        <ele>151.2</ele>
        <time>1970-01-01T02:43:59.000Z</time>
      </trkpt>
      <trkpt lat="43.29827" lon="6.55257">
        <ele>152.2</ele>
        <time>1970-01-01T02:44:04.000Z</time>
      </trkpt>
      <trkpt lat="43.2983" lon="6.55244">
        <ele>153.4</ele>
        <time>1970-01-01T02:44:09.000Z</time>
      </trkpt>
      <trkpt lat="43.29835" lon="6.55232">
        <ele>154.4</ele>
        <time>1970-01-01T02:44:14.000Z</time>
      </trkpt>
      <trkpt lat="43.29842" lon="6.55219">
        <ele>155.4</ele>
        <time>1970-01-01T02:44:20.000Z</time>
      </trkpt>
      <trkpt lat="43.2985" lon="6.55203">
        <ele>156.4</ele>
        <time>1970-01-01T02:44:27.000Z</time>
      </trkpt>
      <trkpt lat="43.29856" lon="6.5518">
        <ele>157.6</ele>
        <time>1970-01-01T02:44:36.000Z</time>
      </trkpt>
      <trkpt lat="43.29852" lon="6.55161">
        <ele>158.8</ele>
        <time>1970-01-01T02:44:44.000Z</time>
      </trkpt>
      <trkpt lat="43.29848" lon="6.55151">
        <ele>159.8</ele>
        <time>1970-01-01T02:44:49.000Z</time>
      </trkpt>
      <trkpt lat="43.29843" lon="6.55138">
        <ele>160.8</ele>
        <time>1970-01-01T02:44:55.000Z</time>
      </trkpt>
      <trkpt lat="43.29842" lon="6.55123">
        <ele>162</ele>
        <time>1970-01-01T02:45:01.000Z</time>
      </trkpt>
      <trkpt lat="43.29842" lon="6.5511">
        <ele>163</ele>
        <time>1970-01-01T02:45:06.000Z</time>
      </trkpt>
      <trkpt lat="43.29842" lon="6.55095">
        <ele>164</ele>
        <time>1970-01-01T02:45:12.000Z</time>
      </trkpt>
      <trkpt lat="43.29842" lon="6.55078">
        <ele>165.2</ele>
        <time>1970-01-01T02:45:19.000Z</time>
      </trkpt>
      <trkpt lat="43.29847" lon="6.55054">
        <ele>166.2</ele>
        <time>1970-01-01T02:45:29.000Z</time>
      </trkpt>
      <trkpt lat="43.29849" lon="6.55041">
        <ele>167.2</ele>
        <time>1970-01-01T02:45:35.000Z</time>
      </trkpt>
      <trkpt lat="43.29841" lon="6.55022">
        <ele>168.4</ele>
        <time>1970-01-01T02:45:43.000Z</time>
      </trkpt>
      <trkpt lat="43.29833" lon="6.55012">
        <ele>169.6</ele>
        <time>1970-01-01T02:45:49.000Z</time>
      </trkpt>
      <trkpt lat="43.29826" lon="6.54998">
        <ele>170.6</ele>
        <time>1970-01-01T02:45:56.000Z</time>
      </trkpt>
      <trkpt lat="43.29824" lon="6.54986">
        <ele>171.2</ele>
        <time>1970-01-01T02:46:01.000Z</time>
      </trkpt>
      <trkpt lat="43.29824" lon="6.54978">
        <ele>171.8</ele>
        <time>1970-01-01T02:46:04.000Z</time>
      </trkpt>
      <trkpt lat="43.29823" lon="6.54965">
        <ele>172.8</ele>
        <time>1970-01-01T02:46:10.000Z</time>
      </trkpt>
      <trkpt lat="43.29821" lon="6.54952">
        <ele>174</ele>
        <time>1970-01-01T02:46:16.000Z</time>
      </trkpt>
      <trkpt lat="43.2982" lon="6.54941">
        <ele>175</ele>
        <time>1970-01-01T02:46:21.000Z</time>
      </trkpt>
      <trkpt lat="43.29818" lon="6.54926">
        <ele>176.2</ele>
        <time>1970-01-01T02:46:27.000Z</time>
      </trkpt>
      <trkpt lat="43.29824" lon="6.54911">
        <ele>177.2</ele>
        <time>1970-01-01T02:46:34.000Z</time>
      </trkpt>
      <trkpt lat="43.29825" lon="6.54909">
        <ele>178</ele>
        <time>1970-01-01T02:46:39.000Z</time>
      </trkpt>
      <trkpt lat="43.29857" lon="6.54937">
        <ele>185.8</ele>
        <time>1970-01-01T02:48:50.000Z</time>
      </trkpt>
      <trkpt lat="43.29864" lon="6.54955">
        <ele>186.2</ele>
        <time>1970-01-01T02:48:59.000Z</time>
      </trkpt>
      <trkpt lat="43.29869" lon="6.54957">
        <ele>186.8</ele>
        <time>1970-01-01T02:49:03.000Z</time>
      </trkpt>
      <trkpt lat="43.29881" lon="6.54952">
        <ele>188</ele>
        <time>1970-01-01T02:49:13.000Z</time>
      </trkpt>
      <trkpt lat="43.29888" lon="6.54953">
        <ele>189.2</ele>
        <time>1970-01-01T02:49:19.000Z</time>
      </trkpt>
      <trkpt lat="43.29896" lon="6.54956">
        <ele>190.4</ele>
        <time>1970-01-01T02:49:26.000Z</time>
      </trkpt>
      <trkpt lat="43.299" lon="6.54955">
        <ele>191</ele>
        <time>1970-01-01T02:49:29.000Z</time>
      </trkpt>
      <trkpt lat="43.29903" lon="6.54955">
        <ele>191.4</ele>
        <time>1970-01-01T02:49:31.000Z</time>
      </trkpt>
      <trkpt lat="43.29907" lon="6.54952">
        <ele>192.4</ele>
        <time>1970-01-01T02:49:35.000Z</time>
      </trkpt>
      <trkpt lat="43.29908" lon="6.54951">
        <ele>192.6</ele>
        <time>1970-01-01T02:49:36.000Z</time>
      </trkpt>
      <trkpt lat="43.29914" lon="6.54946">
        <ele>193.8</ele>
        <time>1970-01-01T02:49:41.000Z</time>
      </trkpt>
      <trkpt lat="43.29918" lon="6.54943">
        <ele>195</ele>
        <time>1970-01-01T02:49:46.000Z</time>
      </trkpt>
      <trkpt lat="43.2992" lon="6.5494">
        <ele>196.2</ele>
        <time>1970-01-01T02:49:52.000Z</time>
      </trkpt>
      <trkpt lat="43.29976" lon="6.54899">
        <ele>216.4</ele>
        <time>1970-01-01T02:51:56.000Z</time>
      </trkpt>
      <trkpt lat="43.29976" lon="6.54888">
        <ele>217</ele>
        <time>1970-01-01T02:52:02.000Z</time>
      </trkpt>
      <trkpt lat="43.29976" lon="6.54885">
        <ele>217.6</ele>
        <time>1970-01-01T02:52:04.000Z</time>
      </trkpt>
      <trkpt lat="43.29979" lon="6.54879">
        <ele>218.6</ele>
        <time>1970-01-01T02:52:08.000Z</time>
      </trkpt>
      <trkpt lat="43.29984" lon="6.54873">
        <ele>219.8</ele>
        <time>1970-01-01T02:52:13.000Z</time>
      </trkpt>
      <trkpt lat="43.29988" lon="6.54869">
        <ele>220.8</ele>
        <time>1970-01-01T02:52:17.000Z</time>
      </trkpt>
      <trkpt lat="43.29993" lon="6.54865">
        <ele>222</ele>
        <time>1970-01-01T02:52:21.000Z</time>
      </trkpt>
      <trkpt lat="43.3" lon="6.54861">
        <ele>223.2</ele>
        <time>1970-01-01T02:52:27.000Z</time>
      </trkpt>
      <trkpt lat="43.30005" lon="6.54861">
        <ele>224</ele>
        <time>1970-01-01T02:52:31.000Z</time>
      </trkpt>
      <trkpt lat="43.30009" lon="6.5486">
        <ele>225.2</ele>
        <time>1970-01-01T02:52:35.000Z</time>
      </trkpt>
      <trkpt lat="43.30015" lon="6.54859">
        <ele>226.4</ele>
        <time>1970-01-01T02:52:40.000Z</time>
      </trkpt>
      <trkpt lat="43.30016" lon="6.54859">
        <ele>226.6</ele>
        <time>1970-01-01T02:52:41.000Z</time>
      </trkpt>
      <trkpt lat="43.30018" lon="6.54857">
        <ele>227.4</ele>
        <time>1970-01-01T02:52:43.000Z</time>
      </trkpt>
      <trkpt lat="43.30021" lon="6.54854">
        <ele>228.6</ele>
        <time>1970-01-01T02:52:47.000Z</time>
      </trkpt>
      <trkpt lat="43.30026" lon="6.54847">
        <ele>229.8</ele>
        <time>1970-01-01T02:52:53.000Z</time>
      </trkpt>
      <trkpt lat="43.30027" lon="6.54843">
        <ele>230.8</ele>
        <time>1970-01-01T02:52:57.000Z</time>
      </trkpt>
      <trkpt lat="43.30027" lon="6.54842">
        <ele>231.4</ele>
        <time>1970-01-01T02:52:59.000Z</time>
      </trkpt>
      <trkpt lat="43.30113" lon="6.54907">
        <ele>248</ele>
        <time>1970-01-01T02:54:45.000Z</time>
      </trkpt>
      <trkpt lat="43.3012" lon="6.5491">
        <ele>249</ele>
        <time>1970-01-01T02:54:50.000Z</time>
      </trkpt>
      <trkpt lat="43.30124" lon="6.54914">
        <ele>250</ele>
        <time>1970-01-01T02:54:53.000Z</time>
      </trkpt>
      <trkpt lat="43.30133" lon="6.54917">
        <ele>251.2</ele>
        <time>1970-01-01T02:55:00.000Z</time>
      </trkpt>
      <trkpt lat="43.30135" lon="6.54916">
        <ele>251.2</ele>
        <time>1970-01-01T02:55:01.000Z</time>
      </trkpt>
      <trkpt lat="43.30136" lon="6.54907">
        <ele>252.2</ele>
        <time>1970-01-01T02:55:07.000Z</time>
      </trkpt>
      <trkpt lat="43.30135" lon="6.54906">
        <ele>252.4</ele>
        <time>1970-01-01T02:55:08.000Z</time>
      </trkpt>
      <trkpt lat="43.30133" lon="6.549">
        <ele>253.4</ele>
        <time>1970-01-01T02:55:12.000Z</time>
      </trkpt>
      <trkpt lat="43.30133" lon="6.54894">
        <ele>254.2</ele>
        <time>1970-01-01T02:55:16.000Z</time>
      </trkpt>
      <trkpt lat="43.30136" lon="6.54892">
        <ele>254.4</ele>
        <time>1970-01-01T02:55:18.000Z</time>
      </trkpt>
      <trkpt lat="43.30139" lon="6.54885">
        <ele>255.2</ele>
        <time>1970-01-01T02:55:22.000Z</time>
      </trkpt>
      <trkpt lat="43.30139" lon="6.54883">
        <ele>255.4</ele>
        <time>1970-01-01T02:55:23.000Z</time>
      </trkpt>
      <trkpt lat="43.3014" lon="6.54875">
        <ele>256.6</ele>
        <time>1970-01-01T02:55:27.000Z</time>
      </trkpt>
      <trkpt lat="43.30141" lon="6.54867">
        <ele>257.8</ele>
        <time>1970-01-01T02:55:31.000Z</time>
      </trkpt>
      <trkpt lat="43.30142" lon="6.54865">
        <ele>258.2</ele>
        <time>1970-01-01T02:55:32.000Z</time>
      </trkpt>
      <trkpt lat="43.30144" lon="6.54861">
        <ele>259</ele>
        <time>1970-01-01T02:55:34.000Z</time>
      </trkpt>
      <trkpt lat="43.30146" lon="6.54853">
        <ele>260</ele>
        <time>1970-01-01T02:55:39.000Z</time>
      </trkpt>
      <trkpt lat="43.30145" lon="6.54851">
        <ele>260.2</ele>
        <time>1970-01-01T02:55:40.000Z</time>
      </trkpt>
      <trkpt lat="43.30144" lon="6.54848">
        <ele>261.2</ele>
        <time>1970-01-01T02:55:42.000Z</time>
      </trkpt>
      <trkpt lat="43.30144" lon="6.54842">
        <ele>262.4</ele>
        <time>1970-01-01T02:55:45.000Z</time>
      </trkpt>
      <trkpt lat="43.30145" lon="6.5484">
        <ele>262.8</ele>
        <time>1970-01-01T02:55:46.000Z</time>
      </trkpt>
      <trkpt lat="43.30148" lon="6.54836">
        <ele>263.6</ele>
        <time>1970-01-01T02:55:49.000Z</time>
      </trkpt>
      <trkpt lat="43.30151" lon="6.54831">
        <ele>264.4</ele>
        <time>1970-01-01T02:55:53.000Z</time>
      </trkpt>
      <trkpt lat="43.30154" lon="6.54827">
        <ele>264.8</ele>
        <time>1970-01-01T02:55:56.000Z</time>
      </trkpt>
      <trkpt lat="43.30158" lon="6.54814">
        <ele>265.8</ele>
        <time>1970-01-01T02:56:04.000Z</time>
      </trkpt>
      <trkpt lat="43.30162" lon="6.54794">
        <ele>266.8</ele>
        <time>1970-01-01T02:56:13.000Z</time>
      </trkpt>
      <trkpt lat="43.30177" lon="6.54722">
        <ele>267.6</ele>
        <time>1970-01-01T02:56:40.000Z</time>
      </trkpt>
      <trkpt lat="43.30179" lon="6.54717">
        <ele>267.6</ele>
        <time>1970-01-01T02:56:43.000Z</time>
      </trkpt>
      <trkpt lat="43.30184" lon="6.54709">
        <ele>268.8</ele>
        <time>1970-01-01T02:56:49.000Z</time>
      </trkpt>
      <trkpt lat="43.30187" lon="6.54705">
        <ele>269.8</ele>
        <time>1970-01-01T02:56:52.000Z</time>
      </trkpt>
      <trkpt lat="43.30192" lon="6.54698">
        <ele>271.2</ele>
        <time>1970-01-01T02:56:56.000Z</time>
      </trkpt>
      <trkpt lat="43.30197" lon="6.54693">
        <ele>272.2</ele>
        <time>1970-01-01T02:57:00.000Z</time>
      </trkpt>
      <trkpt lat="43.302" lon="6.5469">
        <ele>273.2</ele>
        <time>1970-01-01T02:57:03.000Z</time>
      </trkpt>
      <trkpt lat="43.30205" lon="6.5469">
        <ele>274.4</ele>
        <time>1970-01-01T02:57:06.000Z</time>
      </trkpt>
      <trkpt lat="43.30215" lon="6.54689">
        <ele>275.4</ele>
        <time>1970-01-01T02:57:13.000Z</time>
      </trkpt>
      <trkpt lat="43.30221" lon="6.54687">
        <ele>276.6</ele>
        <time>1970-01-01T02:57:17.000Z</time>
      </trkpt>
      <trkpt lat="43.30225" lon="6.54686">
        <ele>277.6</ele>
        <time>1970-01-01T02:57:20.000Z</time>
      </trkpt>
      <trkpt lat="43.30229" lon="6.54684">
        <ele>278.8</ele>
        <time>1970-01-01T02:57:24.000Z</time>
      </trkpt>
      <trkpt lat="43.30235" lon="6.5468">
        <ele>279.8</ele>
        <time>1970-01-01T02:57:29.000Z</time>
      </trkpt>
      <trkpt lat="43.30243" lon="6.54676">
        <ele>281</ele>
        <time>1970-01-01T02:57:35.000Z</time>
      </trkpt>
      <trkpt lat="43.30248" lon="6.54675">
        <ele>282.4</ele>
        <time>1970-01-01T02:57:39.000Z</time>
      </trkpt>
      <trkpt lat="43.30253" lon="6.54674">
        <ele>283.4</ele>
        <time>1970-01-01T02:57:42.000Z</time>
      </trkpt>
      <trkpt lat="43.30258" lon="6.54673">
        <ele>284.4</ele>
        <time>1970-01-01T02:57:46.000Z</time>
      </trkpt>
      <trkpt lat="43.3027" lon="6.54671">
        <ele>285.6</ele>
        <time>1970-01-01T02:57:55.000Z</time>
      </trkpt>
      <trkpt lat="43.30273" lon="6.54669">
        <ele>286.8</ele>
        <time>1970-01-01T02:57:58.000Z</time>
      </trkpt>
      <trkpt lat="43.30279" lon="6.54669">
        <ele>288</ele>
        <time>1970-01-01T02:58:03.000Z</time>
      </trkpt>
      <trkpt lat="43.30282" lon="6.54667">
        <ele>289</ele>
        <time>1970-01-01T02:58:07.000Z</time>
      </trkpt>
      <trkpt lat="43.30287" lon="6.54666">
        <ele>290.2</ele>
        <time>1970-01-01T02:58:12.000Z</time>
      </trkpt>
      <trkpt lat="43.30295" lon="6.54663">
        <ele>291.4</ele>
        <time>1970-01-01T02:58:18.000Z</time>
      </trkpt>
      <trkpt lat="43.303" lon="6.54657">
        <ele>292.4</ele>
        <time>1970-01-01T02:58:23.000Z</time>
      </trkpt>
      <trkpt lat="43.30305" lon="6.5465">
        <ele>293.8</ele>
        <time>1970-01-01T02:58:29.000Z</time>
      </trkpt>
      <trkpt lat="43.3031" lon="6.54643">
        <ele>295</ele>
        <time>1970-01-01T02:58:34.000Z</time>
      </trkpt>
      <trkpt lat="43.30319" lon="6.54624">
        <ele>295.8</ele>
        <time>1970-01-01T02:58:47.000Z</time>
      </trkpt>
      <trkpt lat="43.30324" lon="6.54613">
        <ele>296.8</ele>
        <time>1970-01-01T02:58:53.000Z</time>
      </trkpt>
      <trkpt lat="43.30327" lon="6.54604">
        <ele>298</ele>
        <time>1970-01-01T02:58:58.000Z</time>
      </trkpt>
      <trkpt lat="43.3033" lon="6.54594">
        <ele>299</ele>
        <time>1970-01-01T02:59:03.000Z</time>
      </trkpt>
      <trkpt lat="43.30333" lon="6.54584">
        <ele>300.2</ele>
        <time>1970-01-01T02:59:09.000Z</time>
      </trkpt>
      <trkpt lat="43.30332" lon="6.54564">
        <ele>301.4</ele>
        <time>1970-01-01T02:59:19.000Z</time>
      </trkpt>
      <trkpt lat="43.30329" lon="6.54554">
        <ele>302.4</ele>
        <time>1970-01-01T02:59:24.000Z</time>
      </trkpt>
      <trkpt lat="43.30323" lon="6.54539">
        <ele>303.6</ele>
        <time>1970-01-01T02:59:32.000Z</time>
      </trkpt>
      <trkpt lat="43.30308" lon="6.54527">
        <ele>304.8</ele>
        <time>1970-01-01T02:59:43.000Z</time>
      </trkpt>
      <trkpt lat="43.30301" lon="6.54524">
        <ele>306</ele>
        <time>1970-01-01T02:59:48.000Z</time>
      </trkpt>
      <trkpt lat="43.30293" lon="6.54518">
        <ele>307.2</ele>
        <time>1970-01-01T02:59:53.000Z</time>
      </trkpt>
      <trkpt lat="43.30285" lon="6.54515">
        <ele>308.4</ele>
        <time>1970-01-01T02:59:57.000Z</time>
      </trkpt>
      <trkpt lat="43.30274" lon="6.54509">
        <ele>309.4</ele>
        <time>1970-01-01T03:00:04.000Z</time>
      </trkpt>
      <trkpt lat="43.30267" lon="6.54502">
        <ele>310.6</ele>
        <time>1970-01-01T03:00:10.000Z</time>
      </trkpt>
      <trkpt lat="43.30263" lon="6.54496">
        <ele>311.8</ele>
        <time>1970-01-01T03:00:15.000Z</time>
      </trkpt>
      <trkpt lat="43.30257" lon="6.5449">
        <ele>313</ele>
        <time>1970-01-01T03:00:20.000Z</time>
      </trkpt>
      <trkpt lat="43.30252" lon="6.54485">
        <ele>314.2</ele>
        <time>1970-01-01T03:00:25.000Z</time>
      </trkpt>
      <trkpt lat="43.3025" lon="6.54478">
        <ele>315.2</ele>
        <time>1970-01-01T03:00:29.000Z</time>
      </trkpt>
      <trkpt lat="43.30245" lon="6.54467">
        <ele>316.4</ele>
        <time>1970-01-01T03:00:35.000Z</time>
      </trkpt>
      <trkpt lat="43.30241" lon="6.54457">
        <ele>317.8</ele>
        <time>1970-01-01T03:00:41.000Z</time>
      </trkpt>
      <trkpt lat="43.30238" lon="6.54448">
        <ele>318.8</ele>
        <time>1970-01-01T03:00:46.000Z</time>
      </trkpt>
      <trkpt lat="43.30235" lon="6.54441">
        <ele>320</ele>
        <time>1970-01-01T03:00:50.000Z</time>
      </trkpt>
      <trkpt lat="43.30232" lon="6.54428">
        <ele>321</ele>
        <time>1970-01-01T03:00:56.000Z</time>
      </trkpt>
      <trkpt lat="43.30233" lon="6.54407">
        <ele>322.2</ele>
        <time>1970-01-01T03:01:06.000Z</time>
      </trkpt>
      <trkpt lat="43.30241" lon="6.54385">
        <ele>323.2</ele>
        <time>1970-01-01T03:01:18.000Z</time>
      </trkpt>
      <trkpt lat="43.30244" lon="6.54377">
        <ele>324.2</ele>
        <time>1970-01-01T03:01:23.000Z</time>
      </trkpt>
      <trkpt lat="43.30247" lon="6.54363">
        <ele>325.4</ele>
        <time>1970-01-01T03:01:30.000Z</time>
      </trkpt>
      <trkpt lat="43.3025" lon="6.54353">
        <ele>326.4</ele>
        <time>1970-01-01T03:01:35.000Z</time>
      </trkpt>
      <trkpt lat="43.30254" lon="6.54338">
        <ele>327.4</ele>
        <time>1970-01-01T03:01:43.000Z</time>
      </trkpt>
      <trkpt lat="43.30258" lon="6.54329">
        <ele>328.4</ele>
        <time>1970-01-01T03:01:48.000Z</time>
      </trkpt>
      <trkpt lat="43.3026" lon="6.54322">
        <ele>329.6</ele>
        <time>1970-01-01T03:01:52.000Z</time>
      </trkpt>
      <trkpt lat="43.30262" lon="6.54318">
        <ele>330.8</ele>
        <time>1970-01-01T03:01:55.000Z</time>
      </trkpt>
      <trkpt lat="43.30264" lon="6.54315">
        <ele>332</ele>
        <time>1970-01-01T03:01:57.000Z</time>
      </trkpt>
      <trkpt lat="43.30267" lon="6.54308">
        <ele>333.2</ele>
        <time>1970-01-01T03:02:01.000Z</time>
      </trkpt>
      <trkpt lat="43.30269" lon="6.54301">
        <ele>334.2</ele>
        <time>1970-01-01T03:02:05.000Z</time>
      </trkpt>
      <trkpt lat="43.30273" lon="6.54289">
        <ele>335.4</ele>
        <time>1970-01-01T03:02:12.000Z</time>
      </trkpt>
      <trkpt lat="43.30275" lon="6.5428">
        <ele>336.4</ele>
        <time>1970-01-01T03:02:17.000Z</time>
      </trkpt>
      <trkpt lat="43.3028" lon="6.54263">
        <ele>337.4</ele>
        <time>1970-01-01T03:02:26.000Z</time>
      </trkpt>
      <trkpt lat="43.30284" lon="6.54256">
        <ele>338.6</ele>
        <time>1970-01-01T03:02:30.000Z</time>
      </trkpt>
      <trkpt lat="43.30292" lon="6.54242">
        <ele>339.8</ele>
        <time>1970-01-01T03:02:39.000Z</time>
      </trkpt>
      <trkpt lat="43.30299" lon="6.54221">
        <ele>340.6</ele>
        <time>1970-01-01T03:02:49.000Z</time>
      </trkpt>
      <trkpt lat="43.30298" lon="6.54205">
        <ele>341.6</ele>
        <time>1970-01-01T03:02:56.000Z</time>
      </trkpt>
      <trkpt lat="43.30295" lon="6.54192">
        <ele>342.8</ele>
        <time>1970-01-01T03:03:02.000Z</time>
      </trkpt>
      <trkpt lat="43.30293" lon="6.54185">
        <ele>344</ele>
        <time>1970-01-01T03:03:06.000Z</time>
      </trkpt>
      <trkpt lat="43.3029" lon="6.54173">
        <ele>345</ele>
        <time>1970-01-01T03:03:12.000Z</time>
      </trkpt>
      <trkpt lat="43.30284" lon="6.54159">
        <ele>346.2</ele>
        <time>1970-01-01T03:03:20.000Z</time>
      </trkpt>
      <trkpt lat="43.3028" lon="6.5415">
        <ele>347.2</ele>
        <time>1970-01-01T03:03:25.000Z</time>
      </trkpt>
      <trkpt lat="43.30274" lon="6.54141">
        <ele>348.2</ele>
        <time>1970-01-01T03:03:31.000Z</time>
      </trkpt>
      <trkpt lat="43.30266" lon="6.54132">
        <ele>349.4</ele>
        <time>1970-01-01T03:03:37.000Z</time>
      </trkpt>
      <trkpt lat="43.30261" lon="6.54125">
        <ele>350.6</ele>
        <time>1970-01-01T03:03:42.000Z</time>
      </trkpt>
      <trkpt lat="43.30258" lon="6.54118">
        <ele>351.6</ele>
        <time>1970-01-01T03:03:46.000Z</time>
      </trkpt>
      <trkpt lat="43.30257" lon="6.54114">
        <ele>352.4</ele>
        <time>1970-01-01T03:03:48.000Z</time>
      </trkpt>
      <trkpt lat="43.30258" lon="6.54109">
        <ele>352.8</ele>
        <time>1970-01-01T03:03:50.000Z</time>
      </trkpt>
      <trkpt lat="43.3026" lon="6.54102">
        <ele>353.2</ele>
        <time>1970-01-01T03:03:54.000Z</time>
      </trkpt>
      <trkpt lat="43.30261" lon="6.54095">
        <ele>353.8</ele>
        <time>1970-01-01T03:03:58.000Z</time>
      </trkpt>
      <trkpt lat="43.30261" lon="6.54091">
        <ele>354.2</ele>
        <time>1970-01-01T03:04:00.000Z</time>
      </trkpt>
      <trkpt lat="43.30262" lon="6.54086">
        <ele>354.8</ele>
        <time>1970-01-01T03:04:03.000Z</time>
      </trkpt>
      <trkpt lat="43.30266" lon="6.54073">
        <ele>355.8</ele>
        <time>1970-01-01T03:04:11.000Z</time>
      </trkpt>
      <trkpt lat="43.30267" lon="6.54066">
        <ele>356.8</ele>
        <time>1970-01-01T03:04:15.000Z</time>
      </trkpt>
      <trkpt lat="43.30316" lon="6.53989">
        <ele>369.6</ele>
        <time>1970-01-01T03:08:23.000Z</time>
      </trkpt>
      <trkpt lat="43.30325" lon="6.53997">
        <ele>369.6</ele>
        <time>1970-01-01T03:08:26.000Z</time>
      </trkpt>
      <trkpt lat="43.30335" lon="6.54036">
        <ele>368.2</ele>
        <time>1970-01-01T03:08:34.000Z</time>
      </trkpt>
      <trkpt lat="43.30345" lon="6.54049">
        <ele>366.8</ele>
        <time>1970-01-01T03:08:37.000Z</time>
      </trkpt>
      <trkpt lat="43.30349" lon="6.54057">
        <ele>364.8</ele>
        <time>1970-01-01T03:08:39.000Z</time>
      </trkpt>
      <trkpt lat="43.30347" lon="6.54065">
        <ele>363.4</ele>
        <time>1970-01-01T03:08:41.000Z</time>
      </trkpt>
      <trkpt lat="43.30343" lon="6.54068">
        <ele>361</ele>
        <time>1970-01-01T03:08:43.000Z</time>
      </trkpt>
      <trkpt lat="43.30341" lon="6.54069">
        <ele>359.8</ele>
        <time>1970-01-01T03:08:44.000Z</time>
      </trkpt>
      <trkpt lat="43.30339" lon="6.54072">
        <ele>358.4</ele>
        <time>1970-01-01T03:08:45.000Z</time>
      </trkpt>
      <trkpt lat="43.30338" lon="6.54078">
        <ele>357</ele>
        <time>1970-01-01T03:08:46.000Z</time>
      </trkpt>
      <trkpt lat="43.30338" lon="6.54085">
        <ele>355.8</ele>
        <time>1970-01-01T03:08:47.000Z</time>
      </trkpt>
      <trkpt lat="43.30339" lon="6.54095">
        <ele>354.6</ele>
        <time>1970-01-01T03:08:48.000Z</time>
      </trkpt>
      <trkpt lat="43.30339" lon="6.54106">
        <ele>353.6</ele>
        <time>1970-01-01T03:08:49.000Z</time>
      </trkpt>
      <trkpt lat="43.30343" lon="6.54128">
        <ele>352.2</ele>
        <time>1970-01-01T03:08:51.000Z</time>
      </trkpt>
      <trkpt lat="43.30351" lon="6.54152">
        <ele>351.4</ele>
        <time>1970-01-01T03:08:53.000Z</time>
      </trkpt>
      <trkpt lat="43.30356" lon="6.54165">
        <ele>350</ele>
        <time>1970-01-01T03:08:54.000Z</time>
      </trkpt>
      <trkpt lat="43.30362" lon="6.54177">
        <ele>348.2</ele>
        <time>1970-01-01T03:08:55.000Z</time>
      </trkpt>
      <trkpt lat="43.30367" lon="6.54187">
        <ele>347</ele>
        <time>1970-01-01T03:08:56.000Z</time>
      </trkpt>
      <trkpt lat="43.30372" lon="6.54197">
        <ele>345.8</ele>
        <time>1970-01-01T03:08:57.000Z</time>
      </trkpt>
      <trkpt lat="43.30375" lon="6.54207">
        <ele>345</ele>
        <time>1970-01-01T03:08:58.000Z</time>
      </trkpt>
      <trkpt lat="43.30376" lon="6.54216">
        <ele>344</ele>
        <time>1970-01-01T03:08:59.000Z</time>
      </trkpt>
      <trkpt lat="43.30376" lon="6.54222">
        <ele>342.4</ele>
        <time>1970-01-01T03:09:00.000Z</time>
      </trkpt>
      <trkpt lat="43.30373" lon="6.54227">
        <ele>341</ele>
        <time>1970-01-01T03:09:01.000Z</time>
      </trkpt>
      <trkpt lat="43.30369" lon="6.54235">
        <ele>339.6</ele>
        <time>1970-01-01T03:09:03.000Z</time>
      </trkpt>
      <trkpt lat="43.30359" lon="6.54292">
        <ele>339.8</ele>
        <time>1970-01-01T03:09:16.000Z</time>
      </trkpt>
      <trkpt lat="43.30363" lon="6.54365">
        <ele>339.8</ele>
        <time>1970-01-01T03:09:24.000Z</time>
      </trkpt>
      <trkpt lat="43.30363" lon="6.54375">
        <ele>339.4</ele>
        <time>1970-01-01T03:09:25.000Z</time>
      </trkpt>
      <trkpt lat="43.30361" lon="6.54396">
        <ele>338.4</ele>
        <time>1970-01-01T03:09:27.000Z</time>
      </trkpt>
      <trkpt lat="43.30361" lon="6.54405">
        <ele>337.8</ele>
        <time>1970-01-01T03:09:28.000Z</time>
      </trkpt>
      <trkpt lat="43.30364" lon="6.54413">
        <ele>337.2</ele>
        <time>1970-01-01T03:09:29.000Z</time>
      </trkpt>
      <trkpt lat="43.30367" lon="6.54437">
        <ele>335.8</ele>
        <time>1970-01-01T03:09:33.000Z</time>
      </trkpt>
      <trkpt lat="43.30365" lon="6.54445">
        <ele>335</ele>
        <time>1970-01-01T03:09:34.000Z</time>
      </trkpt>
      <trkpt lat="43.30364" lon="6.5445">
        <ele>334</ele>
        <time>1970-01-01T03:09:35.000Z</time>
      </trkpt>
      <trkpt lat="43.30365" lon="6.54453">
        <ele>332.6</ele>
        <time>1970-01-01T03:09:36.000Z</time>
      </trkpt>
      <trkpt lat="43.30366" lon="6.54456">
        <ele>331.2</ele>
        <time>1970-01-01T03:09:37.000Z</time>
      </trkpt>
      <trkpt lat="43.30369" lon="6.54459">
        <ele>329.8</ele>
        <time>1970-01-01T03:09:38.000Z</time>
      </trkpt>
      <trkpt lat="43.30374" lon="6.54465">
        <ele>328.4</ele>
        <time>1970-01-01T03:09:39.000Z</time>
      </trkpt>
      <trkpt lat="43.30377" lon="6.54472">
        <ele>327</ele>
        <time>1970-01-01T03:09:40.000Z</time>
      </trkpt>
      <trkpt lat="43.30378" lon="6.5448">
        <ele>326</ele>
        <time>1970-01-01T03:09:41.000Z</time>
      </trkpt>
      <trkpt lat="43.30377" lon="6.54497">
        <ele>324.2</ele>
        <time>1970-01-01T03:09:43.000Z</time>
      </trkpt>
      <trkpt lat="43.30376" lon="6.54507">
        <ele>323.4</ele>
        <time>1970-01-01T03:09:44.000Z</time>
      </trkpt>
      <trkpt lat="43.30375" lon="6.54518">
        <ele>322.2</ele>
        <time>1970-01-01T03:09:45.000Z</time>
      </trkpt>
      <trkpt lat="43.30374" lon="6.5453">
        <ele>320.8</ele>
        <time>1970-01-01T03:09:46.000Z</time>
      </trkpt>
      <trkpt lat="43.30373" lon="6.54543">
        <ele>318.8</ele>
        <time>1970-01-01T03:09:47.000Z</time>
      </trkpt>
      <trkpt lat="43.30372" lon="6.54556">
        <ele>317</ele>
        <time>1970-01-01T03:09:48.000Z</time>
      </trkpt>
      <trkpt lat="43.30371" lon="6.54567">
        <ele>315.6</ele>
        <time>1970-01-01T03:09:49.000Z</time>
      </trkpt>
      <trkpt lat="43.30369" lon="6.54578">
        <ele>314.6</ele>
        <time>1970-01-01T03:09:50.000Z</time>
      </trkpt>
      <trkpt lat="43.30365" lon="6.54588">
        <ele>313.2</ele>
        <time>1970-01-01T03:09:51.000Z</time>
      </trkpt>
      <trkpt lat="43.30362" lon="6.54598">
        <ele>311.6</ele>
        <time>1970-01-01T03:09:52.000Z</time>
      </trkpt>
      <trkpt lat="43.30357" lon="6.54609">
        <ele>310.4</ele>
        <time>1970-01-01T03:09:53.000Z</time>
      </trkpt>
      <trkpt lat="43.30351" lon="6.54618">
        <ele>308.6</ele>
        <time>1970-01-01T03:09:54.000Z</time>
      </trkpt>
      <trkpt lat="43.30346" lon="6.54626">
        <ele>308</ele>
        <time>1970-01-01T03:09:55.000Z</time>
      </trkpt>
      <trkpt lat="43.3034" lon="6.54632">
        <ele>307</ele>
        <time>1970-01-01T03:09:56.000Z</time>
      </trkpt>
      <trkpt lat="43.30331" lon="6.54644">
        <ele>305.6</ele>
        <time>1970-01-01T03:09:58.000Z</time>
      </trkpt>
      <trkpt lat="43.30326" lon="6.54657">
        <ele>303.6</ele>
        <time>1970-01-01T03:10:00.000Z</time>
      </trkpt>
      <trkpt lat="43.30316" lon="6.54664">
        <ele>301.8</ele>
        <time>1970-01-01T03:10:02.000Z</time>
      </trkpt>
      <trkpt lat="43.30305" lon="6.54682">
        <ele>300.2</ele>
        <time>1970-01-01T03:10:05.000Z</time>
      </trkpt>
      <trkpt lat="43.30296" lon="6.54693">
        <ele>298.8</ele>
        <time>1970-01-01T03:10:07.000Z</time>
      </trkpt>
      <trkpt lat="43.30284" lon="6.54694">
        <ele>297.4</ele>
        <time>1970-01-01T03:10:09.000Z</time>
      </trkpt>
      <trkpt lat="43.30278" lon="6.54692">
        <ele>296.8</ele>
        <time>1970-01-01T03:10:10.000Z</time>
      </trkpt>
      <trkpt lat="43.30271" lon="6.54693">
        <ele>296.4</ele>
        <time>1970-01-01T03:10:11.000Z</time>
      </trkpt>
      <trkpt lat="43.30264" lon="6.54694">
        <ele>296</ele>
        <time>1970-01-01T03:10:12.000Z</time>
      </trkpt>
      <trkpt lat="43.30248" lon="6.54709">
        <ele>294.6</ele>
        <time>1970-01-01T03:10:15.000Z</time>
      </trkpt>
      <trkpt lat="43.30242" lon="6.54715">
        <ele>294.4</ele>
        <time>1970-01-01T03:10:16.000Z</time>
      </trkpt>
      <trkpt lat="43.30228" lon="6.54727">
        <ele>293.4</ele>
        <time>1970-01-01T03:10:18.000Z</time>
      </trkpt>
      <trkpt lat="43.30222" lon="6.54736">
        <ele>292.2</ele>
        <time>1970-01-01T03:10:19.000Z</time>
      </trkpt>
      <trkpt lat="43.30217" lon="6.54747">
        <ele>290.6</ele>
        <time>1970-01-01T03:10:20.000Z</time>
      </trkpt>
      <trkpt lat="43.30213" lon="6.54759">
        <ele>288.8</ele>
        <time>1970-01-01T03:10:21.000Z</time>
      </trkpt>
      <trkpt lat="43.30211" lon="6.54771">
        <ele>287.6</ele>
        <time>1970-01-01T03:10:22.000Z</time>
      </trkpt>
      <trkpt lat="43.3021" lon="6.54784">
        <ele>286.4</ele>
        <time>1970-01-01T03:10:23.000Z</time>
      </trkpt>
      <trkpt lat="43.3021" lon="6.54797">
        <ele>285.4</ele>
        <time>1970-01-01T03:10:24.000Z</time>
      </trkpt>
      <trkpt lat="43.30209" lon="6.54811">
        <ele>284</ele>
        <time>1970-01-01T03:10:25.000Z</time>
      </trkpt>
      <trkpt lat="43.30209" lon="6.54825">
        <ele>282.6</ele>
        <time>1970-01-01T03:10:26.000Z</time>
      </trkpt>
      <trkpt lat="43.30209" lon="6.54854">
        <ele>281</ele>
        <time>1970-01-01T03:10:28.000Z</time>
      </trkpt>
      <trkpt lat="43.3021" lon="6.54884">
        <ele>279.2</ele>
        <time>1970-01-01T03:10:30.000Z</time>
      </trkpt>
      <trkpt lat="43.3021" lon="6.54914">
        <ele>277.4</ele>
        <time>1970-01-01T03:10:32.000Z</time>
      </trkpt>
      <trkpt lat="43.3021" lon="6.54927">
        <ele>276.2</ele>
        <time>1970-01-01T03:10:33.000Z</time>
      </trkpt>
      <trkpt lat="43.3021" lon="6.54941">
        <ele>275</ele>
        <time>1970-01-01T03:10:34.000Z</time>
      </trkpt>
      <trkpt lat="43.30212" lon="6.54954">
        <ele>273.2</ele>
        <time>1970-01-01T03:10:35.000Z</time>
      </trkpt>
      <trkpt lat="43.30214" lon="6.54967">
        <ele>272.2</ele>
        <time>1970-01-01T03:10:36.000Z</time>
      </trkpt>
      <trkpt lat="43.30215" lon="6.54992">
        <ele>270.8</ele>
        <time>1970-01-01T03:10:38.000Z</time>
      </trkpt>
      <trkpt lat="43.30214" lon="6.55002">
        <ele>270.2</ele>
        <time>1970-01-01T03:10:39.000Z</time>
      </trkpt>
      <trkpt lat="43.30212" lon="6.55013">
        <ele>269.4</ele>
        <time>1970-01-01T03:10:40.000Z</time>
      </trkpt>
      <trkpt lat="43.30206" lon="6.55031">
        <ele>268</ele>
        <time>1970-01-01T03:10:42.000Z</time>
      </trkpt>
      <trkpt lat="43.30202" lon="6.55041">
        <ele>267.8</ele>
        <time>1970-01-01T03:10:43.000Z</time>
      </trkpt>
      <trkpt lat="43.30191" lon="6.55068">
        <ele>266.8</ele>
        <time>1970-01-01T03:10:46.000Z</time>
      </trkpt>
      <trkpt lat="43.30175" lon="6.5507">
        <ele>265.8</ele>
        <time>1970-01-01T03:10:49.000Z</time>
      </trkpt>
      <trkpt lat="43.30167" lon="6.55066">
        <ele>264.8</ele>
        <time>1970-01-01T03:10:51.000Z</time>
      </trkpt>
      <trkpt lat="43.30163" lon="6.55065">
        <ele>264.4</ele>
        <time>1970-01-01T03:10:52.000Z</time>
      </trkpt>
      <trkpt lat="43.30154" lon="6.55061">
        <ele>263</ele>
        <time>1970-01-01T03:10:54.000Z</time>
      </trkpt>
      <trkpt lat="43.30142" lon="6.55055">
        <ele>261.8</ele>
        <time>1970-01-01T03:10:56.000Z</time>
      </trkpt>
      <trkpt lat="43.3012" lon="6.55086">
        <ele>260.6</ele>
        <time>1970-01-01T03:11:02.000Z</time>
      </trkpt>
      <trkpt lat="43.30117" lon="6.55092">
        <ele>260</ele>
        <time>1970-01-01T03:11:03.000Z</time>
      </trkpt>
      <trkpt lat="43.30112" lon="6.55094">
        <ele>259</ele>
        <time>1970-01-01T03:11:05.000Z</time>
      </trkpt>
      <trkpt lat="43.3011" lon="6.55092">
        <ele>258</ele>
        <time>1970-01-01T03:11:06.000Z</time>
      </trkpt>
      <trkpt lat="43.30109" lon="6.55091">
        <ele>256.4</ele>
        <time>1970-01-01T03:11:07.000Z</time>
      </trkpt>
      <trkpt lat="43.30108" lon="6.55088">
        <ele>255</ele>
        <time>1970-01-01T03:11:08.000Z</time>
      </trkpt>
      <trkpt lat="43.30106" lon="6.55085">
        <ele>254</ele>
        <time>1970-01-01T03:11:09.000Z</time>
      </trkpt>
      <trkpt lat="43.30103" lon="6.55083">
        <ele>252.2</ele>
        <time>1970-01-01T03:11:10.000Z</time>
      </trkpt>
      <trkpt lat="43.30097" lon="6.55082">
        <ele>250.8</ele>
        <time>1970-01-01T03:11:12.000Z</time>
      </trkpt>
      <trkpt lat="43.30089" lon="6.5508">
        <ele>250</ele>
        <time>1970-01-01T03:11:14.000Z</time>
      </trkpt>
      <trkpt lat="43.30087" lon="6.55077">
        <ele>249.8</ele>
        <time>1970-01-01T03:11:15.000Z</time>
      </trkpt>
      <trkpt lat="43.30082" lon="6.55065">
        <ele>248.6</ele>
        <time>1970-01-01T03:11:18.000Z</time>
      </trkpt>
      <trkpt lat="43.30076" lon="6.55063">
        <ele>247.6</ele>
        <time>1970-01-01T03:11:20.000Z</time>
      </trkpt>
      <trkpt lat="43.30069" lon="6.55071">
        <ele>245.4</ele>
        <time>1970-01-01T03:11:22.000Z</time>
      </trkpt>
      <trkpt lat="43.30067" lon="6.55076">
        <ele>244.2</ele>
        <time>1970-01-01T03:11:23.000Z</time>
      </trkpt>
      <trkpt lat="43.30064" lon="6.55078">
        <ele>243.4</ele>
        <time>1970-01-01T03:11:24.000Z</time>
      </trkpt>
      <trkpt lat="43.30062" lon="6.55078">
        <ele>242.8</ele>
        <time>1970-01-01T03:11:25.000Z</time>
      </trkpt>
      <trkpt lat="43.30058" lon="6.55073">
        <ele>240.8</ele>
        <time>1970-01-01T03:11:27.000Z</time>
      </trkpt>
      <trkpt lat="43.30055" lon="6.55071">
        <ele>239.8</ele>
        <time>1970-01-01T03:11:28.000Z</time>
      </trkpt>
      <trkpt lat="43.30052" lon="6.55068">
        <ele>238.8</ele>
        <time>1970-01-01T03:11:29.000Z</time>
      </trkpt>
      <trkpt lat="43.30043" lon="6.55062">
        <ele>237</ele>
        <time>1970-01-01T03:11:31.000Z</time>
      </trkpt>
      <trkpt lat="43.30037" lon="6.55062">
        <ele>236</ele>
        <time>1970-01-01T03:11:32.000Z</time>
      </trkpt>
      <trkpt lat="43.30027" lon="6.55067">
        <ele>234</ele>
        <time>1970-01-01T03:11:34.000Z</time>
      </trkpt>
      <trkpt lat="43.30022" lon="6.55071">
        <ele>232.4</ele>
        <time>1970-01-01T03:11:35.000Z</time>
      </trkpt>
      <trkpt lat="43.30013" lon="6.55081">
        <ele>230.6</ele>
        <time>1970-01-01T03:11:37.000Z</time>
      </trkpt>
      <trkpt lat="43.30003" lon="6.55082">
        <ele>228.8</ele>
        <time>1970-01-01T03:11:39.000Z</time>
      </trkpt>
      <trkpt lat="43.29999" lon="6.55082">
        <ele>227.6</ele>
        <time>1970-01-01T03:11:40.000Z</time>
      </trkpt>
      <trkpt lat="43.29997" lon="6.55084">
        <ele>226</ele>
        <time>1970-01-01T03:11:41.000Z</time>
      </trkpt>
      <trkpt lat="43.29994" lon="6.55086">
        <ele>224.2</ele>
        <time>1970-01-01T03:11:42.000Z</time>
      </trkpt>
      <trkpt lat="43.29993" lon="6.55087">
        <ele>222.6</ele>
        <time>1970-01-01T03:11:43.000Z</time>
      </trkpt>
      <trkpt lat="43.29993" lon="6.55087">
        <ele>220.6</ele>
        <time>1970-01-01T03:11:44.000Z</time>
      </trkpt>
      <trkpt lat="43.29993" lon="6.55088">
        <ele>219.4</ele>
        <time>1970-01-01T03:11:45.000Z</time>
      </trkpt>
      <trkpt lat="43.29992" lon="6.55096">
        <ele>213.8</ele>
        <time>1970-01-01T03:12:21.000Z</time>
      </trkpt>
      <trkpt lat="43.29956" lon="6.55113">
        <ele>212.2</ele>
        <time>1970-01-01T03:12:29.000Z</time>
      </trkpt>
      <trkpt lat="43.2995" lon="6.55118">
        <ele>212</ele>
        <time>1970-01-01T03:12:30.000Z</time>
      </trkpt>
      <trkpt lat="43.29946" lon="6.55123">
        <ele>211</ele>
        <time>1970-01-01T03:12:31.000Z</time>
      </trkpt>
      <trkpt lat="43.29941" lon="6.55127">
        <ele>210.2</ele>
        <time>1970-01-01T03:12:32.000Z</time>
      </trkpt>
      <trkpt lat="43.29936" lon="6.55132">
        <ele>209.4</ele>
        <time>1970-01-01T03:12:33.000Z</time>
      </trkpt>
      <trkpt lat="43.29929" lon="6.55144">
        <ele>207.2</ele>
        <time>1970-01-01T03:12:35.000Z</time>
      </trkpt>
      <trkpt lat="43.29926" lon="6.55152">
        <ele>206</ele>
        <time>1970-01-01T03:12:36.000Z</time>
      </trkpt>
      <trkpt lat="43.29922" lon="6.55159">
        <ele>204.6</ele>
        <time>1970-01-01T03:12:37.000Z</time>
      </trkpt>
      <trkpt lat="43.29918" lon="6.55165">
        <ele>203.2</ele>
        <time>1970-01-01T03:12:38.000Z</time>
      </trkpt>
      <trkpt lat="43.29915" lon="6.55172">
        <ele>201.4</ele>
        <time>1970-01-01T03:12:39.000Z</time>
      </trkpt>
      <trkpt lat="43.29912" lon="6.5518">
        <ele>199.6</ele>
        <time>1970-01-01T03:12:40.000Z</time>
      </trkpt>
      <trkpt lat="43.29909" lon="6.55188">
        <ele>197.8</ele>
        <time>1970-01-01T03:12:41.000Z</time>
      </trkpt>
      <trkpt lat="43.29906" lon="6.55197">
        <ele>195.8</ele>
        <time>1970-01-01T03:12:42.000Z</time>
      </trkpt>
      <trkpt lat="43.29903" lon="6.55205">
        <ele>193.8</ele>
        <time>1970-01-01T03:12:43.000Z</time>
      </trkpt>
      <trkpt lat="43.29899" lon="6.55211">
        <ele>192.4</ele>
        <time>1970-01-01T03:12:44.000Z</time>
      </trkpt>
      <trkpt lat="43.29895" lon="6.55217">
        <ele>191.2</ele>
        <time>1970-01-01T03:12:45.000Z</time>
      </trkpt>
      <trkpt lat="43.29893" lon="6.55224">
        <ele>189.8</ele>
        <time>1970-01-01T03:12:46.000Z</time>
      </trkpt>
      <trkpt lat="43.2989" lon="6.55229">
        <ele>188.4</ele>
        <time>1970-01-01T03:12:47.000Z</time>
      </trkpt>
      <trkpt lat="43.29888" lon="6.5523">
        <ele>187.2</ele>
        <time>1970-01-01T03:12:48.000Z</time>
      </trkpt>
      <trkpt lat="43.29885" lon="6.55227">
        <ele>186.2</ele>
        <time>1970-01-01T03:12:49.000Z</time>
      </trkpt>
      <trkpt lat="43.29876" lon="6.55224">
        <ele>184.8</ele>
        <time>1970-01-01T03:12:51.000Z</time>
      </trkpt>
      <trkpt lat="43.29871" lon="6.55222">
        <ele>183.2</ele>
        <time>1970-01-01T03:12:53.000Z</time>
      </trkpt>
      <trkpt lat="43.29869" lon="6.55219">
        <ele>181.6</ele>
        <time>1970-01-01T03:12:54.000Z</time>
      </trkpt>
      <trkpt lat="43.29864" lon="6.55216">
        <ele>180.2</ele>
        <time>1970-01-01T03:12:56.000Z</time>
      </trkpt>
      <trkpt lat="43.29859" lon="6.55218">
        <ele>178.2</ele>
        <time>1970-01-01T03:12:58.000Z</time>
      </trkpt>
      <trkpt lat="43.29855" lon="6.55219">
        <ele>176.8</ele>
        <time>1970-01-01T03:12:59.000Z</time>
      </trkpt>
      <trkpt lat="43.29851" lon="6.55219">
        <ele>175.4</ele>
        <time>1970-01-01T03:13:00.000Z</time>
      </trkpt>
      <trkpt lat="43.29842" lon="6.55216">
        <ele>173.6</ele>
        <time>1970-01-01T03:13:02.000Z</time>
      </trkpt>
      <trkpt lat="43.29838" lon="6.55213">
        <ele>172.2</ele>
        <time>1970-01-01T03:13:03.000Z</time>
      </trkpt>
      <trkpt lat="43.29835" lon="6.55212">
        <ele>170.8</ele>
        <time>1970-01-01T03:13:04.000Z</time>
      </trkpt>
      <trkpt lat="43.2983" lon="6.55213">
        <ele>169.2</ele>
        <time>1970-01-01T03:13:05.000Z</time>
      </trkpt>
      <trkpt lat="43.29825" lon="6.55215">
        <ele>167.8</ele>
        <time>1970-01-01T03:13:06.000Z</time>
      </trkpt>
      <trkpt lat="43.2982" lon="6.55217">
        <ele>166.4</ele>
        <time>1970-01-01T03:13:07.000Z</time>
      </trkpt>
      <trkpt lat="43.29817" lon="6.55216">
        <ele>164.8</ele>
        <time>1970-01-01T03:13:08.000Z</time>
      </trkpt>
      <trkpt lat="43.29813" lon="6.55214">
        <ele>162.8</ele>
        <time>1970-01-01T03:13:09.000Z</time>
      </trkpt>
      <trkpt lat="43.29809" lon="6.55212">
        <ele>161.6</ele>
        <time>1970-01-01T03:13:10.000Z</time>
      </trkpt>
      <trkpt lat="43.29803" lon="6.5521">
        <ele>159.2</ele>
        <time>1970-01-01T03:13:12.000Z</time>
      </trkpt>
      <trkpt lat="43.29801" lon="6.55208">
        <ele>157.6</ele>
        <time>1970-01-01T03:13:13.000Z</time>
      </trkpt>
      <trkpt lat="43.29802" lon="6.55206">
        <ele>156</ele>
        <time>1970-01-01T03:13:14.000Z</time>
      </trkpt>
      <trkpt lat="43.298" lon="6.55202">
        <ele>154.8</ele>
        <time>1970-01-01T03:13:15.000Z</time>
      </trkpt>
      <trkpt lat="43.29799" lon="6.55198">
        <ele>153.8</ele>
        <time>1970-01-01T03:13:16.000Z</time>
      </trkpt>
      <trkpt lat="43.29791" lon="6.55195">
        <ele>151.6</ele>
        <time>1970-01-01T03:13:18.000Z</time>
      </trkpt>
      <trkpt lat="43.29786" lon="6.55196">
        <ele>150.2</ele>
        <time>1970-01-01T03:13:19.000Z</time>
      </trkpt>
      <trkpt lat="43.29781" lon="6.55199">
        <ele>148.8</ele>
        <time>1970-01-01T03:13:20.000Z</time>
      </trkpt>
      <trkpt lat="43.29777" lon="6.55203">
        <ele>147.6</ele>
        <time>1970-01-01T03:13:21.000Z</time>
      </trkpt>
      <trkpt lat="43.29773" lon="6.55207">
        <ele>146.6</ele>
        <time>1970-01-01T03:13:22.000Z</time>
      </trkpt>
      <trkpt lat="43.29768" lon="6.55213">
        <ele>145.6</ele>
        <time>1970-01-01T03:13:23.000Z</time>
      </trkpt>
      <trkpt lat="43.29764" lon="6.55221">
        <ele>144.4</ele>
        <time>1970-01-01T03:13:24.000Z</time>
      </trkpt>
      <trkpt lat="43.29759" lon="6.55228">
        <ele>143</ele>
        <time>1970-01-01T03:13:25.000Z</time>
      </trkpt>
      <trkpt lat="43.29755" lon="6.55236">
        <ele>141.4</ele>
        <time>1970-01-01T03:13:26.000Z</time>
      </trkpt>
      <trkpt lat="43.29751" lon="6.55243">
        <ele>140.2</ele>
        <time>1970-01-01T03:13:27.000Z</time>
      </trkpt>
      <trkpt lat="43.29748" lon="6.55251">
        <ele>137.8</ele>
        <time>1970-01-01T03:13:28.000Z</time>
      </trkpt>
      <trkpt lat="43.29745" lon="6.55259">
        <ele>136.2</ele>
        <time>1970-01-01T03:13:29.000Z</time>
      </trkpt>
      <trkpt lat="43.29743" lon="6.55268">
        <ele>134.6</ele>
        <time>1970-01-01T03:13:30.000Z</time>
      </trkpt>
      <trkpt lat="43.29742" lon="6.55278">
        <ele>133.2</ele>
        <time>1970-01-01T03:13:31.000Z</time>
      </trkpt>
      <trkpt lat="43.29741" lon="6.55289">
        <ele>131.8</ele>
        <time>1970-01-01T03:13:32.000Z</time>
      </trkpt>
      <trkpt lat="43.29739" lon="6.55299">
        <ele>130.8</ele>
        <time>1970-01-01T03:13:33.000Z</time>
      </trkpt>
      <trkpt lat="43.29736" lon="6.5531">
        <ele>129.4</ele>
        <time>1970-01-01T03:13:34.000Z</time>
      </trkpt>
      <trkpt lat="43.29735" lon="6.5532">
        <ele>127.8</ele>
        <time>1970-01-01T03:13:35.000Z</time>
      </trkpt>
      <trkpt lat="43.29733" lon="6.55331">
        <ele>126.6</ele>
        <time>1970-01-01T03:13:36.000Z</time>
      </trkpt>
      <trkpt lat="43.29732" lon="6.55342">
        <ele>125.6</ele>
        <time>1970-01-01T03:13:37.000Z</time>
      </trkpt>
      <trkpt lat="43.29729" lon="6.55365">
        <ele>123.8</ele>
        <time>1970-01-01T03:13:39.000Z</time>
      </trkpt>
      <trkpt lat="43.29728" lon="6.55375">
        <ele>122.6</ele>
        <time>1970-01-01T03:13:40.000Z</time>
      </trkpt>
      <trkpt lat="43.2973" lon="6.55384">
        <ele>121.4</ele>
        <time>1970-01-01T03:13:41.000Z</time>
      </trkpt>
      <trkpt lat="43.29731" lon="6.55389">
        <ele>120.4</ele>
        <time>1970-01-01T03:13:42.000Z</time>
      </trkpt>
      <trkpt lat="43.29731" lon="6.55395">
        <ele>119.2</ele>
        <time>1970-01-01T03:13:43.000Z</time>
      </trkpt>
      <trkpt lat="43.29727" lon="6.55406">
        <ele>118</ele>
        <time>1970-01-01T03:13:45.000Z</time>
      </trkpt>
      <trkpt lat="43.29726" lon="6.55412">
        <ele>116.8</ele>
        <time>1970-01-01T03:13:46.000Z</time>
      </trkpt>
      <trkpt lat="43.29726" lon="6.55418">
        <ele>115.6</ele>
        <time>1970-01-01T03:13:47.000Z</time>
      </trkpt>
      <trkpt lat="43.29725" lon="6.55424">
        <ele>114.2</ele>
        <time>1970-01-01T03:13:48.000Z</time>
      </trkpt>
      <trkpt lat="43.29725" lon="6.55439">
        <ele>112.6</ele>
        <time>1970-01-01T03:13:50.000Z</time>
      </trkpt>
      <trkpt lat="43.29722" lon="6.55459">
        <ele>111.6</ele>
        <time>1970-01-01T03:13:53.000Z</time>
      </trkpt>
      <trkpt lat="43.29724" lon="6.555">
        <ele>110.4</ele>
        <time>1970-01-01T03:13:57.000Z</time>
      </trkpt>
      <trkpt lat="43.29733" lon="6.55543">
        <ele>108.8</ele>
        <time>1970-01-01T03:14:02.000Z</time>
      </trkpt>
      <trkpt lat="43.29733" lon="6.55551">
        <ele>107.4</ele>
        <time>1970-01-01T03:14:03.000Z</time>
      </trkpt>
      <trkpt lat="43.29732" lon="6.55559">
        <ele>106.4</ele>
        <time>1970-01-01T03:14:04.000Z</time>
      </trkpt>
      <trkpt lat="43.29732" lon="6.55565">
        <ele>105.6</ele>
        <time>1970-01-01T03:14:05.000Z</time>
      </trkpt>
      <trkpt lat="43.2973" lon="6.55577">
        <ele>104.4</ele>
        <time>1970-01-01T03:14:07.000Z</time>
      </trkpt>
      <trkpt lat="43.2973" lon="6.55585">
        <ele>104.2</ele>
        <time>1970-01-01T03:14:08.000Z</time>
      </trkpt>
      <trkpt lat="43.29728" lon="6.55593">
        <ele>103.4</ele>
        <time>1970-01-01T03:14:09.000Z</time>
      </trkpt>
      <trkpt lat="43.29723" lon="6.55627">
        <ele>102.4</ele>
        <time>1970-01-01T03:14:13.000Z</time>
      </trkpt>
      <trkpt lat="43.29721" lon="6.55651">
        <ele>101.2</ele>
        <time>1970-01-01T03:14:16.000Z</time>
      </trkpt>
      <trkpt lat="43.2972" lon="6.55677">
        <ele>99.4</ele>
        <time>1970-01-01T03:14:20.000Z</time>
      </trkpt>
      <trkpt lat="43.29721" lon="6.55697">
        <ele>98.4</ele>
        <time>1970-01-01T03:14:24.000Z</time>
      </trkpt>
      <trkpt lat="43.2972" lon="6.55703">
        <ele>98.4</ele>
        <time>1970-01-01T03:14:26.000Z</time>
      </trkpt>
      <trkpt lat="43.29716" lon="6.55705">
        <ele>98</ele>
        <time>1970-01-01T03:14:29.000Z</time>
      </trkpt>
      <trkpt lat="43.29711" lon="6.55706">
        <ele>97.2</ele>
        <time>1970-01-01T03:15:55.000Z</time>
      </trkpt>
      <trkpt lat="43.29676" lon="6.55764">
        <ele>97.8</ele>
        <time>1970-01-01T03:16:12.000Z</time>
      </trkpt>
      <trkpt lat="43.29667" lon="6.55779">
        <ele>98.2</ele>
        <time>1970-01-01T03:16:16.000Z</time>
      </trkpt>
      <trkpt lat="43.29645" lon="6.55812">
        <ele>99.4</ele>
        <time>1970-01-01T03:16:25.000Z</time>
      </trkpt>
      <trkpt lat="43.29625" lon="6.55851">
        <ele>100.6</ele>
        <time>1970-01-01T03:16:35.000Z</time>
      </trkpt>
      <trkpt lat="43.29612" lon="6.55882">
        <ele>101.6</ele>
        <time>1970-01-01T03:16:43.000Z</time>
      </trkpt>
      <trkpt lat="43.29606" lon="6.55905">
        <ele>102.8</ele>
        <time>1970-01-01T03:16:49.000Z</time>
      </trkpt>
      <trkpt lat="43.296" lon="6.55929">
        <ele>103.8</ele>
        <time>1970-01-01T03:16:55.000Z</time>
      </trkpt>
      <trkpt lat="43.29594" lon="6.55951">
        <ele>105</ele>
        <time>1970-01-01T03:17:01.000Z</time>
      </trkpt>
      <trkpt lat="43.29586" lon="6.55974">
        <ele>106</ele>
        <time>1970-01-01T03:17:08.000Z</time>
      </trkpt>
      <trkpt lat="43.29583" lon="6.55997">
        <ele>107</ele>
        <time>1970-01-01T03:17:14.000Z</time>
      </trkpt>
      <trkpt lat="43.29581" lon="6.56025">
        <ele>108.2</ele>
        <time>1970-01-01T03:17:21.000Z</time>
      </trkpt>
      <trkpt lat="43.29586" lon="6.5605">
        <ele>109.2</ele>
        <time>1970-01-01T03:17:28.000Z</time>
      </trkpt>
      <trkpt lat="43.29593" lon="6.56064">
        <ele>110.4</ele>
        <time>1970-01-01T03:17:32.000Z</time>
      </trkpt>
      <trkpt lat="43.29607" lon="6.5608">
        <ele>111.4</ele>
        <time>1970-01-01T03:17:39.000Z</time>
      </trkpt>
      <trkpt lat="43.29618" lon="6.56088">
        <ele>112.4</ele>
        <time>1970-01-01T03:17:44.000Z</time>
      </trkpt>
      <trkpt lat="43.29635" lon="6.56097">
        <ele>113.6</ele>
        <time>1970-01-01T03:17:51.000Z</time>
      </trkpt>
      <trkpt lat="43.29645" lon="6.56102">
        <ele>114.2</ele>
        <time>1970-01-01T03:17:55.000Z</time>
      </trkpt>
      <trkpt lat="43.29653" lon="6.56105">
        <ele>114.6</ele>
        <time>1970-01-01T03:17:58.000Z</time>
      </trkpt>
      <trkpt lat="43.29671" lon="6.56114">
        <ele>115.8</ele>
        <time>1970-01-01T03:18:05.000Z</time>
      </trkpt>
      <trkpt lat="43.29686" lon="6.56115">
        <ele>116.8</ele>
        <time>1970-01-01T03:18:11.000Z</time>
      </trkpt>
      <trkpt lat="43.29703" lon="6.56105">
        <ele>118</ele>
        <time>1970-01-01T03:18:18.000Z</time>
      </trkpt>
      <trkpt lat="43.29716" lon="6.56095">
        <ele>119</ele>
        <time>1970-01-01T03:18:24.000Z</time>
      </trkpt>
      <trkpt lat="43.29725" lon="6.56089">
        <ele>120.2</ele>
        <time>1970-01-01T03:18:28.000Z</time>
      </trkpt>
      <trkpt lat="43.29735" lon="6.56078">
        <ele>121.2</ele>
        <time>1970-01-01T03:18:33.000Z</time>
      </trkpt>
      <trkpt lat="43.2975" lon="6.5606">
        <ele>122.4</ele>
        <time>1970-01-01T03:18:41.000Z</time>
      </trkpt>
      <trkpt lat="43.29761" lon="6.56044">
        <ele>123.6</ele>
        <time>1970-01-01T03:18:47.000Z</time>
      </trkpt>
      <trkpt lat="43.29772" lon="6.56022">
        <ele>124.6</ele>
        <time>1970-01-01T03:18:54.000Z</time>
      </trkpt>
      <trkpt lat="43.29784" lon="6.56012">
        <ele>125.6</ele>
        <time>1970-01-01T03:18:59.000Z</time>
      </trkpt>
      <trkpt lat="43.29799" lon="6.56007">
        <ele>126.8</ele>
        <time>1970-01-01T03:19:05.000Z</time>
      </trkpt>
      <trkpt lat="43.29817" lon="6.55999">
        <ele>127.8</ele>
        <time>1970-01-01T03:19:12.000Z</time>
      </trkpt>
      <trkpt lat="43.29828" lon="6.55991">
        <ele>129</ele>
        <time>1970-01-01T03:19:17.000Z</time>
      </trkpt>
      <trkpt lat="43.29839" lon="6.55982">
        <ele>130</ele>
        <time>1970-01-01T03:19:22.000Z</time>
      </trkpt>
      <trkpt lat="43.29856" lon="6.55968">
        <ele>131</ele>
        <time>1970-01-01T03:19:29.000Z</time>
      </trkpt>
      <trkpt lat="43.29876" lon="6.55949">
        <ele>132.2</ele>
        <time>1970-01-01T03:19:38.000Z</time>
      </trkpt>
      <trkpt lat="43.29888" lon="6.55933">
        <ele>133.6</ele>
        <time>1970-01-01T03:19:44.000Z</time>
      </trkpt>
      <trkpt lat="43.29899" lon="6.55917">
        <ele>134.8</ele>
        <time>1970-01-01T03:19:50.000Z</time>
      </trkpt>
      <trkpt lat="43.29908" lon="6.55899">
        <ele>135.8</ele>
        <time>1970-01-01T03:19:56.000Z</time>
      </trkpt>
      <trkpt lat="43.29921" lon="6.55881">
        <ele>137</ele>
        <time>1970-01-01T03:20:03.000Z</time>
      </trkpt>
      <trkpt lat="43.29939" lon="6.55862">
        <ele>138.2</ele>
        <time>1970-01-01T03:20:12.000Z</time>
      </trkpt>
      <trkpt lat="43.29952" lon="6.55853">
        <ele>139.2</ele>
        <time>1970-01-01T03:20:18.000Z</time>
      </trkpt>
      <trkpt lat="43.29964" lon="6.55846">
        <ele>140.4</ele>
        <time>1970-01-01T03:20:23.000Z</time>
      </trkpt>
      <trkpt lat="43.29978" lon="6.55839">
        <ele>141.4</ele>
        <time>1970-01-01T03:20:29.000Z</time>
      </trkpt>
      <trkpt lat="43.29995" lon="6.55833">
        <ele>142.4</ele>
        <time>1970-01-01T03:20:36.000Z</time>
      </trkpt>
      <trkpt lat="43.30014" lon="6.55826">
        <ele>143.6</ele>
        <time>1970-01-01T03:20:43.000Z</time>
      </trkpt>
      <trkpt lat="43.30029" lon="6.55819">
        <ele>144.8</ele>
        <time>1970-01-01T03:20:49.000Z</time>
      </trkpt>
      <trkpt lat="43.30038" lon="6.55813">
        <ele>145.8</ele>
        <time>1970-01-01T03:20:53.000Z</time>
      </trkpt>
      <trkpt lat="43.30056" lon="6.55798">
        <ele>147.2</ele>
        <time>1970-01-01T03:21:00.000Z</time>
      </trkpt>
      <trkpt lat="43.30071" lon="6.55775">
        <ele>148.4</ele>
        <time>1970-01-01T03:21:07.000Z</time>
      </trkpt>
      <trkpt lat="43.30101" lon="6.55718">
        <ele>149.2</ele>
        <time>1970-01-01T03:21:22.000Z</time>
      </trkpt>
      <trkpt lat="43.30138" lon="6.55664">
        <ele>149.8</ele>
        <time>1970-01-01T03:21:36.000Z</time>
      </trkpt>
      <trkpt lat="43.30145" lon="6.55659">
        <ele>150</ele>
        <time>1970-01-01T03:21:38.000Z</time>
      </trkpt>
      <trkpt lat="43.30149" lon="6.55657">
        <ele>150.2</ele>
        <time>1970-01-01T03:21:39.000Z</time>
      </trkpt>
      <trkpt lat="43.30166" lon="6.55655">
        <ele>150.4</ele>
        <time>1970-01-01T03:21:43.000Z</time>
      </trkpt>
      <trkpt lat="43.3022" lon="6.55642">
        <ele>151.2</ele>
        <time>1970-01-01T03:21:57.000Z</time>
      </trkpt>
      <trkpt lat="43.30223" lon="6.5564">
        <ele>151.4</ele>
        <time>1970-01-01T03:21:58.000Z</time>
      </trkpt>
      <trkpt lat="43.30254" lon="6.55614">
        <ele>152.4</ele>
        <time>1970-01-01T03:22:07.000Z</time>
      </trkpt>
      <trkpt lat="43.30283" lon="6.55573">
        <ele>153.4</ele>
        <time>1970-01-01T03:22:18.000Z</time>
      </trkpt>
      <trkpt lat="43.30312" lon="6.55575">
        <ele>154.4</ele>
        <time>1970-01-01T03:22:27.000Z</time>
      </trkpt>
      <trkpt lat="43.30343" lon="6.55573">
        <ele>155.4</ele>
        <time>1970-01-01T03:22:36.000Z</time>
      </trkpt>
      <trkpt lat="43.30369" lon="6.55568">
        <ele>156.6</ele>
        <time>1970-01-01T03:22:44.000Z</time>
      </trkpt>
      <trkpt lat="43.30382" lon="6.55562">
        <ele>157.6</ele>
        <time>1970-01-01T03:22:49.000Z</time>
      </trkpt>
      <trkpt lat="43.30399" lon="6.55548">
        <ele>158.8</ele>
        <time>1970-01-01T03:22:55.000Z</time>
      </trkpt>
      <trkpt lat="43.30429" lon="6.55519">
        <ele>160</ele>
        <time>1970-01-01T03:23:06.000Z</time>
      </trkpt>
      <trkpt lat="43.30442" lon="6.55507">
        <ele>161.2</ele>
        <time>1970-01-01T03:23:12.000Z</time>
      </trkpt>
      <trkpt lat="43.30461" lon="6.55497">
        <ele>162.4</ele>
        <time>1970-01-01T03:23:18.000Z</time>
      </trkpt>
      <trkpt lat="43.30484" lon="6.55476">
        <ele>163.6</ele>
        <time>1970-01-01T03:23:26.000Z</time>
      </trkpt>
      <trkpt lat="43.305" lon="6.55455">
        <ele>164.6</ele>
        <time>1970-01-01T03:23:33.000Z</time>
      </trkpt>
      <trkpt lat="43.30513" lon="6.55443">
        <ele>165.8</ele>
        <time>1970-01-01T03:23:38.000Z</time>
      </trkpt>
      <trkpt lat="43.30531" lon="6.55435">
        <ele>166.8</ele>
        <time>1970-01-01T03:23:44.000Z</time>
      </trkpt>
      <trkpt lat="43.30555" lon="6.5543">
        <ele>167.8</ele>
        <time>1970-01-01T03:23:51.000Z</time>
      </trkpt>
      <trkpt lat="43.30571" lon="6.55422">
        <ele>169</ele>
        <time>1970-01-01T03:23:56.000Z</time>
      </trkpt>
      <trkpt lat="43.306" lon="6.55399">
        <ele>170</ele>
        <time>1970-01-01T03:24:05.000Z</time>
      </trkpt>
      <trkpt lat="43.30615" lon="6.55379">
        <ele>171.2</ele>
        <time>1970-01-01T03:24:11.000Z</time>
      </trkpt>
      <trkpt lat="43.30637" lon="6.55358">
        <ele>172.2</ele>
        <time>1970-01-01T03:24:19.000Z</time>
      </trkpt>
      <trkpt lat="43.30633" lon="6.55318">
        <ele>173.4</ele>
        <time>1970-01-01T03:24:26.000Z</time>
      </trkpt>
      <trkpt lat="43.30616" lon="6.55289">
        <ele>174.4</ele>
        <time>1970-01-01T03:24:32.000Z</time>
      </trkpt>
      <trkpt lat="43.30626" lon="6.55227">
        <ele>174.6</ele>
        <time>1970-01-01T03:24:46.000Z</time>
      </trkpt>
      <trkpt lat="43.30644" lon="6.55214">
        <ele>175.2</ele>
        <time>1970-01-01T03:24:51.000Z</time>
      </trkpt>
      <trkpt lat="43.30664" lon="6.55213">
        <ele>176.4</ele>
        <time>1970-01-01T03:24:56.000Z</time>
      </trkpt>
      <trkpt lat="43.30704" lon="6.55232">
        <ele>177.6</ele>
        <time>1970-01-01T03:25:07.000Z</time>
      </trkpt>
      <trkpt lat="43.3074" lon="6.55206">
        <ele>178.4</ele>
        <time>1970-01-01T03:25:18.000Z</time>
      </trkpt>
      <trkpt lat="43.3077" lon="6.55189">
        <ele>179.6</ele>
        <time>1970-01-01T03:25:28.000Z</time>
      </trkpt>
      <trkpt lat="43.30788" lon="6.55175">
        <ele>180</ele>
        <time>1970-01-01T03:25:36.000Z</time>
      </trkpt>
      <trkpt lat="43.30792" lon="6.55172">
        <ele>180.2</ele>
        <time>1970-01-01T03:25:40.000Z</time>
      </trkpt>
    </trkseg>
  </trk>
</gpx>